Wetterdaten: Samstag, 08.10.2016
Datum Zeit Temp. A. Temp. A. max Feuchte A. Luftdruck Regen Wind Richtung Richtung Sonnenschein ET UV Solar Taupunkt Windben
08.10.2016 00:00 6,2 C 6,2 C 95 % 1017,6 hPa 0,0 mm 0,9 km/h (0 Bft) O-NO 61 0 min 0,000 mm 0,0 UV-I 0 W/m 5,5 C 3,2 km/h (1 Bft)
08.10.2016 00:01 6,2 C 6,2 C 95 % 1017,6 hPa 0,0 mm 2,5 km/h (1 Bft) O-NO 61 0 min 0,000 mm 0,0 UV-I 0 W/m 5,5 C 3,2 km/h (1 Bft)
08.10.2016 00:02 6,2 C 6,2 C 95 % 1017,6 hPa 0,0 mm 1,5 km/h (1 Bft) O-NO 61 0 min 0,000 mm 0,0 UV-I 0 W/m 5,5 C 3,2 km/h (1 Bft)
08.10.2016 00:03 6,2 C 6,2 C 95 % 1017,5 hPa 0,0 mm 1,3 km/h (1 Bft) O-NO 61 0 min 0,000 mm 0,0 UV-I 0 W/m 5,5 C 3,2 km/h (1 Bft)
08.10.2016 00:04 6,2 C 6,2 C 95 % 1017,5 hPa 0,0 mm 0,5 km/h (0 Bft) O-NO 61 0 min 0,000 mm 0,0 UV-I 0 W/m 5,5 C 1,6 km/h (1 Bft)
08.10.2016 00:05 6,2 C 6,2 C 95 % 1017,6 hPa 0,0 mm 2,4 km/h (1 Bft) O-NO 61 0 min 0,000 mm 0,0 UV-I 0 W/m 5,5 C 4,8 km/h (1 Bft)
08.10.2016 00:06 6,2 C 6,2 C 95 % 1017,6 hPa 0,0 mm 0,6 km/h (0 Bft) O-NO 61 0 min 0,000 mm 0,0 UV-I 0 W/m 5,5 C 1,6 km/h (1 Bft)
08.10.2016 00:07 6,2 C 6,2 C 95 % 1017,6 hPa 0,0 mm 1,5 km/h (1 Bft) O-NO 61 0 min 0,000 mm 0,0 UV-I 0 W/m 5,5 C 3,2 km/h (1 Bft)
08.10.2016 00:08 6,2 C 6,2 C 95 % 1017,6 hPa 0,0 mm 1,1 km/h (1 Bft) O-NO 61 0 min 0,000 mm 0,0 UV-I 0 W/m 5,5 C 3,2 km/h (1 Bft)
08.10.2016 00:09 6,2 C 6,2 C 95 % 1017,6 hPa 0,0 mm 1,9 km/h (1 Bft) O-NO 61 0 min 0,000 mm 0,0 UV-I 0 W/m 5,5 C 3,2 km/h (1 Bft)
08.10.2016 00:10 6,2 C 6,2 C 95 % 1017,5 hPa 0,0 mm 2,5 km/h (1 Bft) O-NO 61 0 min 0,000 mm 0,0 UV-I 0 W/m 5,5 C 3,2 km/h (1 Bft)
08.10.2016 00:11 6,2 C 6,2 C 95 % 1017,5 hPa 0,0 mm 2,4 km/h (1 Bft) O-NO 61 0 min 0,000 mm 0,0 UV-I 0 W/m 5,5 C 3,2 km/h (1 Bft)
08.10.2016 00:12 6,2 C 6,2 C 95 % 1017,5 hPa 0,0 mm 2,9 km/h (1 Bft) O-NO 62 0 min 0,000 mm 0,0 UV-I 0 W/m 5,5 C 3,2 km/h (1 Bft)
08.10.2016 00:13 6,2 C 6,2 C 95 % 1017,6 hPa 0,0 mm 3,0 km/h (1 Bft) NO 49 0 min 0,000 mm 0,0 UV-I 0 W/m 5,5 C 4,8 km/h (1 Bft)
08.10.2016 00:14 6,2 C 6,2 C 95 % 1017,5 hPa 0,0 mm 3,4 km/h (1 Bft) NO 35 0 min 0,000 mm 0,0 UV-I 0 W/m 5,5 C 4,8 km/h (1 Bft)
08.10.2016 00:15 6,1 C 6,2 C 95 % 1017,5 hPa 0,0 mm 1,6 km/h (1 Bft) NO 35 0 min 0,000 mm 0,0 UV-I 0 W/m 5,4 C 3,2 km/h (1 Bft)
08.10.2016 00:16 6,1 C 6,2 C 95 % 1017,5 hPa 0,0 mm 1,2 km/h (1 Bft) NO 35 0 min 0,000 mm 0,0 UV-I 0 W/m 5,4 C 3,2 km/h (1 Bft)
08.10.2016 00:17 6,1 C 6,2 C 95 % 1017,5 hPa 0,0 mm 4,5 km/h (1 Bft) O-NO 67 0 min 0,000 mm 0,0 UV-I 0 W/m 5,4 C 6,4 km/h (2 Bft)
08.10.2016 00:18 6,1 C 6,2 C 95 % 1017,5 hPa 0,0 mm 2,8 km/h (1 Bft) O-NO 66 0 min 0,000 mm 0,0 UV-I 0 W/m 5,4 C 4,8 km/h (1 Bft)
08.10.2016 00:19 6,1 C 6,1 C 95 % 1017,5 hPa 0,0 mm 2,1 km/h (1 Bft) O-NO 66 0 min 0,000 mm 0,0 UV-I 0 W/m 5,4 C 3,2 km/h (1 Bft)
08.10.2016 00:20 6,1 C 6,1 C 95 % 1017,6 hPa 0,0 mm 0,8 km/h (0 Bft) O-NO 66 0 min 0,000 mm 0,0 UV-I 0 W/m 5,4 C 1,6 km/h (1 Bft)
08.10.2016 00:21 6,1 C 6,1 C 95 % 1017,5 hPa 0,0 mm 2,5 km/h (1 Bft) O-NO 66 0 min 0,000 mm 0,0 UV-I 0 W/m 5,4 C 3,2 km/h (1 Bft)
08.10.2016 00:22 6,1 C 6,1 C 95 % 1017,5 hPa 0,0 mm 3,0 km/h (1 Bft) O-NO 66 0 min 0,000 mm 0,0 UV-I 0 W/m 5,4 C 3,2 km/h (1 Bft)
08.10.2016 00:23 6,1 C 6,1 C 95 % 1017,5 hPa 0,0 mm 2,3 km/h (1 Bft) O-NO 66 0 min 0,000 mm 0,0 UV-I 0 W/m 5,4 C 3,2 km/h (1 Bft)
08.10.2016 00:24 6,1 C 6,1 C 95 % 1017,6 hPa 0,0 mm 3,2 km/h (1 Bft) O-NO 66 0 min 0,000 mm 0,0 UV-I 0 W/m 5,4 C 4,8 km/h (1 Bft)
08.10.2016 00:25 6,1 C 6,1 C 95 % 1017,5 hPa 0,0 mm 2,2 km/h (1 Bft) O-NO 66 0 min 0,000 mm 0,0 UV-I 0 W/m 5,4 C 3,2 km/h (1 Bft)
08.10.2016 00:26 6,1 C 6,1 C 95 % 1017,5 hPa 0,0 mm 1,0 km/h (0 Bft) O-NO 66 0 min 0,000 mm 0,0 UV-I 0 W/m 5,4 C 1,6 km/h (1 Bft)
08.10.2016 00:27 6,1 C 6,1 C 95 % 1017,6 hPa 0,0 mm 1,4 km/h (1 Bft) O-NO 66 0 min 0,000 mm 0,0 UV-I 0 W/m 5,4 C 3,2 km/h (1 Bft)
08.10.2016 00:28 6,1 C 6,1 C 95 % 1017,5 hPa 0,0 mm 2,5 km/h (1 Bft) O-NO 66 0 min 0,000 mm 0,0 UV-I 0 W/m 5,4 C 3,2 km/h (1 Bft)
08.10.2016 00:29 6,1 C 6,1 C 95 % 1017,5 hPa 0,0 mm 1,3 km/h (1 Bft) O-NO 66 0 min 0,000 mm 0,0 UV-I 0 W/m 5,4 C 3,2 km/h (1 Bft)
08.10.2016 00:30 6,1 C 6,1 C 95 % 1017,5 hPa 0,0 mm 0,1 km/h (0 Bft) O-NO 66 0 min 0,000 mm 0,0 UV-I 0 W/m 5,4 C 1,6 km/h (1 Bft)
08.10.2016 00:31 6,1 C 6,1 C 95 % 1017,6 hPa 0,0 mm 1,4 km/h (1 Bft) O-NO 66 0 min 0,000 mm 0,0 UV-I 0 W/m 5,4 C 3,2 km/h (1 Bft)
08.10.2016 00:32 6,1 C 6,1 C 95 % 1017,5 hPa 0,0 mm 0,2 km/h (0 Bft) O-NO 66 0 min 0,000 mm 0,0 UV-I 0 W/m 5,4 C 1,6 km/h (1 Bft)
08.10.2016 00:33 6,1 C 6,1 C 95 % 1017,5 hPa 0,0 mm 1,9 km/h (1 Bft) O-NO 66 0 min 0,000 mm 0,0 UV-I 0 W/m 5,4 C 3,2 km/h (1 Bft)
08.10.2016 00:34 6,1 C 6,1 C 95 % 1017,6 hPa 0,0 mm 1,8 km/h (1 Bft) O-NO 66 0 min 0,000 mm 0,0 UV-I 0 W/m 5,4 C 3,2 km/h (1 Bft)
08.10.2016 00:35 6,1 C 6,1 C 95 % 1017,6 hPa 0,0 mm 1,4 km/h (1 Bft) O-NO 66 0 min 0,000 mm 0,0 UV-I 0 W/m 5,4 C 1,6 km/h (1 Bft)
08.10.2016 00:36 6,1 C 6,1 C 95 % 1017,5 hPa 0,0 mm 1,1 km/h (1 Bft) O-NO 66 0 min 0,000 mm 0,0 UV-I 0 W/m 5,4 C 1,6 km/h (1 Bft)
08.10.2016 00:37 6,1 C 6,1 C 95 % 1017,5 hPa 0,0 mm 1,0 km/h (0 Bft) O-NO 66 0 min 0,000 mm 0,0 UV-I 0 W/m 5,4 C 1,6 km/h (1 Bft)
08.10.2016 00:38 6,1 C 6,1 C 95 % 1017,5 hPa 0,0 mm 1,4 km/h (1 Bft) O-NO 66 0 min 0,000 mm 0,0 UV-I 0 W/m 5,4 C 1,6 km/h (1 Bft)
08.10.2016 00:39 6,1 C 6,1 C 95 % 1017,5 hPa 0,0 mm 2,2 km/h (1 Bft) O-NO 66 0 min 0,000 mm 0,0 UV-I 0 W/m 5,4 C 3,2 km/h (1 Bft)
08.10.2016 00:40 6,1 C 6,1 C 95 % 1017,5 hPa 0,0 mm 2,0 km/h (1 Bft) O-NO 58 0 min 0,000 mm 0,0 UV-I 0 W/m 5,4 C 4,8 km/h (1 Bft)
08.10.2016 00:41 6,1 C 6,1 C 95 % 1017,5 hPa 0,0 mm 1,9 km/h (1 Bft) O-NO 58 0 min 0,000 mm 0,0 UV-I 0 W/m 5,4 C 4,8 km/h (1 Bft)
08.10.2016 00:42 6,1 C 6,1 C 95 % 1017,6 hPa 0,0 mm 2,5 km/h (1 Bft) O-NO 58 0 min 0,000 mm 0,0 UV-I 0 W/m 5,4 C 3,2 km/h (1 Bft)
08.10.2016 00:43 6,1 C 6,1 C 95 % 1017,6 hPa 0,0 mm 1,9 km/h (1 Bft) O-NO 58 0 min 0,000 mm 0,0 UV-I 0 W/m 5,4 C 3,2 km/h (1 Bft)
08.10.2016 00:44 6,1 C 6,1 C 95 % 1017,6 hPa 0,0 mm 0,6 km/h (0 Bft) O-NO 58 0 min 0,000 mm 0,0 UV-I 0 W/m 5,4 C 1,6 km/h (1 Bft)
08.10.2016 00:45 6,1 C 6,1 C 95 % 1017,6 hPa 0,0 mm 0,5 km/h (0 Bft) O-NO 58 0 min 0,000 mm 0,0 UV-I 0 W/m 5,4 C 1,6 km/h (1 Bft)
08.10.2016 00:46 6,1 C 6,1 C 95 % 1017,6 hPa 0,0 mm 0,0 km/h (0 Bft) O-NO 58 0 min 0,000 mm 0,0 UV-I 0 W/m 5,4 C 0,0 km/h (0 Bft)
08.10.2016 00:47 6,1 C 6,1 C 95 % 1017,6 hPa 0,0 mm 0,3 km/h (0 Bft) O-NO 58 0 min 0,000 mm 0,0 UV-I 0 W/m 5,4 C 1,6 km/h (1 Bft)
08.10.2016 00:48 6,1 C 6,1 C 95 % 1017,6 hPa 0,0 mm 0,8 km/h (0 Bft) O-NO 58 0 min 0,000 mm 0,0 UV-I 0 W/m 5,4 C 3,2 km/h (1 Bft)
08.10.2016 00:49 6,1 C 6,1 C 95 % 1017,6 hPa 0,0 mm 2,5 km/h (1 Bft) O-NO 58 0 min 0,000 mm 0,0 UV-I 0 W/m 5,4 C 3,2 km/h (1 Bft)
08.10.2016 00:50 6,1 C 6,1 C 95 % 1017,6 hPa 0,0 mm 2,1 km/h (1 Bft) O-NO 58 0 min 0,000 mm 0,0 UV-I 0 W/m 5,4 C 3,2 km/h (1 Bft)
08.10.2016 00:51 6,1 C 6,1 C 95 % 1017,6 hPa 0,0 mm 0,5 km/h (0 Bft) O-NO 58 0 min 0,000 mm 0,0 UV-I 0 W/m 5,4 C 1,6 km/h (1 Bft)
08.10.2016 00:52 6,1 C 6,1 C 95 % 1017,6 hPa 0,0 mm 0,3 km/h (0 Bft) O-NO 58 0 min 0,000 mm 0,0 UV-I 0 W/m 5,4 C 1,6 km/h (1 Bft)
08.10.2016 00:53 6,1 C 6,1 C 95 % 1017,6 hPa 0,0 mm 1,5 km/h (1 Bft) O-NO 58 0 min 0,000 mm 0,0 UV-I 0 W/m 5,4 C 3,2 km/h (1 Bft)
08.10.2016 00:54 6,1 C 6,1 C 95 % 1017,6 hPa 0,0 mm 2,1 km/h (1 Bft) O-NO 58 0 min 0,000 mm 0,0 UV-I 0 W/m 5,4 C 3,2 km/h (1 Bft)
08.10.2016 00:55 6,1 C 6,1 C 95 % 1017,6 hPa 0,0 mm 1,1 km/h (1 Bft) O-NO 58 0 min 0,000 mm 0,0 UV-I 0 W/m 5,4 C 3,2 km/h (1 Bft)
08.10.2016 00:56 6,1 C 6,1 C 95 % 1017,6 hPa 0,0 mm 0,7 km/h (0 Bft) O-NO 58 0 min 0,000 mm 0,0 UV-I 0 W/m 5,4 C 3,2 km/h (1 Bft)
08.10.2016 00:57 6,1 C 6,2 C 95 % 1017,6 hPa 0,0 mm 0,7 km/h (0 Bft) O-NO 58 0 min 0,000 mm 0,0 UV-I 0 W/m 5,4 C 3,2 km/h (1 Bft)
08.10.2016 00:58 6,1 C 6,1 C 95 % 1017,6 hPa 0,0 mm 0,1 km/h (0 Bft) O-NO 58 0 min 0,000 mm 0,0 UV-I 0 W/m 5,4 C 1,6 km/h (1 Bft)
08.10.2016 00:59 6,2 C 6,2 C 95 % 1017,6 hPa 0,0 mm 0,0 km/h (0 Bft) O-NO 58 0 min 0,000 mm 0,0 UV-I 0 W/m 5,5 C 0,0 km/h (0 Bft)
08.10.2016 01:00 6,2 C 6,2 C 95 % 1017,6 hPa 0,0 mm 0,5 km/h (0 Bft) O-NO 58 0 min 0,000 mm 0,0 UV-I 0 W/m 5,5 C 1,6 km/h (1 Bft)
08.10.2016 01:01 6,2 C 6,2 C 95 % 1017,6 hPa 0,0 mm 0,3 km/h (0 Bft) O-NO 58 0 min 0,000 mm 0,0 UV-I 0 W/m 5,5 C 1,6 km/h (1 Bft)
08.10.2016 01:02 6,2 C 6,2 C 95 % 1017,6 hPa 0,0 mm 0,3 km/h (0 Bft) O-NO 58 0 min 0,000 mm 0,0 UV-I 0 W/m 5,5 C 1,6 km/h (1 Bft)
08.10.2016 01:03 6,2 C 6,2 C 95 % 1017,6 hPa 0,0 mm 0,3 km/h (0 Bft) O-NO 58 0 min 0,000 mm 0,0 UV-I 0 W/m 5,5 C 1,6 km/h (1 Bft)
08.10.2016 01:04 6,2 C 6,2 C 95 % 1017,6 hPa 0,0 mm 0,3 km/h (0 Bft) O-NO 58 0 min 0,000 mm 0,0 UV-I 0 W/m 5,5 C 1,6 km/h (1 Bft)
08.10.2016 01:05 6,2 C 6,2 C 95 % 1017,6 hPa 0,0 mm 0,7 km/h (0 Bft) O-NO 58 0 min 0,000 mm 0,0 UV-I 0 W/m 5,5 C 1,6 km/h (1 Bft)
08.10.2016 01:06 6,2 C 6,2 C 95 % 1017,6 hPa 0,0 mm 1,7 km/h (1 Bft) O-NO 58 0 min 0,000 mm 0,0 UV-I 0 W/m 5,5 C 3,2 km/h (1 Bft)
08.10.2016 01:07 6,2 C 6,2 C 95 % 1017,6 hPa 0,0 mm 1,3 km/h (1 Bft) O-NO 58 0 min 0,000 mm 0,0 UV-I 0 W/m 5,5 C 3,2 km/h (1 Bft)
08.10.2016 01:08 6,2 C 6,2 C 95 % 1017,6 hPa 0,0 mm 1,3 km/h (1 Bft) O-NO 58 0 min 0,000 mm 0,0 UV-I 0 W/m 5,5 C 3,2 km/h (1 Bft)
08.10.2016 01:09 6,2 C 6,3 C 95 % 1017,7 hPa 0,0 mm 0,5 km/h (0 Bft) O-NO 58 0 min 0,000 mm 0,0 UV-I 0 W/m 5,5 C 1,6 km/h (1 Bft)
08.10.2016 01:10 6,2 C 6,3 C 95 % 1017,7 hPa 0,0 mm 0,1 km/h (0 Bft) O-NO 58 0 min 0,000 mm 0,0 UV-I 0 W/m 5,5 C 1,6 km/h (1 Bft)
08.10.2016 01:11 6,2 C 6,3 C 95 % 1017,7 hPa 0,0 mm 1,1 km/h (1 Bft) O-NO 58 0 min 0,000 mm 0,0 UV-I 0 W/m 5,5 C 3,2 km/h (1 Bft)
08.10.2016 01:12 6,2 C 6,2 C 95 % 1017,7 hPa 0,0 mm 1,9 km/h (1 Bft) O-NO 58 0 min 0,000 mm 0,0 UV-I 0 W/m 5,5 C 3,2 km/h (1 Bft)
08.10.2016 01:13 6,2 C 6,3 C 95 % 1017,7 hPa 0,0 mm 2,4 km/h (1 Bft) O-NO 58 0 min 0,000 mm 0,0 UV-I 0 W/m 5,5 C 3,2 km/h (1 Bft)
08.10.2016 01:14 6,2 C 6,2 C 95 % 1017,7 hPa 0,0 mm 2,0 km/h (1 Bft) O-NO 58 0 min 0,000 mm 0,0 UV-I 0 W/m 5,5 C 3,2 km/h (1 Bft)
08.10.2016 01:15 6,2 C 6,2 C 95 % 1017,7 hPa 0,0 mm 2,2 km/h (1 Bft) O-NO 58 0 min 0,000 mm 0,0 UV-I 0 W/m 5,5 C 3,2 km/h (1 Bft)
08.10.2016 01:16 6,2 C 6,2 C 95 % 1017,6 hPa 0,0 mm 0,6 km/h (0 Bft) O-NO 58 0 min 0,000 mm 0,0 UV-I 0 W/m 5,5 C 1,6 km/h (1 Bft)
08.10.2016 01:17 6,2 C 6,2 C 95 % 1017,6 hPa 0,0 mm 1,0 km/h (0 Bft) O-NO 58 0 min 0,000 mm 0,0 UV-I 0 W/m 5,5 C 3,2 km/h (1 Bft)
08.10.2016 01:18 6,2 C 6,2 C 95 % 1017,7 hPa 0,0 mm 1,4 km/h (1 Bft) O-NO 58 0 min 0,000 mm 0,0 UV-I 0 W/m 5,5 C 3,2 km/h (1 Bft)
08.10.2016 01:19 6,2 C 6,2 C 95 % 1017,7 hPa 0,0 mm 3,0 km/h (1 Bft) O-NO 57 0 min 0,000 mm 0,0 UV-I 0 W/m 5,5 C 4,8 km/h (1 Bft)
08.10.2016 01:20 6,2 C 6,2 C 95 % 1017,8 hPa 0,0 mm 1,2 km/h (1 Bft) O-NO 57 0 min 0,000 mm 0,0 UV-I 0 W/m 5,5 C 3,2 km/h (1 Bft)
08.10.2016 01:21 6,2 C 6,2 C 95 % 1017,8 hPa 0,0 mm 0,1 km/h (0 Bft) O-NO 57 0 min 0,000 mm 0,0 UV-I 0 W/m 5,5 C 1,6 km/h (1 Bft)
08.10.2016 01:22 6,2 C 6,2 C 95 % 1017,8 hPa 0,0 mm 0,1 km/h (0 Bft) O-NO 57 0 min 0,000 mm 0,0 UV-I 0 W/m 5,5 C 1,6 km/h (1 Bft)
08.10.2016 01:23 6,2 C 6,2 C 95 % 1017,8 hPa 0,0 mm 1,7 km/h (1 Bft) O-NO 57 0 min 0,000 mm 0,0 UV-I 0 W/m 5,5 C 3,2 km/h (1 Bft)
08.10.2016 01:24 6,2 C 6,2 C 95 % 1017,8 hPa 0,0 mm 0,4 km/h (0 Bft) O-NO 57 0 min 0,000 mm 0,0 UV-I 0 W/m 5,5 C 1,6 km/h (1 Bft)
08.10.2016 01:25 6,2 C 6,2 C 95 % 1017,8 hPa 0,0 mm 1,1 km/h (1 Bft) O-NO 57 0 min 0,000 mm 0,0 UV-I 0 W/m 5,5 C 1,6 km/h (1 Bft)
08.10.2016 01:26 6,2 C 6,2 C 95 % 1017,8 hPa 0,0 mm 1,3 km/h (1 Bft) O-NO 57 0 min 0,000 mm 0,0 UV-I 0 W/m 5,5 C 1,6 km/h (1 Bft)
08.10.2016 01:27 6,1 C 6,2 C 95 % 1017,8 hPa 0,0 mm 0,4 km/h (0 Bft) O-NO 57 0 min 0,000 mm 0,0 UV-I 0 W/m 5,4 C 1,6 km/h (1 Bft)
08.10.2016 01:28 6,2 C 6,2 C 95 % 1017,8 hPa 0,0 mm 0,3 km/h (0 Bft) O-NO 57 0 min 0,000 mm 0,0 UV-I 0 W/m 5,5 C 1,6 km/h (1 Bft)
08.10.2016 01:29 6,1 C 6,2 C 95 % 1017,8 hPa 0,0 mm 0,6 km/h (0 Bft) O-NO 57 0 min 0,000 mm 0,0 UV-I 0 W/m 5,4 C 1,6 km/h (1 Bft)
08.10.2016 01:30 6,1 C 6,2 C 95 % 1017,8 hPa 0,0 mm 1,4 km/h (1 Bft) O-NO 57 0 min 0,000 mm 0,0 UV-I 0 W/m 5,4 C 3,2 km/h (1 Bft)
08.10.2016 01:31 6,1 C 6,2 C 95 % 1017,8 hPa 0,0 mm 1,4 km/h (1 Bft) O-NO 57 0 min 0,000 mm 0,0 UV-I 0 W/m 5,4 C 3,2 km/h (1 Bft)
08.10.2016 01:32 6,1 C 6,2 C 95 % 1017,8 hPa 0,0 mm 2,1 km/h (1 Bft) O-NO 57 0 min 0,000 mm 0,0 UV-I 0 W/m 5,4 C 3,2 km/h (1 Bft)
08.10.2016 01:33 6,2 C 6,2 C 95 % 1017,8 hPa 0,0 mm 2,7 km/h (1 Bft) O-NO 67 0 min 0,000 mm 0,0 UV-I 0 W/m 5,5 C 4,8 km/h (1 Bft)
08.10.2016 01:34 6,1 C 6,2 C 95 % 1017,8 hPa 0,0 mm 4,0 km/h (1 Bft) O-NO 71 0 min 0,000 mm 0,0 UV-I 0 W/m 5,4 C 4,8 km/h (1 Bft)
08.10.2016 01:35 6,1 C 6,2 C 95 % 1017,8 hPa 0,0 mm 3,6 km/h (1 Bft) O-NO 63 0 min 0,000 mm 0,0 UV-I 0 W/m 5,4 C 4,8 km/h (1 Bft)
08.10.2016 01:36 6,2 C 6,2 C 95 % 1017,8 hPa 0,0 mm 3,9 km/h (1 Bft) O 90 0 min 0,000 mm 0,0 UV-I 0 W/m 5,5 C 4,8 km/h (1 Bft)
08.10.2016 01:37 6,2 C 6,2 C 95 % 1017,8 hPa 0,0 mm 3,0 km/h (1 Bft) O 90 0 min 0,000 mm 0,0 UV-I 0 W/m 5,5 C 4,8 km/h (1 Bft)
08.10.2016 01:38 6,2 C 6,2 C 95 % 1017,7 hPa 0,0 mm 3,2 km/h (1 Bft) O 85 0 min 0,000 mm 0,0 UV-I 0 W/m 5,5 C 4,8 km/h (1 Bft)
08.10.2016 01:39 6,1 C 6,2 C 95 % 1017,7 hPa 0,0 mm 2,9 km/h (1 Bft) O-NO 59 0 min 0,000 mm 0,0 UV-I 0 W/m 5,4 C 6,4 km/h (2 Bft)
08.10.2016 01:40 6,1 C 6,1 C 95 % 1017,7 hPa 0,0 mm 2,5 km/h (1 Bft) NO 53 0 min 0,000 mm 0,0 UV-I 0 W/m 5,4 C 4,8 km/h (1 Bft)
08.10.2016 01:41 6,1 C 6,1 C 95 % 1017,7 hPa 0,0 mm 4,2 km/h (1 Bft) O-NO 57 0 min 0,000 mm 0,0 UV-I 0 W/m 5,4 C 6,4 km/h (2 Bft)
08.10.2016 01:42 6,1 C 6,1 C 95 % 1017,7 hPa 0,0 mm 3,2 km/h (1 Bft) NO 43 0 min 0,000 mm 0,0 UV-I 0 W/m 5,4 C 4,8 km/h (1 Bft)
08.10.2016 01:43 6,1 C 6,1 C 95 % 1017,7 hPa 0,0 mm 1,7 km/h (1 Bft) NO 43 0 min 0,000 mm 0,0 UV-I 0 W/m 5,4 C 3,2 km/h (1 Bft)
08.10.2016 01:44 6,1 C 6,1 C 95 % 1017,8 hPa 0,0 mm 0,9 km/h (0 Bft) NO 43 0 min 0,000 mm 0,0 UV-I 0 W/m 5,4 C 1,6 km/h (1 Bft)
08.10.2016 01:45 6,1 C 6,1 C 95 % 1017,8 hPa 0,0 mm 2,5 km/h (1 Bft) NO 43 0 min 0,000 mm 0,0 UV-I 0 W/m 5,4 C 3,2 km/h (1 Bft)
08.10.2016 01:46 6,1 C 6,1 C 95 % 1017,8 hPa 0,0 mm 2,3 km/h (1 Bft) NO 42 0 min 0,000 mm 0,0 UV-I 0 W/m 5,4 C 3,2 km/h (1 Bft)
08.10.2016 01:47 6,1 C 6,2 C 95 % 1017,8 hPa 0,0 mm 2,7 km/h (1 Bft) NO 41 0 min 0,000 mm 0,0 UV-I 0 W/m 5,4 C 4,8 km/h (1 Bft)
08.10.2016 01:48 6,1 C 6,1 C 95 % 1017,8 hPa 0,0 mm 0,2 km/h (0 Bft) NO 41 0 min 0,000 mm 0,0 UV-I 0 W/m 5,4 C 1,6 km/h (1 Bft)
08.10.2016 01:49 6,1 C 6,1 C 95 % 1017,8 hPa 0,0 mm 1,3 km/h (1 Bft) NO 41 0 min 0,000 mm 0,0 UV-I 0 W/m 5,4 C 3,2 km/h (1 Bft)
08.10.2016 01:50 6,2 C 6,2 C 95 % 1017,8 hPa 0,0 mm 0,4 km/h (0 Bft) NO 41 0 min 0,000 mm 0,0 UV-I 0 W/m 5,5 C 1,6 km/h (1 Bft)
08.10.2016 01:51 6,1 C 6,2 C 95 % 1017,8 hPa 0,0 mm 1,5 km/h (1 Bft) NO 41 0 min 0,000 mm 0,0 UV-I 0 W/m 5,4 C 1,6 km/h (1 Bft)
08.10.2016 01:52 6,1 C 6,1 C 95 % 1017,8 hPa 0,0 mm 3,8 km/h (1 Bft) NO 41 0 min 0,000 mm 0,0 UV-I 0 W/m 5,4 C 4,8 km/h (1 Bft)
08.10.2016 01:53 6,1 C 6,1 C 95 % 1017,8 hPa 0,0 mm 2,5 km/h (1 Bft) NO 41 0 min 0,000 mm 0,0 UV-I 0 W/m 5,4 C 3,2 km/h (1 Bft)
08.10.2016 01:54 6,1 C 6,1 C 95 % 1017,8 hPa 0,0 mm 0,8 km/h (0 Bft) NO 41 0 min 0,000 mm 0,0 UV-I 0 W/m 5,4 C 3,2 km/h (1 Bft)
08.10.2016 01:55 6,1 C 6,1 C 95 % 1017,8 hPa 0,0 mm 3,6 km/h (1 Bft) NO 44 0 min 0,000 mm 0,0 UV-I 0 W/m 5,4 C 4,8 km/h (1 Bft)
08.10.2016 01:56 6,1 C 6,1 C 95 % 1017,8 hPa 0,0 mm 1,7 km/h (1 Bft) NO 44 0 min 0,000 mm 0,0 UV-I 0 W/m 5,4 C 4,8 km/h (1 Bft)
08.10.2016 01:57 6,1 C 6,1 C 95 % 1017,8 hPa 0,0 mm 0,3 km/h (0 Bft) NO 44 0 min 0,000 mm 0,0 UV-I 0 W/m 5,4 C 1,6 km/h (1 Bft)
08.10.2016 01:58 6,1 C 6,1 C 95 % 1017,8 hPa 0,0 mm 0,0 km/h (0 Bft) NO 44 0 min 0,000 mm 0,0 UV-I 0 W/m 5,4 C 0,0 km/h (0 Bft)
08.10.2016 01:59 6,1 C 6,1 C 95 % 1017,8 hPa 0,0 mm 0,0 km/h (0 Bft) NO 44 0 min 0,000 mm 0,0 UV-I 0 W/m 5,4 C 0,0 km/h (0 Bft)
08.10.2016 02:00 6,1 C 6,1 C 95 % 1017,8 hPa 0,0 mm 0,4 km/h (0 Bft) NO 44 0 min 0,000 mm 0,0 UV-I 0 W/m 5,4 C 1,6 km/h (1 Bft)
08.10.2016 02:01 6,1 C 6,1 C 95 % 1017,8 hPa 0,0 mm 2,3 km/h (1 Bft) NO 44 0 min 0,000 mm 0,0 UV-I 0 W/m 5,4 C 3,2 km/h (1 Bft)
08.10.2016 02:02 6,0 C 6,1 C 95 % 1017,8 hPa 0,0 mm 0,9 km/h (0 Bft) NO 44 0 min 0,000 mm 0,0 UV-I 0 W/m 5,3 C 1,6 km/h (1 Bft)
08.10.2016 02:03 6,1 C 6,1 C 95 % 1017,8 hPa 0,0 mm 1,1 km/h (1 Bft) NO 44 0 min 0,000 mm 0,0 UV-I 0 W/m 5,4 C 1,6 km/h (1 Bft)
08.10.2016 02:04 6,1 C 6,1 C 95 % 1017,8 hPa 0,0 mm 1,1 km/h (1 Bft) NO 44 0 min 0,000 mm 0,0 UV-I 0 W/m 5,4 C 3,2 km/h (1 Bft)
08.10.2016 02:05 6,0 C 6,1 C 95 % 1017,7 hPa 0,0 mm 1,7 km/h (1 Bft) NO 44 0 min 0,000 mm 0,0 UV-I 0 W/m 5,3 C 3,2 km/h (1 Bft)
08.10.2016 02:06 6,1 C 6,1 C 95 % 1017,6 hPa 0,0 mm 2,8 km/h (1 Bft) NO 44 0 min 0,000 mm 0,0 UV-I 0 W/m 5,4 C 3,2 km/h (1 Bft)
08.10.2016 02:07 6,1 C 6,1 C 95 % 1017,7 hPa 0,0 mm 3,2 km/h (1 Bft) NO 49 0 min 0,000 mm 0,0 UV-I 0 W/m 5,4 C 4,8 km/h (1 Bft)
08.10.2016 02:08 6,0 C 6,1 C 95 % 1017,7 hPa 0,0 mm 3,6 km/h (1 Bft) NO 49 0 min 0,000 mm 0,0 UV-I 0 W/m 5,3 C 4,8 km/h (1 Bft)
08.10.2016 02:09 6,1 C 6,1 C 95 % 1017,7 hPa 0,0 mm 3,2 km/h (1 Bft) NO 49 0 min 0,000 mm 0,0 UV-I 0 W/m 5,4 C 4,8 km/h (1 Bft)
08.10.2016 02:10 6,1 C 6,1 C 95 % 1017,7 hPa 0,0 mm 3,4 km/h (1 Bft) O-NO 66 0 min 0,000 mm 0,0 UV-I 0 W/m 5,4 C 4,8 km/h (1 Bft)
08.10.2016 02:11 6,1 C 6,1 C 95 % 1017,7 hPa 0,0 mm 2,5 km/h (1 Bft) O-NO 66 0 min 0,000 mm 0,0 UV-I 0 W/m 5,4 C 3,2 km/h (1 Bft)
08.10.2016 02:12 6,1 C 6,1 C 95 % 1017,7 hPa 0,0 mm 1,5 km/h (1 Bft) O-NO 65 0 min 0,000 mm 0,0 UV-I 0 W/m 5,4 C 3,2 km/h (1 Bft)
08.10.2016 02:13 6,1 C 6,1 C 95 % 1017,7 hPa 0,0 mm 3,0 km/h (1 Bft) O-NO 66 0 min 0,000 mm 0,0 UV-I 0 W/m 5,4 C 4,8 km/h (1 Bft)
08.10.2016 02:14 6,0 C 6,1 C 95 % 1017,7 hPa 0,0 mm 2,1 km/h (1 Bft) O-NO 66 0 min 0,000 mm 0,0 UV-I 0 W/m 5,3 C 3,2 km/h (1 Bft)
08.10.2016 02:15 6,0 C 6,1 C 95 % 1017,7 hPa 0,0 mm 0,7 km/h (0 Bft) O-NO 66 0 min 0,000 mm 0,0 UV-I 0 W/m 5,3 C 1,6 km/h (1 Bft)
08.10.2016 02:16 6,0 C 6,1 C 95 % 1017,6 hPa 0,0 mm 0,7 km/h (0 Bft) O-NO 66 0 min 0,000 mm 0,0 UV-I 0 W/m 5,3 C 3,2 km/h (1 Bft)
08.10.2016 02:17 6,1 C 6,1 C 95 % 1017,7 hPa 0,0 mm 1,8 km/h (1 Bft) O-NO 66 0 min 0,000 mm 0,0 UV-I 0 W/m 5,4 C 3,2 km/h (1 Bft)
08.10.2016 02:18 6,1 C 6,1 C 95 % 1017,7 hPa 0,0 mm 1,2 km/h (1 Bft) O-NO 66 0 min 0,000 mm 0,0 UV-I 0 W/m 5,4 C 3,2 km/h (1 Bft)
08.10.2016 02:19 6,1 C 6,1 C 95 % 1017,7 hPa 0,0 mm 0,2 km/h (0 Bft) O-NO 66 0 min 0,000 mm 0,0 UV-I 0 W/m 5,4 C 1,6 km/h (1 Bft)
08.10.2016 02:20 6,1 C 6,1 C 95 % 1017,7 hPa 0,0 mm 4,2 km/h (1 Bft) O-NO 67 0 min 0,000 mm 0,0 UV-I 0 W/m 5,4 C 6,4 km/h (2 Bft)
08.10.2016 02:21 6,1 C 6,1 C 94 % 1017,7 hPa 0,0 mm 2,4 km/h (1 Bft) O-NO 67 0 min 0,000 mm 0,0 UV-I 0 W/m 5,2 C 4,8 km/h (1 Bft)
08.10.2016 02:22 6,1 C 6,1 C 94 % 1017,7 hPa 0,0 mm 0,7 km/h (0 Bft) O-NO 67 0 min 0,000 mm 0,0 UV-I 0 W/m 5,2 C 1,6 km/h (1 Bft)
08.10.2016 02:23 6,0 C 6,1 C 94 % 1017,7 hPa 0,0 mm 0,0 km/h (0 Bft) O-NO 67 0 min 0,000 mm 0,0 UV-I 0 W/m 5,1 C 0,0 km/h (0 Bft)
08.10.2016 02:24 6,1 C 6,1 C 94 % 1017,6 hPa 0,0 mm 0,0 km/h (0 Bft) O-NO 67 0 min 0,000 mm 0,0 UV-I 0 W/m 5,2 C 0,0 km/h (0 Bft)
08.10.2016 02:25 6,0 C 6,1 C 94 % 1017,7 hPa 0,0 mm 0,1 km/h (0 Bft) O-NO 67 0 min 0,000 mm 0,0 UV-I 0 W/m 5,1 C 1,6 km/h (1 Bft)
08.10.2016 02:26 6,0 C 6,1 C 94 % 1017,6 hPa 0,0 mm 0,5 km/h (0 Bft) O-NO 67 0 min 0,000 mm 0,0 UV-I 0 W/m 5,1 C 1,6 km/h (1 Bft)
08.10.2016 02:27 6,0 C 6,0 C 94 % 1017,6 hPa 0,0 mm 1,0 km/h (0 Bft) O-NO 67 0 min 0,000 mm 0,0 UV-I 0 W/m 5,1 C 1,6 km/h (1 Bft)
08.10.2016 02:28 6,0 C 6,0 C 94 % 1017,5 hPa 0,0 mm 0,5 km/h (0 Bft) O-NO 67 0 min 0,000 mm 0,0 UV-I 0 W/m 5,1 C 1,6 km/h (1 Bft)
08.10.2016 02:29 6,0 C 6,0 C 95 % 1017,5 hPa 0,0 mm 0,4 km/h (0 Bft) O-NO 67 0 min 0,000 mm 0,0 UV-I 0 W/m 5,3 C 1,6 km/h (1 Bft)
08.10.2016 02:30 6,0 C 6,0 C 95 % 1017,5 hPa 0,0 mm 0,2 km/h (0 Bft) O-NO 67 0 min 0,000 mm 0,0 UV-I 0 W/m 5,3 C 1,6 km/h (1 Bft)
08.10.2016 02:31 6,0 C 6,0 C 95 % 1017,5 hPa 0,0 mm 0,4 km/h (0 Bft) O-NO 67 0 min 0,000 mm 0,0 UV-I 0 W/m 5,3 C 1,6 km/h (1 Bft)
08.10.2016 02:32 6,0 C 6,0 C 95 % 1017,5 hPa 0,0 mm 0,6 km/h (0 Bft) O-NO 66 0 min 0,000 mm 0,0 UV-I 0 W/m 5,3 C 1,6 km/h (1 Bft)
08.10.2016 02:33 6,0 C 6,0 C 95 % 1017,5 hPa 0,0 mm 0,7 km/h (0 Bft) O-NO 67 0 min 0,000 mm 0,0 UV-I 0 W/m 5,3 C 1,6 km/h (1 Bft)
08.10.2016 02:34 6,0 C 6,0 C 95 % 1017,5 hPa 0,0 mm 3,4 km/h (1 Bft) O-NO 66 0 min 0,000 mm 0,0 UV-I 0 W/m 5,3 C 4,8 km/h (1 Bft)
08.10.2016 02:35 6,0 C 6,0 C 95 % 1017,5 hPa 0,0 mm 2,9 km/h (1 Bft) O-NO 66 0 min 0,000 mm 0,0 UV-I 0 W/m 5,3 C 4,8 km/h (1 Bft)
08.10.2016 02:36 6,0 C 6,0 C 95 % 1017,5 hPa 0,0 mm 3,0 km/h (1 Bft) O-NO 66 0 min 0,000 mm 0,0 UV-I 0 W/m 5,3 C 3,2 km/h (1 Bft)
08.10.2016 02:37 6,0 C 6,0 C 95 % 1017,5 hPa 0,0 mm 2,1 km/h (1 Bft) O-NO 66 0 min 0,000 mm 0,0 UV-I 0 W/m 5,3 C 3,2 km/h (1 Bft)
08.10.2016 02:38 6,0 C 6,1 C 95 % 1017,5 hPa 0,0 mm 1,3 km/h (1 Bft) O-NO 66 0 min 0,000 mm 0,0 UV-I 0 W/m 5,3 C 1,6 km/h (1 Bft)
08.10.2016 02:39 6,0 C 6,0 C 95 % 1017,4 hPa 0,0 mm 2,1 km/h (1 Bft) O-NO 66 0 min 0,000 mm 0,0 UV-I 0 W/m 5,3 C 3,2 km/h (1 Bft)
08.10.2016 02:40 6,0 C 6,0 C 95 % 1017,4 hPa 0,0 mm 0,7 km/h (0 Bft) O-NO 66 0 min 0,000 mm 0,0 UV-I 0 W/m 5,3 C 3,2 km/h (1 Bft)
08.10.2016 02:41 6,0 C 6,0 C 95 % 1017,4 hPa 0,0 mm 3,6 km/h (1 Bft) O-NO 66 0 min 0,000 mm 0,0 UV-I 0 W/m 5,3 C 4,8 km/h (1 Bft)
08.10.2016 02:42 6,0 C 6,0 C 95 % 1017,4 hPa 0,0 mm 0,8 km/h (0 Bft) O-NO 66 0 min 0,000 mm 0,0 UV-I 0 W/m 5,3 C 1,6 km/h (1 Bft)
08.10.2016 02:43 5,9 C 6,0 C 95 % 1017,4 hPa 0,0 mm 0,1 km/h (0 Bft) O-NO 66 0 min 0,000 mm 0,0 UV-I 0 W/m 5,2 C 1,6 km/h (1 Bft)
08.10.2016 02:44 6,0 C 6,0 C 95 % 1017,4 hPa 0,0 mm 0,3 km/h (0 Bft) O-NO 66 0 min 0,000 mm 0,0 UV-I 0 W/m 5,3 C 1,6 km/h (1 Bft)
08.10.2016 02:45 6,0 C 6,0 C 95 % 1017,4 hPa 0,2 mm 0,8 km/h (0 Bft) O-NO 66 0 min 0,000 mm 0,0 UV-I 0 W/m 5,3 C 1,6 km/h (1 Bft)
08.10.2016 02:46 5,9 C 6,0 C 95 % 1017,4 hPa 0,0 mm 1,6 km/h (1 Bft) O-NO 66 0 min 0,000 mm 0,0 UV-I 0 W/m 5,2 C 4,8 km/h (1 Bft)
08.10.2016 02:47 5,9 C 6,0 C 95 % 1017,3 hPa 0,0 mm 1,4 km/h (1 Bft) O-NO 66 0 min 0,000 mm 0,0 UV-I 0 W/m 5,2 C 3,2 km/h (1 Bft)
08.10.2016 02:48 6,0 C 6,0 C 95 % 1017,3 hPa 0,0 mm 1,1 km/h (1 Bft) O-NO 66 0 min 0,000 mm 0,0 UV-I 0 W/m 5,3 C 3,2 km/h (1 Bft)
08.10.2016 02:49 5,9 C 6,0 C 95 % 1017,3 hPa 0,0 mm 0,5 km/h (0 Bft) O-NO 66 0 min 0,000 mm 0,0 UV-I 0 W/m 5,2 C 1,6 km/h (1 Bft)
08.10.2016 02:50 5,9 C 6,0 C 95 % 1017,4 hPa 0,0 mm 0,1 km/h (0 Bft) O-NO 66 0 min 0,000 mm 0,0 UV-I 0 W/m 5,2 C 1,6 km/h (1 Bft)
08.10.2016 02:51 5,9 C 6,0 C 95 % 1017,4 hPa 0,0 mm 0,8 km/h (0 Bft) O-NO 66 0 min 0,000 mm 0,0 UV-I 0 W/m 5,2 C 1,6 km/h (1 Bft)
08.10.2016 02:52 6,0 C 6,0 C 95 % 1017,4 hPa 0,0 mm 0,8 km/h (0 Bft) O-NO 66 0 min 0,000 mm 0,0 UV-I 0 W/m 5,3 C 1,6 km/h (1 Bft)
08.10.2016 02:53 6,0 C 6,0 C 95 % 1017,4 hPa 0,0 mm 0,0 km/h (0 Bft) O-NO 66 0 min 0,000 mm 0,0 UV-I 0 W/m 5,3 C 0,0 km/h (0 Bft)
08.10.2016 02:54 6,0 C 6,1 C 95 % 1017,4 hPa 0,0 mm 0,0 km/h (0 Bft) O-NO 66 0 min 0,000 mm 0,0 UV-I 0 W/m 5,3 C 0,0 km/h (0 Bft)
08.10.2016 02:55 6,0 C 6,1 C 95 % 1017,4 hPa 0,0 mm 0,5 km/h (0 Bft) O-NO 66 0 min 0,000 mm 0,0 UV-I 0 W/m 5,3 C 1,6 km/h (1 Bft)
08.10.2016 02:56 6,0 C 6,1 C 95 % 1017,4 hPa 0,0 mm 0,3 km/h (0 Bft) O-NO 66 0 min 0,000 mm 0,0 UV-I 0 W/m 5,3 C 1,6 km/h (1 Bft)
08.10.2016 02:57 6,0 C 6,1 C 95 % 1017,4 hPa 0,0 mm 0,0 km/h (0 Bft) O-NO 66 0 min 0,000 mm 0,0 UV-I 0 W/m 5,3 C 0,0 km/h (0 Bft)
08.10.2016 02:58 6,1 C 6,1 C 95 % 1017,4 hPa 0,0 mm 0,0 km/h (0 Bft) O-NO 66 0 min 0,000 mm 0,0 UV-I 0 W/m 5,4 C 0,0 km/h (0 Bft)
08.10.2016 02:59 6,1 C 6,1 C 95 % 1017,3 hPa 0,0 mm 0,1 km/h (0 Bft) O-NO 66 0 min 0,000 mm 0,0 UV-I 0 W/m 5,4 C 1,6 km/h (1 Bft)
08.10.2016 03:00 6,1 C 6,1 C 95 % 1017,3 hPa 0,0 mm 0,1 km/h (0 Bft) O-NO 66 0 min 0,000 mm 0,0 UV-I 0 W/m 5,4 C 1,6 km/h (1 Bft)
08.10.2016 03:01 6,0 C 6,1 C 95 % 1017,3 hPa 0,0 mm 0,9 km/h (0 Bft) O-NO 66 0 min 0,000 mm 0,0 UV-I 0 W/m 5,3 C 1,6 km/h (1 Bft)
08.10.2016 03:02 6,1 C 6,1 C 95 % 1017,3 hPa 0,0 mm 1,8 km/h (1 Bft) O-NO 66 0 min 0,000 mm 0,0 UV-I 0 W/m 5,4 C 3,2 km/h (1 Bft)
08.10.2016 03:03 6,1 C 6,1 C 95 % 1017,3 hPa 0,0 mm 1,4 km/h (1 Bft) O-NO 66 0 min 0,000 mm 0,0 UV-I 0 W/m 5,4 C 3,2 km/h (1 Bft)
08.10.2016 03:04 6,1 C 6,1 C 95 % 1017,3 hPa 0,0 mm 2,5 km/h (1 Bft) O-NO 66 0 min 0,000 mm 0,0 UV-I 0 W/m 5,4 C 4,8 km/h (1 Bft)
08.10.2016 03:05 6,1 C 6,1 C 95 % 1017,3 hPa 0,0 mm 2,2 km/h (1 Bft) O-NO 66 0 min 0,000 mm 0,0 UV-I 0 W/m 5,4 C 4,8 km/h (1 Bft)
08.10.2016 03:06 6,1 C 6,1 C 95 % 1017,3 hPa 0,0 mm 1,8 km/h (1 Bft) O-NO 66 0 min 0,000 mm 0,0 UV-I 0 W/m 5,4 C 3,2 km/h (1 Bft)
08.10.2016 03:07 6,1 C 6,1 C 95 % 1017,3 hPa 0,0 mm 1,9 km/h (1 Bft) O-NO 66 0 min 0,000 mm 0,0 UV-I 0 W/m 5,4 C 3,2 km/h (1 Bft)
08.10.2016 03:08 6,1 C 6,1 C 95 % 1017,3 hPa 0,0 mm 1,2 km/h (1 Bft) O-NO 66 0 min 0,000 mm 0,0 UV-I 0 W/m 5,4 C 1,6 km/h (1 Bft)
08.10.2016 03:09 6,0 C 6,1 C 95 % 1017,3 hPa 0,0 mm 0,3 km/h (0 Bft) O-NO 66 0 min 0,000 mm 0,0 UV-I 0 W/m 5,3 C 1,6 km/h (1 Bft)
08.10.2016 03:10 6,1 C 6,1 C 95 % 1017,3 hPa 0,0 mm 0,4 km/h (0 Bft) O-NO 66 0 min 0,000 mm 0,0 UV-I 0 W/m 5,4 C 1,6 km/h (1 Bft)
08.10.2016 03:11 6,1 C 6,1 C 95 % 1017,3 hPa 0,0 mm 0,1 km/h (0 Bft) O-NO 66 0 min 0,000 mm 0,0 UV-I 0 W/m 5,4 C 1,6 km/h (1 Bft)
08.10.2016 03:12 6,1 C 6,1 C 95 % 1017,3 hPa 0,0 mm 0,0 km/h (0 Bft) O-NO 66 0 min 0,000 mm 0,0 UV-I 0 W/m 5,4 C 0,0 km/h (0 Bft)
08.10.2016 03:13 6,1 C 6,1 C 95 % 1017,3 hPa 0,0 mm 0,0 km/h (0 Bft) O-NO 66 0 min 0,000 mm 0,0 UV-I 0 W/m 5,4 C 0,0 km/h (0 Bft)
08.10.2016 03:14 6,1 C 6,1 C 95 % 1017,3 hPa 0,0 mm 1,7 km/h (1 Bft) O-NO 66 0 min 0,000 mm 0,0 UV-I 0 W/m 5,4 C 3,2 km/h (1 Bft)
08.10.2016 03:15 6,1 C 6,1 C 95 % 1017,3 hPa 0,0 mm 0,8 km/h (0 Bft) O-NO 66 0 min 0,000 mm 0,0 UV-I 0 W/m 5,4 C 1,6 km/h (1 Bft)
08.10.2016 03:16 6,1 C 6,1 C 95 % 1017,3 hPa 0,0 mm 0,0 km/h (0 Bft) O-NO 66 0 min 0,000 mm 0,0 UV-I 0 W/m 5,4 C 0,0 km/h (0 Bft)
08.10.2016 03:17 6,1 C 6,1 C 95 % 1017,3 hPa 0,0 mm 0,0 km/h (0 Bft) O-NO 66 0 min 0,000 mm 0,0 UV-I 0 W/m 5,4 C 0,0 km/h (0 Bft)
08.10.2016 03:18 6,1 C 6,1 C 95 % 1017,3 hPa 0,0 mm 0,3 km/h (0 Bft) O-NO 66 0 min 0,000 mm 0,0 UV-I 0 W/m 5,4 C 1,6 km/h (1 Bft)
08.10.2016 03:19 6,1 C 6,1 C 95 % 1017,3 hPa 0,0 mm 0,6 km/h (0 Bft) O-NO 66 0 min 0,000 mm 0,0 UV-I 0 W/m 5,4 C 1,6 km/h (1 Bft)
08.10.2016 03:20 6,1 C 6,1 C 95 % 1017,3 hPa 0,0 mm 0,1 km/h (0 Bft) O-NO 66 0 min 0,000 mm 0,0 UV-I 0 W/m 5,4 C 1,6 km/h (1 Bft)
08.10.2016 03:21 6,1 C 6,1 C 95 % 1017,2 hPa 0,0 mm 0,0 km/h (0 Bft) O-NO 66 0 min 0,000 mm 0,0 UV-I 0 W/m 5,4 C 0,0 km/h (0 Bft)
08.10.2016 03:22 6,1 C 6,1 C 95 % 1017,3 hPa 0,0 mm 0,4 km/h (0 Bft) O-NO 66 0 min 0,000 mm 0,0 UV-I 0 W/m 5,4 C 1,6 km/h (1 Bft)
08.10.2016 03:23 6,0 C 6,1 C 95 % 1017,3 hPa 0,0 mm 0,9 km/h (0 Bft) O-NO 66 0 min 0,000 mm 0,0 UV-I 0 W/m 5,3 C 1,6 km/h (1 Bft)
08.10.2016 03:24 6,1 C 6,1 C 95 % 1017,2 hPa 0,0 mm 0,4 km/h (0 Bft) O-NO 66 0 min 0,000 mm 0,0 UV-I 0 W/m 5,4 C 1,6 km/h (1 Bft)
08.10.2016 03:25 6,1 C 6,1 C 95 % 1017,2 hPa 0,0 mm 0,8 km/h (0 Bft) O-NO 66 0 min 0,000 mm 0,0 UV-I 0 W/m 5,4 C 1,6 km/h (1 Bft)
08.10.2016 03:26 6,1 C 6,1 C 95 % 1017,2 hPa 0,0 mm 0,3 km/h (0 Bft) O-NO 66 0 min 0,000 mm 0,0 UV-I 0 W/m 5,4 C 1,6 km/h (1 Bft)
08.10.2016 03:27 6,1 C 6,1 C 95 % 1017,2 hPa 0,0 mm 0,0 km/h (0 Bft) O-NO 66 0 min 0,000 mm 0,0 UV-I 0 W/m 5,4 C 0,0 km/h (0 Bft)
08.10.2016 03:28 6,1 C 6,1 C 95 % 1017,2 hPa 0,0 mm 0,0 km/h (0 Bft) O-NO 66 0 min 0,000 mm 0,0 UV-I 0 W/m 5,4 C 0,0 km/h (0 Bft)
08.10.2016 03:29 6,1 C 6,1 C 95 % 1017,2 hPa 0,0 mm 0,1 km/h (0 Bft) O-NO 66 0 min 0,000 mm 0,0 UV-I 0 W/m 5,4 C 1,6 km/h (1 Bft)
08.10.2016 03:30 6,1 C 6,1 C 95 % 1017,2 hPa 0,0 mm 0,3 km/h (0 Bft) O-NO 66 0 min 0,000 mm 0,0 UV-I 0 W/m 5,4 C 1,6 km/h (1 Bft)
08.10.2016 03:31 6,1 C 6,1 C 95 % 1017,2 hPa 0,0 mm 1,0 km/h (0 Bft) O-NO 66 0 min 0,000 mm 0,0 UV-I 0 W/m 5,4 C 1,6 km/h (1 Bft)
08.10.2016 03:32 6,1 C 6,1 C 95 % 1017,2 hPa 0,0 mm 0,4 km/h (0 Bft) O-NO 66 0 min 0,000 mm 0,0 UV-I 0 W/m 5,4 C 1,6 km/h (1 Bft)
08.10.2016 03:33 6,1 C 6,1 C 95 % 1017,1 hPa 0,0 mm 0,9 km/h (0 Bft) O-NO 66 0 min 0,000 mm 0,0 UV-I 0 W/m 5,4 C 1,6 km/h (1 Bft)
08.10.2016 03:34 6,1 C 6,1 C 95 % 1017,2 hPa 0,0 mm 0,5 km/h (0 Bft) O-NO 66 0 min 0,000 mm 0,0 UV-I 0 W/m 5,4 C 1,6 km/h (1 Bft)
08.10.2016 03:35 6,1 C 6,1 C 95 % 1017,2 hPa 0,0 mm 2,1 km/h (1 Bft) O-NO 66 0 min 0,000 mm 0,0 UV-I 0 W/m 5,4 C 3,2 km/h (1 Bft)
08.10.2016 03:36 6,1 C 6,1 C 95 % 1017,2 hPa 0,0 mm 0,7 km/h (0 Bft) O-NO 66 0 min 0,000 mm 0,0 UV-I 0 W/m 5,4 C 1,6 km/h (1 Bft)
08.10.2016 03:37 6,1 C 6,1 C 95 % 1017,2 hPa 0,0 mm 0,0 km/h (0 Bft) O-NO 66 0 min 0,000 mm 0,0 UV-I 0 W/m 5,4 C 0,0 km/h (0 Bft)
08.10.2016 03:38 6,1 C 6,1 C 95 % 1017,1 hPa 0,0 mm 0,6 km/h (0 Bft) O-NO 66 0 min 0,000 mm 0,0 UV-I 0 W/m 5,4 C 1,6 km/h (1 Bft)
08.10.2016 03:39 6,0 C 6,1 C 95 % 1017,1 hPa 0,0 mm 0,4 km/h (0 Bft) O-NO 66 0 min 0,000 mm 0,0 UV-I 0 W/m 5,3 C 1,6 km/h (1 Bft)
08.10.2016 03:40 6,1 C 6,1 C 95 % 1017,1 hPa 0,0 mm 1,9 km/h (1 Bft) O-NO 66 0 min 0,000 mm 0,0 UV-I 0 W/m 5,4 C 3,2 km/h (1 Bft)
08.10.2016 03:41 6,0 C 6,1 C 95 % 1017,1 hPa 0,0 mm 1,7 km/h (1 Bft) O-NO 66 0 min 0,000 mm 0,0 UV-I 0 W/m 5,3 C 3,2 km/h (1 Bft)
08.10.2016 03:42 6,1 C 6,1 C 95 % 1017,1 hPa 0,0 mm 0,7 km/h (0 Bft) O-NO 66 0 min 0,000 mm 0,0 UV-I 0 W/m 5,4 C 1,6 km/h (1 Bft)
08.10.2016 03:43 6,0 C 6,1 C 95 % 1017,1 hPa 0,0 mm 0,6 km/h (0 Bft) O-NO 66 0 min 0,000 mm 0,0 UV-I 0 W/m 5,3 C 1,6 km/h (1 Bft)
08.10.2016 03:44 6,0 C 6,1 C 95 % 1017,1 hPa 0,0 mm 0,2 km/h (0 Bft) O-NO 66 0 min 0,000 mm 0,0 UV-I 0 W/m 5,3 C 1,6 km/h (1 Bft)
08.10.2016 03:45 6,0 C 6,1 C 95 % 1017,0 hPa 0,2 mm 0,4 km/h (0 Bft) O-NO 66 0 min 0,000 mm 0,0 UV-I 0 W/m 5,3 C 1,6 km/h (1 Bft)
08.10.2016 03:46 6,1 C 6,1 C 95 % 1017,0 hPa 0,0 mm 1,3 km/h (1 Bft) O-NO 66 0 min 0,000 mm 0,0 UV-I 0 W/m 5,4 C 3,2 km/h (1 Bft)
08.10.2016 03:47 6,1 C 6,1 C 95 % 1017,0 hPa 0,0 mm 0,8 km/h (0 Bft) O-NO 66 0 min 0,000 mm 0,0 UV-I 0 W/m 5,4 C 1,6 km/h (1 Bft)
08.10.2016 03:48 6,0 C 6,1 C 95 % 1017,0 hPa 0,0 mm 0,1 km/h (0 Bft) O-NO 66 0 min 0,000 mm 0,0 UV-I 0 W/m 5,3 C 1,6 km/h (1 Bft)
08.10.2016 03:49 6,0 C 6,1 C 95 % 1017,0 hPa 0,0 mm 0,0 km/h (0 Bft) O-NO 66 0 min 0,000 mm 0,0 UV-I 0 W/m 5,3 C 0,0 km/h (0 Bft)
08.10.2016 03:50 6,0 C 6,1 C 95 % 1017,0 hPa 0,0 mm 0,4 km/h (0 Bft) O-NO 66 0 min 0,000 mm 0,0 UV-I 0 W/m 5,3 C 1,6 km/h (1 Bft)
08.10.2016 03:51 6,0 C 6,1 C 95 % 1017,0 hPa 0,0 mm 1,5 km/h (1 Bft) O-NO 66 0 min 0,000 mm 0,0 UV-I 0 W/m 5,3 C 3,2 km/h (1 Bft)
08.10.2016 03:52 6,0 C 6,1 C 95 % 1017,0 hPa 0,0 mm 1,2 km/h (1 Bft) O-NO 66 0 min 0,000 mm 0,0 UV-I 0 W/m 5,3 C 1,6 km/h (1 Bft)
08.10.2016 03:53 6,1 C 6,1 C 95 % 1017,0 hPa 0,0 mm 1,9 km/h (1 Bft) O-NO 66 0 min 0,000 mm 0,0 UV-I 0 W/m 5,4 C 3,2 km/h (1 Bft)
08.10.2016 03:54 6,1 C 6,1 C 95 % 1017,0 hPa 0,0 mm 3,2 km/h (1 Bft) NO 48 0 min 0,000 mm 0,0 UV-I 0 W/m 5,4 C 4,8 km/h (1 Bft)
08.10.2016 03:55 6,0 C 6,1 C 95 % 1017,0 hPa 0,0 mm 3,1 km/h (1 Bft) NO 48 0 min 0,000 mm 0,0 UV-I 0 W/m 5,3 C 3,2 km/h (1 Bft)
08.10.2016 03:56 6,0 C 6,1 C 95 % 1017,0 hPa 0,0 mm 1,7 km/h (1 Bft) NO 48 0 min 0,000 mm 0,0 UV-I 0 W/m 5,3 C 3,2 km/h (1 Bft)
08.10.2016 03:57 6,1 C 6,1 C 95 % 1017,0 hPa 0,0 mm 1,3 km/h (1 Bft) NO 48 0 min 0,000 mm 0,0 UV-I 0 W/m 5,4 C 1,6 km/h (1 Bft)
08.10.2016 03:58 6,0 C 6,1 C 95 % 1017,0 hPa 0,0 mm 0,2 km/h (0 Bft) NO 48 0 min 0,000 mm 0,0 UV-I 0 W/m 5,3 C 1,6 km/h (1 Bft)
08.10.2016 03:59 6,1 C 6,1 C 95 % 1017,0 hPa 0,0 mm 1,3 km/h (1 Bft) NO 48 0 min 0,000 mm 0,0 UV-I 0 W/m 5,4 C 3,2 km/h (1 Bft)
08.10.2016 04:00 6,1 C 6,1 C 95 % 1016,9 hPa 0,0 mm 0,4 km/h (0 Bft) NO 48 0 min 0,000 mm 0,0 UV-I 0 W/m 5,4 C 1,6 km/h (1 Bft)
08.10.2016 04:01 6,1 C 6,1 C 95 % 1017,0 hPa 0,0 mm 0,5 km/h (0 Bft) NO 48 0 min 0,000 mm 0,0 UV-I 0 W/m 5,4 C 3,2 km/h (1 Bft)
08.10.2016 04:02 6,1 C 6,1 C 95 % 1016,9 hPa 0,0 mm 2,0 km/h (1 Bft) NO 48 0 min 0,000 mm 0,0 UV-I 0 W/m 5,4 C 3,2 km/h (1 Bft)
08.10.2016 04:03 6,1 C 6,1 C 95 % 1016,9 hPa 0,0 mm 0,6 km/h (0 Bft) NO 48 0 min 0,000 mm 0,0 UV-I 0 W/m 5,4 C 1,6 km/h (1 Bft)
08.10.2016 04:04 6,1 C 6,1 C 95 % 1017,0 hPa 0,0 mm 1,3 km/h (1 Bft) NO 48 0 min 0,000 mm 0,0 UV-I 0 W/m 5,4 C 1,6 km/h (1 Bft)
08.10.2016 04:05 6,1 C 6,1 C 95 % 1016,9 hPa 0,0 mm 1,3 km/h (1 Bft) NO 48 0 min 0,000 mm 0,0 UV-I 0 W/m 5,4 C 3,2 km/h (1 Bft)
08.10.2016 04:06 6,1 C 6,1 C 95 % 1016,8 hPa 0,0 mm 2,6 km/h (1 Bft) NO 35 0 min 0,000 mm 0,0 UV-I 0 W/m 5,4 C 3,2 km/h (1 Bft)
08.10.2016 04:07 6,1 C 6,1 C 95 % 1016,8 hPa 0,0 mm 3,1 km/h (1 Bft) NO 35 0 min 0,000 mm 0,0 UV-I 0 W/m 5,4 C 4,8 km/h (1 Bft)
08.10.2016 04:08 6,1 C 6,1 C 95 % 1016,8 hPa 0,0 mm 2,5 km/h (1 Bft) NO 35 0 min 0,000 mm 0,0 UV-I 0 W/m 5,4 C 4,8 km/h (1 Bft)
08.10.2016 04:09 6,1 C 6,1 C 95 % 1016,8 hPa 0,0 mm 1,0 km/h (0 Bft) NO 35 0 min 0,000 mm 0,0 UV-I 0 W/m 5,4 C 3,2 km/h (1 Bft)
08.10.2016 04:10 6,1 C 6,1 C 95 % 1016,8 hPa 0,0 mm 0,0 km/h (0 Bft) NO 35 0 min 0,000 mm 0,0 UV-I 0 W/m 5,4 C 0,0 km/h (0 Bft)
08.10.2016 04:11 6,1 C 6,1 C 95 % 1016,8 hPa 0,0 mm 0,0 km/h (0 Bft) NO 35 0 min 0,000 mm 0,0 UV-I 0 W/m 5,4 C 0,0 km/h (0 Bft)
08.10.2016 04:12 6,1 C 6,1 C 95 % 1016,8 hPa 0,0 mm 0,0 km/h (0 Bft) NO 35 0 min 0,000 mm 0,0 UV-I 0 W/m 5,4 C 0,0 km/h (0 Bft)
08.10.2016 04:13 6,1 C 6,1 C 95 % 1016,8 hPa 0,0 mm 0,0 km/h (0 Bft) NO 35 0 min 0,000 mm 0,0 UV-I 0 W/m 5,4 C 0,0 km/h (0 Bft)
08.10.2016 04:14 6,1 C 6,1 C 95 % 1016,8 hPa 0,0 mm 0,0 km/h (0 Bft) NO 35 0 min 0,000 mm 0,0 UV-I 0 W/m 5,4 C 0,0 km/h (0 Bft)
08.10.2016 04:15 6,1 C 6,1 C 95 % 1016,8 hPa 0,0 mm 0,0 km/h (0 Bft) NO 35 0 min 0,000 mm 0,0 UV-I 0 W/m 5,4 C 0,0 km/h (0 Bft)
08.10.2016 04:16 6,1 C 6,1 C 95 % 1016,8 hPa 0,0 mm 0,0 km/h (0 Bft) NO 35 0 min 0,000 mm 0,0 UV-I 0 W/m 5,4 C 0,0 km/h (0 Bft)
08.10.2016 04:17 6,1 C 6,1 C 95 % 1016,8 hPa 0,0 mm 0,0 km/h (0 Bft) NO 35 0 min 0,000 mm 0,0 UV-I 0 W/m 5,4 C 0,0 km/h (0 Bft)
08.10.2016 04:18 6,1 C 6,1 C 95 % 1016,7 hPa 0,0 mm 1,5 km/h (1 Bft) NO 35 0 min 0,000 mm 0,0 UV-I 0 W/m 5,4 C 3,2 km/h (1 Bft)
08.10.2016 04:19 6,0 C 6,1 C 95 % 1016,7 hPa 0,0 mm 1,8 km/h (1 Bft) NO 35 0 min 0,000 mm 0,0 UV-I 0 W/m 5,3 C 3,2 km/h (1 Bft)
08.10.2016 04:20 6,1 C 6,1 C 95 % 1016,7 hPa 0,0 mm 1,1 km/h (1 Bft) NO 35 0 min 0,000 mm 0,0 UV-I 0 W/m 5,4 C 1,6 km/h (1 Bft)
08.10.2016 04:21 6,1 C 6,1 C 95 % 1016,7 hPa 0,0 mm 0,2 km/h (0 Bft) NO 35 0 min 0,000 mm 0,0 UV-I 0 W/m 5,4 C 1,6 km/h (1 Bft)
08.10.2016 04:22 6,1 C 6,1 C 95 % 1016,7 hPa 0,0 mm 0,5 km/h (0 Bft) NO 35 0 min 0,000 mm 0,0 UV-I 0 W/m 5,4 C 1,6 km/h (1 Bft)
08.10.2016 04:23 6,1 C 6,1 C 95 % 1016,7 hPa 0,0 mm 0,5 km/h (0 Bft) NO 35 0 min 0,000 mm 0,0 UV-I 0 W/m 5,4 C 1,6 km/h (1 Bft)
08.10.2016 04:24 6,1 C 6,1 C 95 % 1016,8 hPa 0,0 mm 1,3 km/h (1 Bft) NO 35 0 min 0,000 mm 0,0 UV-I 0 W/m 5,4 C 1,6 km/h (1 Bft)
08.10.2016 04:25 6,0 C 6,1 C 95 % 1016,7 hPa 0,0 mm 1,5 km/h (1 Bft) NO 35 0 min 0,000 mm 0,0 UV-I 0 W/m 5,3 C 1,6 km/h (1 Bft)
08.10.2016 04:26 6,0 C 6,0 C 95 % 1016,7 hPa 0,0 mm 2,1 km/h (1 Bft) NO 49 0 min 0,000 mm 0,0 UV-I 0 W/m 5,3 C 3,2 km/h (1 Bft)
08.10.2016 04:27 6,0 C 6,1 C 95 % 1016,8 hPa 0,0 mm 2,3 km/h (1 Bft) NO 49 0 min 0,000 mm 0,0 UV-I 0 W/m 5,3 C 3,2 km/h (1 Bft)
08.10.2016 04:28 6,0 C 6,1 C 95 % 1016,7 hPa 0,0 mm 2,4 km/h (1 Bft) NO 49 0 min 0,000 mm 0,0 UV-I 0 W/m 5,3 C 3,2 km/h (1 Bft)
08.10.2016 04:29 6,0 C 6,0 C 95 % 1016,8 hPa 0,0 mm 0,4 km/h (0 Bft) NO 49 0 min 0,000 mm 0,0 UV-I 0 W/m 5,3 C 1,6 km/h (1 Bft)
08.10.2016 04:30 6,0 C 6,1 C 95 % 1016,8 hPa 0,0 mm 1,1 km/h (1 Bft) NO 49 0 min 0,000 mm 0,0 UV-I 0 W/m 5,3 C 1,6 km/h (1 Bft)
08.10.2016 04:31 6,1 C 6,1 C 95 % 1016,8 hPa 0,0 mm 0,3 km/h (0 Bft) NO 49 0 min 0,000 mm 0,0 UV-I 0 W/m 5,4 C 1,6 km/h (1 Bft)
08.10.2016 04:32 6,0 C 6,1 C 95 % 1016,8 hPa 0,0 mm 0,0 km/h (0 Bft) NO 49 0 min 0,000 mm 0,0 UV-I 0 W/m 5,3 C 0,0 km/h (0 Bft)
08.10.2016 04:33 6,0 C 6,0 C 95 % 1016,8 hPa 0,0 mm 0,0 km/h (0 Bft) NO 49 0 min 0,000 mm 0,0 UV-I 0 W/m 5,3 C 0,0 km/h (0 Bft)
08.10.2016 04:34 6,0 C 6,0 C 95 % 1016,7 hPa 0,0 mm 1,6 km/h (1 Bft) NO 49 0 min 0,000 mm 0,0 UV-I 0 W/m 5,3 C 3,2 km/h (1 Bft)
08.10.2016 04:35 6,1 C 6,1 C 95 % 1016,7 hPa 0,0 mm 1,7 km/h (1 Bft) NO 49 0 min 0,000 mm 0,0 UV-I 0 W/m 5,4 C 3,2 km/h (1 Bft)
08.10.2016 04:36 6,1 C 6,1 C 95 % 1016,7 hPa 0,2 mm 0,9 km/h (0 Bft) NO 49 0 min 0,000 mm 0,0 UV-I 0 W/m 5,4 C 1,6 km/h (1 Bft)
08.10.2016 04:37 6,1 C 6,1 C 95 % 1016,8 hPa 0,0 mm 0,0 km/h (0 Bft) NO 49 0 min 0,000 mm 0,0 UV-I 0 W/m 5,4 C 0,0 km/h (0 Bft)
08.10.2016 04:38 6,0 C 6,1 C 95 % 1016,7 hPa 0,0 mm 0,0 km/h (0 Bft) NO 49 0 min 0,000 mm 0,0 UV-I 0 W/m 5,3 C 0,0 km/h (0 Bft)
08.10.2016 04:39 6,0 C 6,1 C 95 % 1016,7 hPa 0,0 mm 0,0 km/h (0 Bft) NO 49 0 min 0,000 mm 0,0 UV-I 0 W/m 5,3 C 0,0 km/h (0 Bft)
08.10.2016 04:40 6,0 C 6,1 C 95 % 1016,7 hPa 0,0 mm 0,1 km/h (0 Bft) NO 49 0 min 0,000 mm 0,0 UV-I 0 W/m 5,3 C 1,6 km/h (1 Bft)
08.10.2016 04:41 6,0 C 6,1 C 95 % 1016,8 hPa 0,0 mm 0,5 km/h (0 Bft) NO 49 0 min 0,000 mm 0,0 UV-I 0 W/m 5,3 C 1,6 km/h (1 Bft)
08.10.2016 04:42 6,0 C 6,1 C 95 % 1016,7 hPa 0,0 mm 0,0 km/h (0 Bft) NO 49 0 min 0,000 mm 0,0 UV-I 0 W/m 5,3 C 0,0 km/h (0 Bft)
08.10.2016 04:43 5,9 C 6,0 C 95 % 1016,7 hPa 0,0 mm 0,0 km/h (0 Bft) NO 49 0 min 0,000 mm 0,0 UV-I 0 W/m 5,2 C 0,0 km/h (0 Bft)
08.10.2016 04:44 6,0 C 6,0 C 95 % 1016,7 hPa 0,0 mm 0,0 km/h (0 Bft) NO 49 0 min 0,000 mm 0,0 UV-I 0 W/m 5,3 C 0,0 km/h (0 Bft)
08.10.2016 04:45 6,0 C 6,0 C 95 % 1016,8 hPa 0,0 mm 0,0 km/h (0 Bft) NO 49 0 min 0,000 mm 0,0 UV-I 0 W/m 5,3 C 0,0 km/h (0 Bft)
08.10.2016 04:46 5,9 C 6,0 C 95 % 1016,8 hPa 0,0 mm 0,0 km/h (0 Bft) NO 49 0 min 0,000 mm 0,0 UV-I 0 W/m 5,2 C 0,0 km/h (0 Bft)
08.10.2016 04:47 5,9 C 6,0 C 95 % 1016,8 hPa 0,0 mm 0,0 km/h (0 Bft) NO 49 0 min 0,000 mm 0,0 UV-I 0 W/m 5,2 C 0,0 km/h (0 Bft)
08.10.2016 04:48 5,9 C 6,0 C 95 % 1016,8 hPa 0,0 mm 0,0 km/h (0 Bft) NO 49 0 min 0,000 mm 0,0 UV-I 0 W/m 5,2 C 0,0 km/h (0 Bft)
08.10.2016 04:49 5,9 C 6,0 C 95 % 1016,8 hPa 0,0 mm 0,0 km/h (0 Bft) NO 49 0 min 0,000 mm 0,0 UV-I 0 W/m 5,2 C 0,0 km/h (0 Bft)
08.10.2016 04:50 5,9 C 6,0 C 95 % 1016,8 hPa 0,0 mm 0,0 km/h (0 Bft) NO 49 0 min 0,000 mm 0,0 UV-I 0 W/m 5,2 C 0,0 km/h (0 Bft)
08.10.2016 04:51 5,9 C 5,9 C 95 % 1016,8 hPa 0,0 mm 0,0 km/h (0 Bft) NO 49 0 min 0,000 mm 0,0 UV-I 0 W/m 5,2 C 0,0 km/h (0 Bft)
08.10.2016 04:52 5,9 C 6,0 C 95 % 1016,8 hPa 0,0 mm 0,0 km/h (0 Bft) NO 49 0 min 0,000 mm 0,0 UV-I 0 W/m 5,2 C 0,0 km/h (0 Bft)
08.10.2016 04:53 6,0 C 6,0 C 95 % 1016,8 hPa 0,0 mm 0,0 km/h (0 Bft) NO 49 0 min 0,000 mm 0,0 UV-I 0 W/m 5,3 C 0,0 km/h (0 Bft)
08.10.2016 04:54 6,0 C 6,0 C 95 % 1016,8 hPa 0,0 mm 0,0 km/h (0 Bft) NO 49 0 min 0,000 mm 0,0 UV-I 0 W/m 5,3 C 0,0 km/h (0 Bft)
08.10.2016 04:55 6,0 C 6,0 C 95 % 1016,8 hPa 0,0 mm 0,0 km/h (0 Bft) NO 49 0 min 0,000 mm 0,0 UV-I 0 W/m 5,3 C 0,0 km/h (0 Bft)
08.10.2016 04:56 6,0 C 6,0 C 95 % 1016,8 hPa 0,0 mm 0,0 km/h (0 Bft) NO 49 0 min 0,000 mm 0,0 UV-I 0 W/m 5,3 C 0,0 km/h (0 Bft)
08.10.2016 04:57 6,0 C 6,0 C 95 % 1016,8 hPa 0,0 mm 0,0 km/h (0 Bft) NO 49 0 min 0,000 mm 0,0 UV-I 0 W/m 5,3 C 0,0 km/h (0 Bft)
08.10.2016 04:58 6,0 C 6,1 C 95 % 1016,8 hPa 0,2 mm 0,0 km/h (0 Bft) NO 49 0 min 0,000 mm 0,0 UV-I 0 W/m 5,3 C 0,0 km/h (0 Bft)
08.10.2016 04:59 6,1 C 6,1 C 95 % 1016,8 hPa 0,0 mm 0,0 km/h (0 Bft) NO 49 0 min 0,000 mm 0,0 UV-I 0 W/m 5,4 C 0,0 km/h (0 Bft)
08.10.2016 05:00 6,1 C 6,1 C 95 % 1016,8 hPa 0,0 mm 0,0 km/h (0 Bft) NO 49 0 min 0,000 mm 0,0 UV-I 0 W/m 5,4 C 0,0 km/h (0 Bft)
08.10.2016 05:01 6,1 C 6,1 C 95 % 1016,8 hPa 0,0 mm 0,0 km/h (0 Bft) NO 49 0 min 0,000 mm 0,0 UV-I 0 W/m 5,4 C 0,0 km/h (0 Bft)
08.10.2016 05:02 6,1 C 6,1 C 95 % 1016,7 hPa 0,0 mm 0,0 km/h (0 Bft) NO 49 0 min 0,000 mm 0,0 UV-I 0 W/m 5,4 C 0,0 km/h (0 Bft)
08.10.2016 05:03 6,1 C 6,1 C 95 % 1016,8 hPa 0,0 mm 0,0 km/h (0 Bft) NO 49 0 min 0,000 mm 0,0 UV-I 0 W/m 5,4 C 0,0 km/h (0 Bft)
08.10.2016 05:04 6,1 C 6,1 C 95 % 1016,8 hPa 0,0 mm 0,0 km/h (0 Bft) NO 49 0 min 0,000 mm 0,0 UV-I 0 W/m 5,4 C 0,0 km/h (0 Bft)
08.10.2016 05:05 6,1 C 6,1 C 95 % 1016,7 hPa 0,0 mm 0,0 km/h (0 Bft) NO 49 0 min 0,000 mm 0,0 UV-I 0 W/m 5,4 C 0,0 km/h (0 Bft)
08.10.2016 05:06 6,1 C 6,1 C 95 % 1016,7 hPa 0,0 mm 0,0 km/h (0 Bft) NO 49 0 min 0,000 mm 0,0 UV-I 0 W/m 5,4 C 0,0 km/h (0 Bft)
08.10.2016 05:07 6,1 C 6,1 C 95 % 1016,7 hPa 0,0 mm 0,0 km/h (0 Bft) NO 49 0 min 0,000 mm 0,0 UV-I 0 W/m 5,4 C 0,0 km/h (0 Bft)
08.10.2016 05:08 6,0 C 6,1 C 95 % 1016,7 hPa 0,0 mm 0,0 km/h (0 Bft) NO 49 0 min 0,000 mm 0,0 UV-I 0 W/m 5,3 C 0,0 km/h (0 Bft)
08.10.2016 05:09 6,0 C 6,1 C 95 % 1016,7 hPa 0,0 mm 0,0 km/h (0 Bft) NO 49 0 min 0,000 mm 0,0 UV-I 0 W/m 5,3 C 0,0 km/h (0 Bft)
08.10.2016 05:10 6,0 C 6,1 C 95 % 1016,7 hPa 0,0 mm 0,0 km/h (0 Bft) NO 49 0 min 0,000 mm 0,0 UV-I 0 W/m 5,3 C 0,0 km/h (0 Bft)
08.10.2016 05:11 6,0 C 6,1 C 95 % 1016,7 hPa 0,0 mm 0,0 km/h (0 Bft) NO 49 0 min 0,000 mm 0,0 UV-I 0 W/m 5,3 C 0,0 km/h (0 Bft)
08.10.2016 05:12 6,0 C 6,1 C 95 % 1016,7 hPa 0,0 mm 0,0 km/h (0 Bft) NO 49 0 min 0,000 mm 0,0 UV-I 0 W/m 5,3 C 0,0 km/h (0 Bft)
08.10.2016 05:13 6,0 C 6,0 C 95 % 1016,7 hPa 0,0 mm 0,0 km/h (0 Bft) NO 49 0 min 0,000 mm 0,0 UV-I 0 W/m 5,3 C 0,0 km/h (0 Bft)
08.10.2016 05:14 6,1 C 6,1 C 95 % 1016,8 hPa 0,0 mm 0,0 km/h (0 Bft) NO 49 0 min 0,000 mm 0,0 UV-I 0 W/m 5,4 C 0,0 km/h (0 Bft)
08.10.2016 05:15 6,1 C 6,1 C 95 % 1016,8 hPa 0,0 mm 0,0 km/h (0 Bft) NO 49 0 min 0,000 mm 0,0 UV-I 0 W/m 5,4 C 0,0 km/h (0 Bft)
08.10.2016 05:16 6,0 C 6,1 C 95 % 1016,8 hPa 0,0 mm 0,0 km/h (0 Bft) NO 49 0 min 0,000 mm 0,0 UV-I 0 W/m 5,3 C 0,0 km/h (0 Bft)
08.10.2016 05:17 6,1 C 6,1 C 95 % 1016,8 hPa 0,0 mm 0,0 km/h (0 Bft) NO 48 0 min 0,000 mm 0,0 UV-I 0 W/m 5,4 C 0,0 km/h (0 Bft)
08.10.2016 05:18 6,0 C 6,1 C 95 % 1016,8 hPa 0,0 mm 0,0 km/h (0 Bft) NO 48 0 min 0,000 mm 0,0 UV-I 0 W/m 5,3 C 0,0 km/h (0 Bft)
08.10.2016 05:19 6,1 C 6,1 C 95 % 1016,8 hPa 0,0 mm 0,0 km/h (0 Bft) NO 48 0 min 0,000 mm 0,0 UV-I 0 W/m 5,4 C 0,0 km/h (0 Bft)
08.10.2016 05:20 6,1 C 6,1 C 95 % 1016,8 hPa 0,0 mm 0,0 km/h (0 Bft) NO 48 0 min 0,000 mm 0,0 UV-I 0 W/m 5,4 C 0,0 km/h (0 Bft)
08.10.2016 05:21 6,1 C 6,1 C 95 % 1016,8 hPa 0,0 mm 0,0 km/h (0 Bft) NO 48 0 min 0,000 mm 0,0 UV-I 0 W/m 5,4 C 0,0 km/h (0 Bft)
08.10.2016 05:22 6,0 C 6,1 C 95 % 1016,8 hPa 0,0 mm 1,0 km/h (0 Bft) NO 48 0 min 0,000 mm 0,0 UV-I 0 W/m 5,3 C 3,2 km/h (1 Bft)
08.10.2016 05:23 5,9 C 6,0 C 95 % 1016,8 hPa 0,0 mm 1,2 km/h (1 Bft) NO 48 0 min 0,000 mm 0,0 UV-I 0 W/m 5,2 C 3,2 km/h (1 Bft)
08.10.2016 05:24 5,9 C 5,9 C 95 % 1016,8 hPa 0,0 mm 0,1 km/h (0 Bft) NO 48 0 min 0,000 mm 0,0 UV-I 0 W/m 5,2 C 1,6 km/h (1 Bft)
08.10.2016 05:25 5,9 C 5,9 C 95 % 1016,8 hPa 0,0 mm 1,0 km/h (0 Bft) NO 48 0 min 0,000 mm 0,0 UV-I 0 W/m 5,2 C 1,6 km/h (1 Bft)
08.10.2016 05:26 5,9 C 5,9 C 95 % 1016,8 hPa 0,0 mm 0,0 km/h (0 Bft) NO 48 0 min 0,000 mm 0,0 UV-I 0 W/m 5,2 C 0,0 km/h (0 Bft)
08.10.2016 05:27 6,0 C 6,0 C 95 % 1016,8 hPa 0,0 mm 0,3 km/h (0 Bft) NO 48 0 min 0,000 mm 0,0 UV-I 0 W/m 5,3 C 1,6 km/h (1 Bft)
08.10.2016 05:28 5,9 C 6,0 C 95 % 1016,8 hPa 0,0 mm 0,3 km/h (0 Bft) NO 48 0 min 0,000 mm 0,0 UV-I 0 W/m 5,2 C 1,6 km/h (1 Bft)
08.10.2016 05:29 5,9 C 6,0 C 95 % 1016,8 hPa 0,0 mm 0,0 km/h (0 Bft) NO 48 0 min 0,000 mm 0,0 UV-I 0 W/m 5,2 C 0,0 km/h (0 Bft)
08.10.2016 05:30 5,9 C 6,0 C 95 % 1016,8 hPa 0,0 mm 0,1 km/h (0 Bft) NO 48 0 min 0,000 mm 0,0 UV-I 0 W/m 5,2 C 1,6 km/h (1 Bft)
08.10.2016 05:31 5,9 C 6,0 C 95 % 1016,8 hPa 0,0 mm 0,0 km/h (0 Bft) NO 48 0 min 0,000 mm 0,0 UV-I 0 W/m 5,2 C 0,0 km/h (0 Bft)
08.10.2016 05:32 5,9 C 5,9 C 95 % 1016,8 hPa 0,0 mm 0,0 km/h (0 Bft) NO 48 0 min 0,000 mm 0,0 UV-I 0 W/m 5,2 C 0,0 km/h (0 Bft)
08.10.2016 05:33 5,9 C 5,9 C 95 % 1016,8 hPa 0,0 mm 0,0 km/h (0 Bft) NO 48 0 min 0,000 mm 0,0 UV-I 0 W/m 5,2 C 0,0 km/h (0 Bft)
08.10.2016 05:34 5,9 C 5,9 C 95 % 1016,9 hPa 0,0 mm 0,0 km/h (0 Bft) NO 48 0 min 0,000 mm 0,0 UV-I 0 W/m 5,2 C 0,0 km/h (0 Bft)
08.10.2016 05:35 5,9 C 5,9 C 95 % 1016,8 hPa 0,0 mm 0,0 km/h (0 Bft) NO 48 0 min 0,000 mm 0,0 UV-I 0 W/m 5,2 C 0,0 km/h (0 Bft)
08.10.2016 05:36 5,9 C 5,9 C 95 % 1016,8 hPa 0,0 mm 0,0 km/h (0 Bft) NO 48 0 min 0,000 mm 0,0 UV-I 0 W/m 5,2 C 0,0 km/h (0 Bft)
08.10.2016 05:37 5,9 C 5,9 C 95 % 1016,8 hPa 0,0 mm 0,0 km/h (0 Bft) NO 48 0 min 0,000 mm 0,0 UV-I 0 W/m 5,2 C 0,0 km/h (0 Bft)
08.10.2016 05:38 5,9 C 5,9 C 95 % 1016,8 hPa 0,0 mm 0,0 km/h (0 Bft) NO 48 0 min 0,000 mm 0,0 UV-I 0 W/m 5,2 C 0,0 km/h (0 Bft)
08.10.2016 05:39 5,9 C 5,9 C 95 % 1016,9 hPa 0,0 mm 0,0 km/h (0 Bft) NO 48 0 min 0,000 mm 0,0 UV-I 0 W/m 5,2 C 0,0 km/h (0 Bft)
08.10.2016 05:40 5,9 C 5,9 C 95 % 1016,8 hPa 0,0 mm 0,0 km/h (0 Bft) NO 48 0 min 0,000 mm 0,0 UV-I 0 W/m 5,2 C 0,0 km/h (0 Bft)
08.10.2016 05:41 5,9 C 5,9 C 95 % 1016,9 hPa 0,0 mm 0,0 km/h (0 Bft) NO 48 0 min 0,000 mm 0,0 UV-I 0 W/m 5,2 C 0,0 km/h (0 Bft)
08.10.2016 05:42 5,9 C 5,9 C 95 % 1016,9 hPa 0,0 mm 0,0 km/h (0 Bft) NO 48 0 min 0,000 mm 0,0 UV-I 0 W/m 5,2 C 0,0 km/h (0 Bft)
08.10.2016 05:43 5,9 C 5,9 C 95 % 1016,9 hPa 0,0 mm 2,8 km/h (1 Bft) NO 46 0 min 0,000 mm 0,0 UV-I 0 W/m 5,2 C 3,2 km/h (1 Bft)
08.10.2016 05:44 5,9 C 5,9 C 95 % 1016,9 hPa 0,0 mm 2,2 km/h (1 Bft) NO 46 0 min 0,000 mm 0,0 UV-I 0 W/m 5,2 C 3,2 km/h (1 Bft)
08.10.2016 05:45 5,9 C 5,9 C 95 % 1017,0 hPa 0,0 mm 1,3 km/h (1 Bft) NO 46 0 min 0,000 mm 0,0 UV-I 0 W/m 5,2 C 1,6 km/h (1 Bft)
08.10.2016 05:46 5,9 C 5,9 C 95 % 1017,0 hPa 0,0 mm 0,8 km/h (0 Bft) NO 46 0 min 0,000 mm 0,0 UV-I 0 W/m 5,2 C 1,6 km/h (1 Bft)
08.10.2016 05:47 5,9 C 5,9 C 95 % 1017,0 hPa 0,0 mm 1,5 km/h (1 Bft) NO 46 0 min 0,000 mm 0,0 UV-I 0 W/m 5,2 C 1,6 km/h (1 Bft)
08.10.2016 05:48 5,9 C 5,9 C 95 % 1017,0 hPa 0,0 mm 1,1 km/h (1 Bft) NO 46 0 min 0,000 mm 0,0 UV-I 0 W/m 5,2 C 1,6 km/h (1 Bft)
08.10.2016 05:49 5,9 C 5,9 C 95 % 1016,9 hPa 0,0 mm 1,1 km/h (1 Bft) NO 46 0 min 0,000 mm 0,0 UV-I 0 W/m 5,2 C 1,6 km/h (1 Bft)
08.10.2016 05:50 5,9 C 5,9 C 95 % 1017,0 hPa 0,0 mm 0,5 km/h (0 Bft) NO 46 0 min 0,000 mm 0,0 UV-I 0 W/m 5,2 C 1,6 km/h (1 Bft)
08.10.2016 05:51 5,9 C 5,9 C 95 % 1017,0 hPa 0,0 mm 0,6 km/h (0 Bft) NO 46 0 min 0,000 mm 0,0 UV-I 0 W/m 5,2 C 1,6 km/h (1 Bft)
08.10.2016 05:52 5,9 C 5,9 C 95 % 1017,0 hPa 0,2 mm 0,3 km/h (0 Bft) NO 46 0 min 0,000 mm 0,0 UV-I 0 W/m 5,2 C 1,6 km/h (1 Bft)
08.10.2016 05:53 5,9 C 5,9 C 95 % 1016,9 hPa 0,0 mm 0,3 km/h (0 Bft) NO 46 0 min 0,000 mm 0,0 UV-I 0 W/m 5,2 C 1,6 km/h (1 Bft)
08.10.2016 05:54 5,9 C 5,9 C 95 % 1017,0 hPa 0,0 mm 0,5 km/h (0 Bft) NO 46 0 min 0,000 mm 0,0 UV-I 0 W/m 5,2 C 1,6 km/h (1 Bft)
08.10.2016 05:55 5,9 C 5,9 C 95 % 1016,9 hPa 0,0 mm 0,1 km/h (0 Bft) NO 46 0 min 0,000 mm 0,0 UV-I 0 W/m 5,2 C 1,6 km/h (1 Bft)
08.10.2016 05:56 5,9 C 5,9 C 95 % 1017,0 hPa 0,0 mm 0,0 km/h (0 Bft) NO 46 0 min 0,000 mm 0,0 UV-I 0 W/m 5,2 C 0,0 km/h (0 Bft)
08.10.2016 05:57 5,9 C 5,9 C 95 % 1017,0 hPa 0,0 mm 0,0 km/h (0 Bft) NO 46 0 min 0,000 mm 0,0 UV-I 0 W/m 5,2 C 0,0 km/h (0 Bft)
08.10.2016 05:58 5,9 C 5,9 C 95 % 1017,0 hPa 0,2 mm 0,0 km/h (0 Bft) NO 46 0 min 0,000 mm 0,0 UV-I 0 W/m 5,2 C 0,0 km/h (0 Bft)
08.10.2016 05:59 5,9 C 5,9 C 95 % 1017,0 hPa 0,0 mm 0,0 km/h (0 Bft) NO 46 0 min 0,000 mm 0,0 UV-I 0 W/m 5,2 C 0,0 km/h (0 Bft)
08.10.2016 06:00 5,9 C 5,9 C 95 % 1017,0 hPa 0,0 mm 0,0 km/h (0 Bft) NO 46 0 min 0,000 mm 0,0 UV-I 0 W/m 5,2 C 0,0 km/h (0 Bft)
08.10.2016 06:01 5,9 C 5,9 C 95 % 1017,0 hPa 0,0 mm 0,0 km/h (0 Bft) NO 46 0 min 0,000 mm 0,0 UV-I 0 W/m 5,2 C 0,0 km/h (0 Bft)
08.10.2016 06:02 5,8 C 5,9 C 96 % 1017,0 hPa 0,0 mm 0,0 km/h (0 Bft) NO 46 0 min 0,000 mm 0,0 UV-I 0 W/m 5,2 C 0,0 km/h (0 Bft)
08.10.2016 06:03 5,9 C 5,9 C 96 % 1017,0 hPa 0,0 mm 0,0 km/h (0 Bft) NO 46 0 min 0,000 mm 0,0 UV-I 0 W/m 5,3 C 0,0 km/h (0 Bft)
08.10.2016 06:04 5,9 C 5,9 C 96 % 1017,0 hPa 0,0 mm 0,5 km/h (0 Bft) NO 46 0 min 0,000 mm 0,0 UV-I 0 W/m 5,3 C 1,6 km/h (1 Bft)
08.10.2016 06:05 5,8 C 5,9 C 96 % 1017,0 hPa 0,0 mm 1,8 km/h (1 Bft) NO 43 0 min 0,000 mm 0,0 UV-I 0 W/m 5,2 C 3,2 km/h (1 Bft)
08.10.2016 06:06 5,8 C 5,9 C 96 % 1017,0 hPa 0,0 mm 1,4 km/h (1 Bft) NO 43 0 min 0,000 mm 0,0 UV-I 0 W/m 5,2 C 1,6 km/h (1 Bft)
08.10.2016 06:07 5,8 C 5,9 C 96 % 1017,0 hPa 0,0 mm 1,5 km/h (1 Bft) NO 43 0 min 0,000 mm 0,0 UV-I 0 W/m 5,2 C 3,2 km/h (1 Bft)
08.10.2016 06:08 5,8 C 5,9 C 96 % 1017,0 hPa 0,0 mm 0,9 km/h (0 Bft) NO 43 0 min 0,000 mm 0,0 UV-I 0 W/m 5,2 C 1,6 km/h (1 Bft)
08.10.2016 06:09 5,9 C 5,9 C 96 % 1017,0 hPa 0,0 mm 0,4 km/h (0 Bft) NO 43 0 min 0,000 mm 0,0 UV-I 0 W/m 5,3 C 1,6 km/h (1 Bft)
08.10.2016 06:10 5,9 C 5,9 C 96 % 1017,0 hPa 0,0 mm 0,0 km/h (0 Bft) NO 43 0 min 0,000 mm 0,0 UV-I 0 W/m 5,3 C 0,0 km/h (0 Bft)
08.10.2016 06:11 5,9 C 5,9 C 96 % 1017,0 hPa 0,0 mm 0,0 km/h (0 Bft) NO 43 0 min 0,000 mm 0,0 UV-I 0 W/m 5,3 C 0,0 km/h (0 Bft)
08.10.2016 06:12 5,8 C 5,9 C 96 % 1017,0 hPa 0,2 mm 0,2 km/h (0 Bft) NO 43 0 min 0,000 mm 0,0 UV-I 0 W/m 5,2 C 1,6 km/h (1 Bft)
08.10.2016 06:13 5,9 C 5,9 C 96 % 1017,0 hPa 0,0 mm 0,7 km/h (0 Bft) NO 43 0 min 0,000 mm 0,0 UV-I 0 W/m 5,3 C 1,6 km/h (1 Bft)
08.10.2016 06:14 5,9 C 5,9 C 96 % 1017,0 hPa 0,0 mm 0,0 km/h (0 Bft) NO 43 0 min 0,000 mm 0,0 UV-I 0 W/m 5,3 C 0,0 km/h (0 Bft)
08.10.2016 06:15 5,9 C 5,9 C 96 % 1017,0 hPa 0,0 mm 0,6 km/h (0 Bft) NO 43 0 min 0,000 mm 0,0 UV-I 0 W/m 5,3 C 1,6 km/h (1 Bft)
08.10.2016 06:16 5,8 C 5,9 C 96 % 1017,0 hPa 0,0 mm 0,7 km/h (0 Bft) NO 43 0 min 0,000 mm 0,0 UV-I 0 W/m 5,2 C 1,6 km/h (1 Bft)
08.10.2016 06:17 5,8 C 5,9 C 96 % 1017,0 hPa 0,0 mm 1,1 km/h (1 Bft) NO 43 0 min 0,000 mm 0,0 UV-I 0 W/m 5,2 C 1,6 km/h (1 Bft)
08.10.2016 06:18 5,9 C 5,9 C 96 % 1016,9 hPa 0,0 mm 1,5 km/h (1 Bft) NO 43 0 min 0,000 mm 0,0 UV-I 0 W/m 5,3 C 3,2 km/h (1 Bft)
08.10.2016 06:19 5,8 C 5,9 C 96 % 1017,0 hPa 0,0 mm 2,1 km/h (1 Bft) NO 43 0 min 0,000 mm 0,0 UV-I 0 W/m 5,2 C 3,2 km/h (1 Bft)
08.10.2016 06:20 5,8 C 5,9 C 96 % 1017,0 hPa 0,0 mm 1,7 km/h (1 Bft) NO 43 0 min 0,000 mm 0,0 UV-I 0 W/m 5,2 C 3,2 km/h (1 Bft)
08.10.2016 06:21 5,9 C 5,9 C 96 % 1017,0 hPa 0,0 mm 1,9 km/h (1 Bft) NO 43 0 min 0,000 mm 0,0 UV-I 0 W/m 5,3 C 3,2 km/h (1 Bft)
08.10.2016 06:22 5,9 C 5,9 C 96 % 1017,0 hPa 0,0 mm 1,4 km/h (1 Bft) NO 43 0 min 0,000 mm 0,0 UV-I 0 W/m 5,3 C 3,2 km/h (1 Bft)
08.10.2016 06:23 5,9 C 5,9 C 96 % 1017,0 hPa 0,0 mm 2,6 km/h (1 Bft) NW 308 0 min 0,000 mm 0,0 UV-I 0 W/m 5,3 C 4,8 km/h (1 Bft)
08.10.2016 06:24 5,9 C 5,9 C 96 % 1017,0 hPa 0,0 mm 3,8 km/h (1 Bft) NW 306 0 min 0,000 mm 0,0 UV-I 0 W/m 5,3 C 6,4 km/h (2 Bft)
08.10.2016 06:25 5,9 C 5,9 C 96 % 1017,0 hPa 0,0 mm 4,0 km/h (1 Bft) NW 304 0 min 0,000 mm 0,0 UV-I 0 W/m 5,3 C 4,8 km/h (1 Bft)
08.10.2016 06:26 5,9 C 5,9 C 96 % 1017,0 hPa 0,0 mm 2,8 km/h (1 Bft) W-NW 298 0 min 0,000 mm 0,0 UV-I 0 W/m 5,3 C 3,2 km/h (1 Bft)
08.10.2016 06:27 5,8 C 5,9 C 96 % 1017,0 hPa 0,0 mm 3,0 km/h (1 Bft) W-NW 297 0 min 0,000 mm 0,0 UV-I 0 W/m 5,2 C 4,8 km/h (1 Bft)
08.10.2016 06:28 5,9 C 5,9 C 96 % 1017,0 hPa 0,0 mm 2,1 km/h (1 Bft) NW 304 0 min 0,000 mm 0,0 UV-I 0 W/m 5,3 C 3,2 km/h (1 Bft)
08.10.2016 06:29 5,8 C 5,9 C 96 % 1017,0 hPa 0,0 mm 1,1 km/h (1 Bft) NW 304 0 min 0,000 mm 0,0 UV-I 0 W/m 5,2 C 3,2 km/h (1 Bft)
08.10.2016 06:30 5,8 C 5,9 C 96 % 1017,0 hPa 0,0 mm 2,0 km/h (1 Bft) NW 304 0 min 0,000 mm 0,0 UV-I 0 W/m 5,2 C 3,2 km/h (1 Bft)
08.10.2016 06:31 5,8 C 5,9 C 96 % 1017,0 hPa 0,0 mm 1,7 km/h (1 Bft) NW 308 0 min 0,000 mm 0,0 UV-I 0 W/m 5,2 C 3,2 km/h (1 Bft)
08.10.2016 06:32 5,8 C 5,9 C 96 % 1017,0 hPa 0,0 mm 1,7 km/h (1 Bft) NW 308 0 min 0,000 mm 0,0 UV-I 0 W/m 5,2 C 3,2 km/h (1 Bft)
08.10.2016 06:33 5,8 C 5,8 C 96 % 1017,0 hPa 0,0 mm 2,1 km/h (1 Bft) NW 308 0 min 0,000 mm 0,0 UV-I 0 W/m 5,2 C 3,2 km/h (1 Bft)
08.10.2016 06:34 5,8 C 5,8 C 96 % 1017,0 hPa 0,0 mm 1,9 km/h (1 Bft) NW 308 0 min 0,000 mm 0,0 UV-I 0 W/m 5,2 C 3,2 km/h (1 Bft)
08.10.2016 06:35 5,9 C 5,9 C 96 % 1017,0 hPa 0,0 mm 1,3 km/h (1 Bft) NW 308 0 min 0,000 mm 0,0 UV-I 0 W/m 5,3 C 3,2 km/h (1 Bft)
08.10.2016 06:36 5,8 C 5,9 C 96 % 1017,0 hPa 0,0 mm 1,6 km/h (1 Bft) NW 308 0 min 0,000 mm 0,0 UV-I 0 W/m 5,2 C 3,2 km/h (1 Bft)
08.10.2016 06:37 5,8 C 5,8 C 96 % 1017,0 hPa 0,0 mm 2,1 km/h (1 Bft) NW 309 0 min 0,000 mm 0,0 UV-I 0 W/m 5,2 C 3,2 km/h (1 Bft)
08.10.2016 06:38 5,9 C 5,9 C 96 % 1017,0 hPa 0,0 mm 0,9 km/h (0 Bft) NW 309 0 min 0,000 mm 0,0 UV-I 0 W/m 5,3 C 3,2 km/h (1 Bft)
08.10.2016 06:39 5,8 C 5,9 C 96 % 1017,0 hPa 0,0 mm 0,6 km/h (0 Bft) NW 309 0 min 0,000 mm 0,0 UV-I 0 W/m 5,2 C 1,6 km/h (1 Bft)
08.10.2016 06:40 5,8 C 5,9 C 96 % 1017,1 hPa 0,0 mm 1,6 km/h (1 Bft) NW 309 0 min 0,000 mm 0,0 UV-I 0 W/m 5,2 C 3,2 km/h (1 Bft)
08.10.2016 06:41 5,9 C 5,9 C 96 % 1017,0 hPa 0,0 mm 1,9 km/h (1 Bft) NW 309 0 min 0,000 mm 0,0 UV-I 0 W/m 5,3 C 4,8 km/h (1 Bft)
08.10.2016 06:42 5,8 C 5,9 C 96 % 1017,0 hPa 0,2 mm 1,4 km/h (1 Bft) NW 309 0 min 0,000 mm 0,0 UV-I 0 W/m 5,2 C 3,2 km/h (1 Bft)
08.10.2016 06:43 5,8 C 5,8 C 96 % 1017,0 hPa 0,0 mm 1,6 km/h (1 Bft) NW 309 0 min 0,000 mm 0,0 UV-I 0 W/m 5,2 C 3,2 km/h (1 Bft)
08.10.2016 06:44 5,8 C 5,8 C 96 % 1017,0 hPa 0,0 mm 1,3 km/h (1 Bft) NW 309 0 min 0,000 mm 0,0 UV-I 0 W/m 5,2 C 1,6 km/h (1 Bft)
08.10.2016 06:45 5,8 C 5,9 C 96 % 1017,0 hPa 0,0 mm 2,2 km/h (1 Bft) NW 309 0 min 0,000 mm 0,0 UV-I 0 W/m 5,2 C 3,2 km/h (1 Bft)
08.10.2016 06:46 5,8 C 5,9 C 96 % 1017,1 hPa 0,0 mm 2,7 km/h (1 Bft) NW 309 0 min 0,000 mm 0,0 UV-I 0 W/m 5,2 C 3,2 km/h (1 Bft)
08.10.2016 06:47 5,8 C 5,9 C 96 % 1017,1 hPa 0,0 mm 1,1 km/h (1 Bft) NW 309 0 min 0,000 mm 0,0 UV-I 0 W/m 5,2 C 1,6 km/h (1 Bft)
08.10.2016 06:48 5,8 C 5,9 C 96 % 1017,1 hPa 0,0 mm 1,6 km/h (1 Bft) NW 309 0 min 0,000 mm 0,0 UV-I 0 W/m 5,2 C 3,2 km/h (1 Bft)
08.10.2016 06:49 5,8 C 5,8 C 96 % 1017,1 hPa 0,0 mm 0,4 km/h (0 Bft) NW 309 0 min 0,000 mm 0,0 UV-I 0 W/m 5,2 C 1,6 km/h (1 Bft)
08.10.2016 06:50 5,8 C 5,8 C 96 % 1017,1 hPa 0,0 mm 0,9 km/h (0 Bft) NW 309 0 min 0,000 mm 0,0 UV-I 0 W/m 5,2 C 1,6 km/h (1 Bft)
08.10.2016 06:51 5,8 C 5,8 C 96 % 1017,1 hPa 0,0 mm 0,7 km/h (0 Bft) NW 309 0 min 0,000 mm 0,0 UV-I 0 W/m 5,2 C 1,6 km/h (1 Bft)
08.10.2016 06:52 5,8 C 5,8 C 96 % 1017,1 hPa 0,0 mm 1,2 km/h (1 Bft) NW 309 0 min 0,000 mm 0,0 UV-I 0 W/m 5,2 C 1,6 km/h (1 Bft)
08.10.2016 06:53 5,8 C 5,8 C 96 % 1017,1 hPa 0,0 mm 1,8 km/h (1 Bft) N-NW 328 0 min 0,000 mm 0,0 UV-I 0 W/m 5,2 C 3,2 km/h (1 Bft)
08.10.2016 06:54 5,8 C 5,8 C 96 % 1017,1 hPa 0,0 mm 0,5 km/h (0 Bft) N-NW 328 0 min 0,000 mm 0,0 UV-I 0 W/m 5,2 C 1,6 km/h (1 Bft)
08.10.2016 06:55 5,8 C 5,8 C 96 % 1017,1 hPa 0,0 mm 2,6 km/h (1 Bft) NW 309 0 min 0,000 mm 0,0 UV-I 0 W/m 5,2 C 4,8 km/h (1 Bft)
08.10.2016 06:56 5,8 C 5,8 C 96 % 1017,1 hPa 0,2 mm 2,1 km/h (1 Bft) NW 309 0 min 0,000 mm 0,0 UV-I 0 W/m 5,2 C 3,2 km/h (1 Bft)
08.10.2016 06:57 5,8 C 5,8 C 96 % 1017,1 hPa 0,0 mm 1,3 km/h (1 Bft) NW 309 0 min 0,000 mm 0,0 UV-I 0 W/m 5,2 C 1,6 km/h (1 Bft)
08.10.2016 06:58 5,8 C 5,8 C 96 % 1017,1 hPa 0,0 mm 0,7 km/h (0 Bft) NW 309 0 min 0,000 mm 0,0 UV-I 0 W/m 5,2 C 1,6 km/h (1 Bft)
08.10.2016 06:59 5,8 C 5,8 C 96 % 1017,1 hPa 0,0 mm 0,8 km/h (0 Bft) NW 309 0 min 0,000 mm 0,0 UV-I 0 W/m 5,2 C 1,6 km/h (1 Bft)
08.10.2016 07:00 5,8 C 5,8 C 96 % 1017,1 hPa 0,0 mm 1,9 km/h (1 Bft) NW 309 0 min 0,000 mm 0,0 UV-I 0 W/m 5,2 C 3,2 km/h (1 Bft)
08.10.2016 07:01 5,8 C 5,8 C 96 % 1017,1 hPa 0,0 mm 1,5 km/h (1 Bft) NW 310 0 min 0,000 mm 0,0 UV-I 0 W/m 5,2 C 3,2 km/h (1 Bft)
08.10.2016 07:02 5,8 C 5,8 C 96 % 1017,1 hPa 0,0 mm 2,3 km/h (1 Bft) NW 310 0 min 0,000 mm 0,0 UV-I 0 W/m 5,2 C 4,8 km/h (1 Bft)
08.10.2016 07:03 5,8 C 5,8 C 96 % 1017,1 hPa 0,0 mm 2,4 km/h (1 Bft) NW 310 0 min 0,000 mm 0,0 UV-I 0 W/m 5,2 C 3,2 km/h (1 Bft)
08.10.2016 07:04 5,8 C 5,8 C 96 % 1017,1 hPa 0,0 mm 0,1 km/h (0 Bft) NW 310 0 min 0,000 mm 0,0 UV-I 0 W/m 5,2 C 1,6 km/h (1 Bft)
08.10.2016 07:05 5,8 C 5,8 C 96 % 1017,1 hPa 0,0 mm 0,1 km/h (0 Bft) NW 310 0 min 0,000 mm 0,0 UV-I 0 W/m 5,2 C 1,6 km/h (1 Bft)
08.10.2016 07:06 5,8 C 5,8 C 96 % 1017,1 hPa 0,0 mm 0,3 km/h (0 Bft) NW 310 0 min 0,000 mm 0,0 UV-I 0 W/m 5,2 C 1,6 km/h (1 Bft)
08.10.2016 07:07 5,8 C 5,8 C 96 % 1017,1 hPa 0,0 mm 1,8 km/h (1 Bft) NW 310 0 min 0,000 mm 0,0 UV-I 0 W/m 5,2 C 3,2 km/h (1 Bft)
08.10.2016 07:08 5,8 C 5,8 C 96 % 1017,1 hPa 0,0 mm 2,2 km/h (1 Bft) NW 311 0 min 0,000 mm 0,0 UV-I 0 W/m 5,2 C 3,2 km/h (1 Bft)
08.10.2016 07:09 5,8 C 5,8 C 96 % 1017,1 hPa 0,0 mm 0,7 km/h (0 Bft) NW 311 0 min 0,000 mm 0,0 UV-I 0 W/m 5,2 C 1,6 km/h (1 Bft)
08.10.2016 07:10 5,8 C 5,8 C 96 % 1017,1 hPa 0,0 mm 1,7 km/h (1 Bft) N-NO 13 0 min 0,000 mm 0,0 UV-I 0 W/m 5,2 C 3,2 km/h (1 Bft)
08.10.2016 07:11 5,8 C 5,8 C 96 % 1017,1 hPa 0,0 mm 3,6 km/h (1 Bft) N-NO 26 0 min 0,000 mm 0,0 UV-I 0 W/m 5,2 C 4,8 km/h (1 Bft)
08.10.2016 07:12 5,8 C 5,8 C 96 % 1017,2 hPa 0,0 mm 2,1 km/h (1 Bft) N-NO 24 0 min 0,000 mm 0,0 UV-I 0 W/m 5,2 C 3,2 km/h (1 Bft)
08.10.2016 07:13 5,8 C 5,8 C 95 % 1017,1 hPa 0,0 mm 1,1 km/h (1 Bft) N-NO 24 0 min 0,000 mm 0,0 UV-I 0 W/m 5,1 C 1,6 km/h (1 Bft)
08.10.2016 07:14 5,8 C 5,8 C 95 % 1017,2 hPa 0,0 mm 1,4 km/h (1 Bft) N-NO 24 0 min 0,000 mm 0,0 UV-I 0 W/m 5,1 C 3,2 km/h (1 Bft)
08.10.2016 07:15 5,8 C 5,8 C 95 % 1017,2 hPa 0,0 mm 1,2 km/h (1 Bft) N-NO 24 0 min 0,000 mm 0,0 UV-I 0 W/m 5,1 C 3,2 km/h (1 Bft)
08.10.2016 07:16 5,8 C 5,8 C 95 % 1017,2 hPa 0,0 mm 1,6 km/h (1 Bft) N-NO 24 0 min 0,000 mm 0,0 UV-I 0 W/m 5,1 C 3,2 km/h (1 Bft)
08.10.2016 07:17 5,8 C 5,8 C 95 % 1017,2 hPa 0,0 mm 1,3 km/h (1 Bft) N-NO 24 0 min 0,000 mm 0,0 UV-I 0 W/m 5,1 C 3,2 km/h (1 Bft)
08.10.2016 07:18 5,8 C 5,8 C 95 % 1017,2 hPa 0,0 mm 1,5 km/h (1 Bft) N-NO 24 0 min 0,000 mm 0,0 UV-I 0 W/m 5,1 C 3,2 km/h (1 Bft)
08.10.2016 07:19 5,8 C 5,8 C 95 % 1017,2 hPa 0,0 mm 1,0 km/h (0 Bft) N-NO 24 0 min 0,000 mm 0,0 UV-I 0 W/m 5,1 C 3,2 km/h (1 Bft)
08.10.2016 07:20 5,8 C 5,8 C 95 % 1017,2 hPa 0,0 mm 0,9 km/h (0 Bft) N-NO 24 0 min 0,000 mm 0,0 UV-I 0 W/m 5,1 C 1,6 km/h (1 Bft)
08.10.2016 07:21 5,8 C 5,8 C 95 % 1017,2 hPa 0,0 mm 0,3 km/h (0 Bft) N-NO 24 0 min 0,000 mm 0,0 UV-I 0 W/m 5,1 C 1,6 km/h (1 Bft)
08.10.2016 07:22 5,8 C 5,8 C 95 % 1017,2 hPa 0,0 mm 0,3 km/h (0 Bft) N-NO 24 0 min 0,000 mm 0,0 UV-I 0 W/m 5,1 C 1,6 km/h (1 Bft)
08.10.2016 07:23 5,8 C 5,8 C 95 % 1017,2 hPa 0,0 mm 0,0 km/h (0 Bft) N-NO 24 0 min 0,000 mm 0,0 UV-I 0 W/m 5,1 C 0,0 km/h (0 Bft)
08.10.2016 07:24 5,8 C 5,8 C 95 % 1017,2 hPa 0,0 mm 0,6 km/h (0 Bft) N-NO 24 0 min 0,000 mm 0,0 UV-I 0 W/m 5,1 C 1,6 km/h (1 Bft)
08.10.2016 07:25 5,8 C 5,8 C 95 % 1017,2 hPa 0,0 mm 1,7 km/h (1 Bft) N-NO 25 0 min 0,000 mm 0,0 UV-I 0 W/m 5,1 C 3,2 km/h (1 Bft)
08.10.2016 07:26 5,8 C 5,8 C 95 % 1017,2 hPa 0,0 mm 2,1 km/h (1 Bft) N-NO 30 0 min 0,000 mm 0,0 UV-I 0 W/m 5,1 C 3,2 km/h (1 Bft)
08.10.2016 07:27 5,8 C 5,8 C 95 % 1017,3 hPa 0,0 mm 0,6 km/h (0 Bft) N-NO 30 0 min 0,000 mm 0,0 UV-I 0 W/m 5,1 C 1,6 km/h (1 Bft)
08.10.2016 07:28 5,8 C 5,8 C 95 % 1017,2 hPa 0,0 mm 0,6 km/h (0 Bft) N-NO 30 0 min 0,000 mm 0,0 UV-I 0 W/m 5,1 C 1,6 km/h (1 Bft)
08.10.2016 07:29 5,8 C 5,8 C 95 % 1017,3 hPa 0,0 mm 1,3 km/h (1 Bft) N-NO 30 0 min 0,000 mm 0,0 UV-I 0 W/m 5,1 C 3,2 km/h (1 Bft)
08.10.2016 07:30 5,8 C 5,8 C 95 % 1017,3 hPa 0,0 mm 1,7 km/h (1 Bft) N-NO 30 0 min 0,000 mm 0,0 UV-I 0 W/m 5,1 C 3,2 km/h (1 Bft)
08.10.2016 07:31 5,8 C 5,8 C 95 % 1017,3 hPa 0,2 mm 2,1 km/h (1 Bft) N-NO 30 0 min 0,000 mm 0,0 UV-I 0 W/m 5,1 C 3,2 km/h (1 Bft)
08.10.2016 07:32 5,8 C 5,8 C 95 % 1017,3 hPa 0,0 mm 1,3 km/h (1 Bft) NO 43 0 min 0,000 mm 0,0 UV-I 0 W/m 5,1 C 3,2 km/h (1 Bft)
08.10.2016 07:33 5,8 C 5,8 C 95 % 1017,2 hPa 0,0 mm 3,1 km/h (1 Bft) NO 48 0 min 0,000 mm 0,0 UV-I 0 W/m 5,1 C 4,8 km/h (1 Bft)
08.10.2016 07:34 5,8 C 5,8 C 95 % 1017,2 hPa 0,0 mm 2,0 km/h (1 Bft) NO 48 0 min 0,000 mm 0,0 UV-I 0 W/m 5,1 C 3,2 km/h (1 Bft)
08.10.2016 07:35 5,8 C 5,8 C 95 % 1017,3 hPa 0,0 mm 1,6 km/h (1 Bft) NO 48 0 min 0,000 mm 0,0 UV-I 0 W/m 5,1 C 3,2 km/h (1 Bft)
08.10.2016 07:36 5,8 C 5,8 C 95 % 1017,3 hPa 0,0 mm 2,0 km/h (1 Bft) NO 47 0 min 0,000 mm 0,0 UV-I 0 W/m 5,1 C 3,2 km/h (1 Bft)
08.10.2016 07:37 5,8 C 5,8 C 95 % 1017,3 hPa 0,0 mm 3,3 km/h (1 Bft) NO 47 0 min 0,000 mm 0,0 UV-I 0 W/m 5,1 C 4,8 km/h (1 Bft)
08.10.2016 07:38 5,8 C 5,8 C 95 % 1017,3 hPa 0,0 mm 1,8 km/h (1 Bft) NO 43 0 min 0,000 mm 0,0 UV-I 0 W/m 5,1 C 3,2 km/h (1 Bft)
08.10.2016 07:39 5,8 C 5,8 C 95 % 1017,4 hPa 0,0 mm 1,7 km/h (1 Bft) NO 42 0 min 0,000 mm 0,0 UV-I 0 W/m 5,1 C 3,2 km/h (1 Bft)
08.10.2016 07:40 5,8 C 5,8 C 95 % 1017,3 hPa 0,0 mm 3,4 km/h (1 Bft) N 5 0 min 0,000 mm 0,0 UV-I 0 W/m 5,1 C 4,8 km/h (1 Bft)
08.10.2016 07:41 5,8 C 5,8 C 95 % 1017,4 hPa 0,0 mm 3,9 km/h (1 Bft) N-NW 346 0 min 0,000 mm 0,0 UV-I 0 W/m 5,1 C 4,8 km/h (1 Bft)
08.10.2016 07:42 5,8 C 5,8 C 95 % 1017,4 hPa 0,0 mm 4,4 km/h (1 Bft) N 360 0 min 0,000 mm 0,0 UV-I 0 W/m 5,1 C 6,4 km/h (2 Bft)
08.10.2016 07:43 5,8 C 5,8 C 95 % 1017,4 hPa 0,0 mm 2,8 km/h (1 Bft) N 360 0 min 0,000 mm 0,0 UV-I 0 W/m 5,1 C 4,8 km/h (1 Bft)
08.10.2016 07:44 5,8 C 5,8 C 95 % 1017,4 hPa 0,0 mm 0,9 km/h (0 Bft) N 360 0 min 0,000 mm 0,0 UV-I 0 W/m 5,1 C 1,6 km/h (1 Bft)
08.10.2016 07:45 5,8 C 5,8 C 95 % 1017,4 hPa 0,0 mm 0,7 km/h (0 Bft) N 360 0 min 0,000 mm 0,0 UV-I 0 W/m 5,1 C 1,6 km/h (1 Bft)
08.10.2016 07:46 5,8 C 5,8 C 95 % 1017,4 hPa 0,0 mm 1,5 km/h (1 Bft) N 360 0 min 0,000 mm 0,0 UV-I 0 W/m 5,1 C 3,2 km/h (1 Bft)
08.10.2016 07:47 5,8 C 5,8 C 95 % 1017,5 hPa 0,0 mm 1,5 km/h (1 Bft) N 360 0 min 0,000 mm 0,0 UV-I 0 W/m 5,1 C 3,2 km/h (1 Bft)
08.10.2016 07:48 5,8 C 5,8 C 95 % 1017,5 hPa 0,0 mm 1,9 km/h (1 Bft) N 360 0 min 0,000 mm 0,0 UV-I 0 W/m 5,1 C 3,2 km/h (1 Bft)
08.10.2016 07:49 5,8 C 5,8 C 95 % 1017,5 hPa 0,0 mm 1,1 km/h (1 Bft) N 360 0 min 0,000 mm 0,0 UV-I 0 W/m 5,1 C 3,2 km/h (1 Bft)
08.10.2016 07:50 5,8 C 5,8 C 95 % 1017,5 hPa 0,0 mm 1,3 km/h (1 Bft) N 360 0 min 0,000 mm 0,0 UV-I 0 W/m 5,1 C 3,2 km/h (1 Bft)
08.10.2016 07:51 5,8 C 5,8 C 95 % 1017,4 hPa 0,0 mm 1,5 km/h (1 Bft) N 360 0 min 0,000 mm 0,0 UV-I 0 W/m 5,1 C 3,2 km/h (1 Bft)
08.10.2016 07:52 5,8 C 5,8 C 95 % 1017,4 hPa 0,0 mm 2,1 km/h (1 Bft) N 349 0 min 0,000 mm 0,0 UV-I 0 W/m 5,1 C 3,2 km/h (1 Bft)
08.10.2016 07:53 5,8 C 5,8 C 95 % 1017,5 hPa 0,0 mm 0,9 km/h (0 Bft) N 349 0 min 0,000 mm 0,0 UV-I 0 W/m 5,1 C 1,6 km/h (1 Bft)
08.10.2016 07:54 5,8 C 5,8 C 95 % 1017,5 hPa 0,0 mm 0,4 km/h (0 Bft) N 349 0 min 0,000 mm 0,0 UV-I 0 W/m 5,1 C 1,6 km/h (1 Bft)
08.10.2016 07:55 5,8 C 5,8 C 95 % 1017,4 hPa 0,0 mm 0,1 km/h (0 Bft) N 349 0 min 0,000 mm 0,0 UV-I 0 W/m 5,1 C 1,6 km/h (1 Bft)
08.10.2016 07:56 5,8 C 5,8 C 96 % 1017,4 hPa 0,2 mm 0,0 km/h (0 Bft) N 349 0 min 0,000 mm 0,0 UV-I 0 W/m 5,2 C 0,0 km/h (0 Bft)
08.10.2016 07:57 5,8 C 5,8 C 96 % 1017,5 hPa 0,0 mm 1,7 km/h (1 Bft) N-NW 348 0 min 0,000 mm 0,0 UV-I 0 W/m 5,2 C 4,8 km/h (1 Bft)
08.10.2016 07:58 5,8 C 5,8 C 95 % 1017,4 hPa 0,0 mm 3,8 km/h (1 Bft) N 349 0 min 0,000 mm 0,0 UV-I 5 W/m 5,1 C 6,4 km/h (2 Bft)
08.10.2016 07:59 5,8 C 5,8 C 96 % 1017,4 hPa 0,0 mm 3,8 km/h (1 Bft) N-NO 32 0 min 0,000 mm 0,0 UV-I 5 W/m 5,2 C 4,8 km/h (1 Bft)
08.10.2016 08:00 5,7 C 5,8 C 95 % 1017,4 hPa 0,2 mm 2,6 km/h (1 Bft) NO 42 0 min 0,000 mm 0,0 UV-I 7 W/m 5,0 C 4,8 km/h (1 Bft)
08.10.2016 08:01 5,7 C 5,8 C 95 % 1017,4 hPa 0,0 mm 3,2 km/h (1 Bft) NO 46 0 min 0,000 mm 0,0 UV-I 9 W/m 5,0 C 4,8 km/h (1 Bft)
08.10.2016 08:02 5,8 C 5,8 C 95 % 1017,4 hPa 0,0 mm 2,3 km/h (1 Bft) NO 46 0 min 0,000 mm 0,0 UV-I 9 W/m 5,1 C 4,8 km/h (1 Bft)
08.10.2016 08:03 5,7 C 5,8 C 95 % 1017,4 hPa 0,0 mm 3,4 km/h (1 Bft) O-NO 58 0 min 0,000 mm 0,0 UV-I 11 W/m 5,0 C 6,4 km/h (2 Bft)
08.10.2016 08:04 5,7 C 5,7 C 95 % 1017,4 hPa 0,0 mm 3,9 km/h (1 Bft) N-NO 24 0 min 0,000 mm 0,0 UV-I 11 W/m 5,0 C 4,8 km/h (1 Bft)
08.10.2016 08:05 5,7 C 5,7 C 95 % 1017,5 hPa 0,0 mm 2,7 km/h (1 Bft) N-NO 24 0 min 0,000 mm 0,0 UV-I 9 W/m 5,0 C 4,8 km/h (1 Bft)
08.10.2016 08:06 5,7 C 5,7 C 95 % 1017,5 hPa 0,0 mm 2,0 km/h (1 Bft) N-NO 24 0 min 0,000 mm 0,0 UV-I 9 W/m 5,0 C 3,2 km/h (1 Bft)
08.10.2016 08:07 5,7 C 5,7 C 95 % 1017,5 hPa 0,0 mm 2,9 km/h (1 Bft) N-NW 340 0 min 0,000 mm 0,0 UV-I 9 W/m 5,0 C 6,4 km/h (2 Bft)
08.10.2016 08:08 5,7 C 5,7 C 95 % 1017,5 hPa 0,0 mm 3,3 km/h (1 Bft) NW 315 0 min 0,000 mm 0,0 UV-I 7 W/m 5,0 C 4,8 km/h (1 Bft)
08.10.2016 08:09 5,6 C 5,7 C 95 % 1017,5 hPa 0,0 mm 0,3 km/h (0 Bft) NW 315 0 min 0,000 mm 0,0 UV-I 7 W/m 4,9 C 1,6 km/h (1 Bft)
08.10.2016 08:10 5,6 C 5,7 C 95 % 1017,5 hPa 0,0 mm 0,3 km/h (0 Bft) NW 315 0 min 0,000 mm 0,0 UV-I 7 W/m 4,9 C 1,6 km/h (1 Bft)
08.10.2016 08:11 5,6 C 5,7 C 95 % 1017,5 hPa 0,0 mm 1,8 km/h (1 Bft) N 355 0 min 0,000 mm 0,0 UV-I 7 W/m 4,9 C 3,2 km/h (1 Bft)
08.10.2016 08:12 5,6 C 5,6 C 95 % 1017,5 hPa 0,0 mm 4,3 km/h (1 Bft) N 360 0 min 0,000 mm 0,0 UV-I 7 W/m 4,9 C 6,4 km/h (2 Bft)
08.10.2016 08:13 5,6 C 5,6 C 95 % 1017,5 hPa 0,0 mm 1,5 km/h (1 Bft) N 360 0 min 0,000 mm 0,0 UV-I 7 W/m 4,9 C 3,2 km/h (1 Bft)
08.10.2016 08:14 5,6 C 5,6 C 95 % 1017,6 hPa 0,0 mm 1,9 km/h (1 Bft) N 360 0 min 0,000 mm 0,0 UV-I 7 W/m 4,9 C 3,2 km/h (1 Bft)
08.10.2016 08:15 5,6 C 5,6 C 95 % 1017,5 hPa 0,0 mm 2,1 km/h (1 Bft) N 360 0 min 0,000 mm 0,0 UV-I 7 W/m 4,9 C 3,2 km/h (1 Bft)
08.10.2016 08:16 5,6 C 5,6 C 95 % 1017,6 hPa 0,0 mm 0,4 km/h (0 Bft) N 360 0 min 0,000 mm 0,0 UV-I 9 W/m 4,9 C 1,6 km/h (1 Bft)
08.10.2016 08:17 5,6 C 5,6 C 95 % 1017,6 hPa 0,0 mm 1,1 km/h (1 Bft) N 360 0 min 0,000 mm 0,0 UV-I 9 W/m 4,9 C 1,6 km/h (1 Bft)
08.10.2016 08:18 5,6 C 5,6 C 95 % 1017,5 hPa 0,0 mm 0,9 km/h (0 Bft) N 360 0 min 0,000 mm 0,0 UV-I 9 W/m 4,9 C 1,6 km/h (1 Bft)
08.10.2016 08:19 5,6 C 5,6 C 95 % 1017,5 hPa 0,0 mm 2,2 km/h (1 Bft) N-NO 13 0 min 0,000 mm 0,0 UV-I 9 W/m 4,9 C 4,8 km/h (1 Bft)
08.10.2016 08:20 5,6 C 5,7 C 95 % 1017,5 hPa 0,0 mm 1,3 km/h (1 Bft) N-NO 13 0 min 0,000 mm 0,0 UV-I 9 W/m 4,9 C 3,2 km/h (1 Bft)
08.10.2016 08:21 5,6 C 5,6 C 95 % 1017,5 hPa 0,0 mm 0,9 km/h (0 Bft) N-NO 13 0 min 0,000 mm 0,0 UV-I 9 W/m 4,9 C 1,6 km/h (1 Bft)
08.10.2016 08:22 5,7 C 5,7 C 95 % 1017,6 hPa 0,0 mm 2,6 km/h (1 Bft) N 5 0 min 0,000 mm 0,0 UV-I 7 W/m 5,0 C 3,2 km/h (1 Bft)
08.10.2016 08:23 5,6 C 5,7 C 95 % 1017,5 hPa 0,0 mm 3,0 km/h (1 Bft) N 5 0 min 0,000 mm 0,0 UV-I 9 W/m 4,9 C 4,8 km/h (1 Bft)
08.10.2016 08:24 5,6 C 5,7 C 95 % 1017,6 hPa 0,0 mm 2,5 km/h (1 Bft) N 5 0 min 0,000 mm 0,0 UV-I 7 W/m 4,9 C 3,2 km/h (1 Bft)
08.10.2016 08:25 5,7 C 5,7 C 95 % 1017,6 hPa 0,0 mm 2,2 km/h (1 Bft) N 5 0 min 0,000 mm 0,0 UV-I 7 W/m 5,0 C 3,2 km/h (1 Bft)
08.10.2016 08:26 5,7 C 5,7 C 95 % 1017,6 hPa 0,0 mm 1,3 km/h (1 Bft) N 5 0 min 0,000 mm 0,0 UV-I 9 W/m 5,0 C 3,2 km/h (1 Bft)
08.10.2016 08:27 5,6 C 5,7 C 95 % 1017,6 hPa 0,0 mm 0,6 km/h (0 Bft) N 5 0 min 0,000 mm 0,0 UV-I 9 W/m 4,9 C 1,6 km/h (1 Bft)
08.10.2016 08:28 5,6 C 5,6 C 95 % 1017,6 hPa 0,0 mm 1,1 km/h (1 Bft) N 5 0 min 0,000 mm 0,0 UV-I 9 W/m 4,9 C 1,6 km/h (1 Bft)
08.10.2016 08:29 5,7 C 5,7 C 95 % 1017,7 hPa 0,0 mm 1,1 km/h (1 Bft) N 5 0 min 0,000 mm 0,0 UV-I 9 W/m 5,0 C 1,6 km/h (1 Bft)
08.10.2016 08:30 5,6 C 5,7 C 95 % 1017,7 hPa 0,0 mm 0,1 km/h (0 Bft) N 5 0 min 0,000 mm 0,0 UV-I 9 W/m 4,9 C 1,6 km/h (1 Bft)
08.10.2016 08:31 5,6 C 5,7 C 95 % 1017,7 hPa 0,0 mm 0,3 km/h (0 Bft) N 5 0 min 0,000 mm 0,0 UV-I 11 W/m 4,9 C 1,6 km/h (1 Bft)
08.10.2016 08:32 5,6 C 5,6 C 95 % 1017,6 hPa 0,0 mm 0,1 km/h (0 Bft) N 5 0 min 0,000 mm 0,0 UV-I 11 W/m 4,9 C 1,6 km/h (1 Bft)
08.10.2016 08:33 5,6 C 5,6 C 95 % 1017,6 hPa 0,0 mm 1,1 km/h (1 Bft) N 5 0 min 0,000 mm 0,0 UV-I 11 W/m 4,9 C 3,2 km/h (1 Bft)
08.10.2016 08:34 5,6 C 5,6 C 95 % 1017,7 hPa 0,0 mm 1,7 km/h (1 Bft) N 5 0 min 0,000 mm 0,0 UV-I 12 W/m 4,9 C 3,2 km/h (1 Bft)
08.10.2016 08:35 5,6 C 5,6 C 95 % 1017,7 hPa 0,0 mm 1,5 km/h (1 Bft) N-NO 13 0 min 0,000 mm 0,0 UV-I 12 W/m 4,9 C 3,2 km/h (1 Bft)
08.10.2016 08:36 5,6 C 5,6 C 95 % 1017,7 hPa 0,0 mm 0,1 km/h (0 Bft) N-NO 13 0 min 0,000 mm 0,0 UV-I 12 W/m 4,9 C 1,6 km/h (1 Bft)
08.10.2016 08:37 5,6 C 5,6 C 95 % 1017,7 hPa 0,0 mm 0,5 km/h (0 Bft) N-NO 13 0 min 0,000 mm 0,0 UV-I 12 W/m 4,9 C 1,6 km/h (1 Bft)
08.10.2016 08:38 5,7 C 5,7 C 95 % 1017,7 hPa 0,0 mm 0,5 km/h (0 Bft) N-NO 13 0 min 0,000 mm 0,0 UV-I 12 W/m 5,0 C 1,6 km/h (1 Bft)
08.10.2016 08:39 5,7 C 5,7 C 95 % 1017,7 hPa 0,0 mm 0,1 km/h (0 Bft) N-NO 13 0 min 0,000 mm 0,0 UV-I 12 W/m 5,0 C 1,6 km/h (1 Bft)
08.10.2016 08:40 5,6 C 5,7 C 95 % 1017,7 hPa 0,0 mm 0,0 km/h (0 Bft) N-NO 13 0 min 0,000 mm 0,0 UV-I 12 W/m 4,9 C 0,0 km/h (0 Bft)
08.10.2016 08:41 5,6 C 5,7 C 95 % 1017,7 hPa 0,0 mm 0,0 km/h (0 Bft) N-NO 13 0 min 0,000 mm 0,0 UV-I 14 W/m 4,9 C 0,0 km/h (0 Bft)
08.10.2016 08:42 5,7 C 5,7 C 95 % 1017,7 hPa 0,0 mm 0,0 km/h (0 Bft) N-NO 13 0 min 0,000 mm 0,0 UV-I 14 W/m 5,0 C 0,0 km/h (0 Bft)
08.10.2016 08:43 5,7 C 5,7 C 95 % 1017,8 hPa 0,0 mm 0,0 km/h (0 Bft) N-NO 13 0 min 0,000 mm 0,0 UV-I 14 W/m 5,0 C 0,0 km/h (0 Bft)
08.10.2016 08:44 5,7 C 5,7 C 95 % 1017,8 hPa 0,0 mm 0,2 km/h (0 Bft) N-NO 13 0 min 0,000 mm 0,0 UV-I 14 W/m 5,0 C 1,6 km/h (1 Bft)
08.10.2016 08:45 5,7 C 5,7 C 95 % 1017,8 hPa 0,0 mm 0,6 km/h (0 Bft) N-NO 13 0 min 0,000 mm 0,0 UV-I 16 W/m 5,0 C 1,6 km/h (1 Bft)
08.10.2016 08:46 5,7 C 5,7 C 95 % 1017,8 hPa 0,0 mm 0,2 km/h (0 Bft) N-NO 13 0 min 0,000 mm 0,0 UV-I 16 W/m 5,0 C 1,6 km/h (1 Bft)
08.10.2016 08:47 5,7 C 5,7 C 95 % 1017,8 hPa 0,0 mm 0,0 km/h (0 Bft) N-NO 13 0 min 0,000 mm 0,0 UV-I 16 W/m 5,0 C 0,0 km/h (0 Bft)
08.10.2016 08:48 5,7 C 5,7 C 95 % 1017,8 hPa 0,0 mm 1,4 km/h (1 Bft) N-NO 22 0 min 0,000 mm 0,0 UV-I 18 W/m 5,0 C 3,2 km/h (1 Bft)
08.10.2016 08:49 5,7 C 5,7 C 95 % 1017,9 hPa 0,0 mm 3,3 km/h (1 Bft) O-NO 57 0 min 0,000 mm 0,0 UV-I 18 W/m 5,0 C 4,8 km/h (1 Bft)
08.10.2016 08:50 5,6 C 5,7 C 95 % 1017,9 hPa 0,0 mm 2,7 km/h (1 Bft) O-NO 57 0 min 0,000 mm 0,0 UV-I 19 W/m 4,9 C 4,8 km/h (1 Bft)
08.10.2016 08:51 5,6 C 5,7 C 94 % 1017,9 hPa 0,0 mm 0,9 km/h (0 Bft) O-NO 57 0 min 0,000 mm 0,0 UV-I 19 W/m 4,7 C 1,6 km/h (1 Bft)
08.10.2016 08:52 5,6 C 5,7 C 94 % 1017,9 hPa 0,0 mm 1,5 km/h (1 Bft) NO 54 0 min 0,000 mm 0,0 UV-I 19 W/m 4,7 C 3,2 km/h (1 Bft)
08.10.2016 08:53 5,6 C 5,6 C 94 % 1017,9 hPa 0,0 mm 2,7 km/h (1 Bft) NO 41 0 min 0,000 mm 0,0 UV-I 19 W/m 4,7 C 4,8 km/h (1 Bft)
08.10.2016 08:54 5,6 C 5,6 C 95 % 1017,9 hPa 0,0 mm 0,7 km/h (0 Bft) NO 41 0 min 0,000 mm 0,0 UV-I 19 W/m 4,9 C 1,6 km/h (1 Bft)
08.10.2016 08:55 5,6 C 5,6 C 94 % 1017,9 hPa 0,0 mm 1,0 km/h (0 Bft) NO 40 0 min 0,000 mm 0,0 UV-I 19 W/m 4,7 C 3,2 km/h (1 Bft)
08.10.2016 08:56 5,7 C 5,7 C 95 % 1017,9 hPa 0,0 mm 1,7 km/h (1 Bft) NO 40 0 min 0,000 mm 0,0 UV-I 18 W/m 5,0 C 3,2 km/h (1 Bft)
08.10.2016 08:57 5,7 C 5,7 C 95 % 1017,9 hPa 0,0 mm 1,7 km/h (1 Bft) NO 40 0 min 0,000 mm 0,0 UV-I 16 W/m 5,0 C 3,2 km/h (1 Bft)
08.10.2016 08:58 5,6 C 5,7 C 95 % 1017,9 hPa 0,2 mm 2,3 km/h (1 Bft) NO 40 0 min 0,000 mm 0,0 UV-I 16 W/m 4,9 C 3,2 km/h (1 Bft)
08.10.2016 08:59 5,6 C 5,7 C 95 % 1017,9 hPa 0,0 mm 1,7 km/h (1 Bft) NO 40 0 min 0,000 mm 0,0 UV-I 16 W/m 4,9 C 3,2 km/h (1 Bft)
08.10.2016 09:00 5,6 C 5,6 C 95 % 1017,9 hPa 0,0 mm 0,1 km/h (0 Bft) NO 40 0 min 0,000 mm 0,0 UV-I 19 W/m 4,9 C 1,6 km/h (1 Bft)
08.10.2016 09:01 5,6 C 5,6 C 94 % 1017,9 hPa 0,0 mm 0,0 km/h (0 Bft) NO 40 0 min 0,000 mm 0,0 UV-I 19 W/m 4,7 C 0,0 km/h (0 Bft)
08.10.2016 09:02 5,6 C 5,6 C 95 % 1017,9 hPa 0,2 mm 0,3 km/h (0 Bft) NO 40 0 min 0,000 mm 0,0 UV-I 19 W/m 4,9 C 1,6 km/h (1 Bft)
08.10.2016 09:03 5,6 C 5,6 C 95 % 1017,9 hPa 0,0 mm 1,5 km/h (1 Bft) NO 40 0 min 0,000 mm 0,0 UV-I 19 W/m 4,9 C 3,2 km/h (1 Bft)
08.10.2016 09:04 5,6 C 5,6 C 95 % 1017,9 hPa 0,0 mm 1,0 km/h (0 Bft) NO 40 0 min 0,000 mm 0,0 UV-I 21 W/m 4,9 C 1,6 km/h (1 Bft)
08.10.2016 09:05 5,6 C 5,6 C 94 % 1017,9 hPa 0,0 mm 1,7 km/h (1 Bft) NO 40 0 min 0,000 mm 0,0 UV-I 23 W/m 4,7 C 3,2 km/h (1 Bft)
08.10.2016 09:06 5,6 C 5,6 C 95 % 1017,9 hPa 0,2 mm 0,3 km/h (0 Bft) NO 40 0 min 0,000 mm 0,0 UV-I 28 W/m 4,9 C 1,6 km/h (1 Bft)
08.10.2016 09:07 5,6 C 5,6 C 95 % 1017,9 hPa 0,0 mm 1,9 km/h (1 Bft) NO 40 0 min 0,000 mm 0,0 UV-I 30 W/m 4,9 C 3,2 km/h (1 Bft)
08.10.2016 09:08 5,6 C 5,7 C 95 % 1018,0 hPa 0,0 mm 1,1 km/h (1 Bft) NO 40 0 min 0,000 mm 0,0 UV-I 32 W/m 4,9 C 1,6 km/h (1 Bft)
08.10.2016 09:09 5,6 C 5,6 C 95 % 1018,0 hPa 0,0 mm 1,1 km/h (1 Bft) NO 40 0 min 0,000 mm 0,0 UV-I 32 W/m 4,9 C 3,2 km/h (1 Bft)
08.10.2016 09:10 5,6 C 5,6 C 95 % 1018,0 hPa 0,0 mm 1,3 km/h (1 Bft) NO 40 0 min 0,000 mm 0,0 UV-I 33 W/m 4,9 C 3,2 km/h (1 Bft)
08.10.2016 09:11 5,6 C 5,6 C 95 % 1018,0 hPa 0,0 mm 0,6 km/h (0 Bft) NO 40 0 min 0,000 mm 0,0 UV-I 33 W/m 4,9 C 1,6 km/h (1 Bft)
08.10.2016 09:12 5,6 C 5,6 C 94 % 1018,0 hPa 0,2 mm 0,9 km/h (0 Bft) NO 40 0 min 0,000 mm 0,0 UV-I 33 W/m 4,7 C 3,2 km/h (1 Bft)
08.10.2016 09:13 5,6 C 5,6 C 95 % 1018,0 hPa 0,0 mm 1,7 km/h (1 Bft) NO 40 0 min 0,000 mm 0,0 UV-I 33 W/m 4,9 C 3,2 km/h (1 Bft)
08.10.2016 09:14 5,6 C 5,6 C 95 % 1018,1 hPa 0,0 mm 1,1 km/h (1 Bft) NO 40 0 min 0,000 mm 0,0 UV-I 33 W/m 4,9 C 3,2 km/h (1 Bft)
08.10.2016 09:15 5,6 C 5,6 C 95 % 1018,0 hPa 0,0 mm 1,7 km/h (1 Bft) NO 40 0 min 0,000 mm 0,0 UV-I 32 W/m 4,9 C 3,2 km/h (1 Bft)
08.10.2016 09:16 5,6 C 5,6 C 95 % 1018,0 hPa 0,0 mm 2,7 km/h (1 Bft) NO 41 0 min 0,000 mm 0,0 UV-I 28 W/m 4,9 C 4,8 km/h (1 Bft)
08.10.2016 09:17 5,6 C 5,6 C 95 % 1018,1 hPa 0,0 mm 2,6 km/h (1 Bft) N-NO 27 0 min 0,000 mm 0,0 UV-I 28 W/m 4,9 C 3,2 km/h (1 Bft)
08.10.2016 09:18 5,6 C 5,6 C 95 % 1018,0 hPa 0,0 mm 1,1 km/h (1 Bft) N-NO 27 0 min 0,000 mm 0,0 UV-I 26 W/m 4,9 C 1,6 km/h (1 Bft)
08.10.2016 09:19 5,6 C 5,6 C 95 % 1018,0 hPa 0,0 mm 0,9 km/h (0 Bft) N-NO 27 0 min 0,000 mm 0,0 UV-I 25 W/m 4,9 C 1,6 km/h (1 Bft)
08.10.2016 09:20 5,6 C 5,6 C 95 % 1018,0 hPa 0,0 mm 0,8 km/h (0 Bft) N-NO 27 0 min 0,000 mm 0,0 UV-I 25 W/m 4,9 C 1,6 km/h (1 Bft)
08.10.2016 09:21 5,6 C 5,6 C 95 % 1018,1 hPa 0,2 mm 2,1 km/h (1 Bft) N-NO 27 0 min 0,000 mm 0,0 UV-I 25 W/m 4,9 C 3,2 km/h (1 Bft)
08.10.2016 09:22 5,6 C 5,6 C 95 % 1018,1 hPa 0,0 mm 0,8 km/h (0 Bft) N-NO 27 0 min 0,000 mm 0,0 UV-I 26 W/m 4,9 C 1,6 km/h (1 Bft)
08.10.2016 09:23 5,6 C 5,6 C 95 % 1018,1 hPa 0,0 mm 1,3 km/h (1 Bft) N-NO 27 0 min 0,000 mm 0,0 UV-I 28 W/m 4,9 C 1,6 km/h (1 Bft)
08.10.2016 09:24 5,6 C 5,6 C 95 % 1018,1 hPa 0,0 mm 1,2 km/h (1 Bft) O-NO 64 0 min 0,000 mm 0,0 UV-I 30 W/m 4,9 C 3,2 km/h (1 Bft)
08.10.2016 09:25 5,5 C 5,6 C 95 % 1018,2 hPa 0,0 mm 3,1 km/h (1 Bft) O-NO 63 0 min 0,000 mm 0,0 UV-I 30 W/m 4,8 C 4,8 km/h (1 Bft)
08.10.2016 09:26 5,5 C 5,6 C 95 % 1018,1 hPa 0,0 mm 4,4 km/h (1 Bft) N-NO 18 0 min 0,000 mm 0,0 UV-I 32 W/m 4,8 C 6,4 km/h (2 Bft)
08.10.2016 09:27 5,5 C 5,5 C 95 % 1018,2 hPa 0,0 mm 2,5 km/h (1 Bft) N-NO 18 0 min 0,000 mm 0,0 UV-I 33 W/m 4,8 C 3,2 km/h (1 Bft)
08.10.2016 09:28 5,5 C 5,5 C 95 % 1018,1 hPa 0,0 mm 2,6 km/h (1 Bft) N-NO 27 0 min 0,000 mm 0,0 UV-I 32 W/m 4,8 C 3,2 km/h (1 Bft)
08.10.2016 09:29 5,4 C 5,5 C 95 % 1018,2 hPa 0,0 mm 2,8 km/h (1 Bft) N-NO 28 0 min 0,000 mm 0,0 UV-I 28 W/m 4,7 C 4,8 km/h (1 Bft)
08.10.2016 09:30 5,4 C 5,5 C 95 % 1018,2 hPa 0,0 mm 1,7 km/h (1 Bft) N-NO 28 0 min 0,000 mm 0,0 UV-I 26 W/m 4,7 C 3,2 km/h (1 Bft)
08.10.2016 09:31 5,4 C 5,5 C 95 % 1018,2 hPa 0,0 mm 1,2 km/h (1 Bft) N-NO 24 0 min 0,000 mm 0,0 UV-I 25 W/m 4,7 C 1,6 km/h (1 Bft)
08.10.2016 09:32 5,5 C 5,5 C 95 % 1018,2 hPa 0,0 mm 2,5 km/h (1 Bft) N-NO 24 0 min 0,000 mm 0,0 UV-I 23 W/m 4,8 C 3,2 km/h (1 Bft)
08.10.2016 09:33 5,5 C 5,5 C 95 % 1018,3 hPa 0,0 mm 1,7 km/h (1 Bft) N-NO 26 0 min 0,000 mm 0,0 UV-I 23 W/m 4,8 C 3,2 km/h (1 Bft)
08.10.2016 09:34 5,5 C 5,5 C 95 % 1018,2 hPa 0,0 mm 0,5 km/h (0 Bft) N-NO 26 0 min 0,000 mm 0,0 UV-I 19 W/m 4,8 C 1,6 km/h (1 Bft)
08.10.2016 09:35 5,5 C 5,5 C 95 % 1018,3 hPa 0,0 mm 0,6 km/h (0 Bft) N-NO 26 0 min 0,000 mm 0,0 UV-I 18 W/m 4,8 C 3,2 km/h (1 Bft)
08.10.2016 09:36 5,5 C 5,5 C 95 % 1018,3 hPa 0,0 mm 1,9 km/h (1 Bft) N-NO 26 0 min 0,000 mm 0,0 UV-I 16 W/m 4,8 C 3,2 km/h (1 Bft)
08.10.2016 09:37 5,5 C 5,5 C 95 % 1018,3 hPa 0,0 mm 1,7 km/h (1 Bft) N 9 0 min 0,000 mm 0,0 UV-I 16 W/m 4,8 C 3,2 km/h (1 Bft)
08.10.2016 09:38 5,5 C 5,6 C 95 % 1018,3 hPa 0,0 mm 2,5 km/h (1 Bft) N 355 0 min 0,000 mm 0,0 UV-I 14 W/m 4,8 C 3,2 km/h (1 Bft)
08.10.2016 09:39 5,6 C 5,6 C 95 % 1018,2 hPa 0,0 mm 1,3 km/h (1 Bft) N 355 0 min 0,000 mm 0,0 UV-I 14 W/m 4,9 C 3,2 km/h (1 Bft)
08.10.2016 09:40 5,6 C 5,6 C 95 % 1018,3 hPa 0,0 mm 3,7 km/h (1 Bft) N-NW 347 0 min 0,000 mm 0,0 UV-I 16 W/m 4,9 C 4,8 km/h (1 Bft)
08.10.2016 09:41 5,5 C 5,6 C 95 % 1018,3 hPa 0,2 mm 3,8 km/h (1 Bft) N-NW 335 0 min 0,000 mm 0,0 UV-I 16 W/m 4,8 C 4,8 km/h (1 Bft)
08.10.2016 09:42 5,5 C 5,5 C 95 % 1018,3 hPa 0,0 mm 2,7 km/h (1 Bft) N 360 0 min 0,000 mm 0,0 UV-I 14 W/m 4,8 C 4,8 km/h (1 Bft)
08.10.2016 09:43 5,5 C 5,5 C 95 % 1018,3 hPa 0,0 mm 3,9 km/h (1 Bft) N 349 0 min 0,000 mm 0,0 UV-I 14 W/m 4,8 C 4,8 km/h (1 Bft)
08.10.2016 09:44 5,4 C 5,5 C 95 % 1018,3 hPa 0,0 mm 4,2 km/h (1 Bft) NW 320 0 min 0,000 mm 0,0 UV-I 16 W/m 4,7 C 4,8 km/h (1 Bft)
08.10.2016 09:45 5,4 C 5,4 C 95 % 1018,4 hPa 0,0 mm 2,9 km/h (1 Bft) NW 321 0 min 0,000 mm 0,0 UV-I 19 W/m 4,7 C 4,8 km/h (1 Bft)
08.10.2016 09:46 5,4 C 5,4 C 95 % 1018,3 hPa 0,0 mm 4,0 km/h (1 Bft) N-NW 345 0 min 0,000 mm 0,0 UV-I 21 W/m 4,7 C 4,8 km/h (1 Bft)
08.10.2016 09:47 5,4 C 5,4 C 95 % 1018,3 hPa 0,0 mm 2,9 km/h (1 Bft) N-NW 338 0 min 0,000 mm 0,0 UV-I 23 W/m 4,7 C 4,8 km/h (1 Bft)
08.10.2016 09:48 5,4 C 5,4 C 95 % 1018,3 hPa 0,0 mm 2,3 km/h (1 Bft) N-NW 338 0 min 0,000 mm 0,0 UV-I 25 W/m 4,7 C 3,2 km/h (1 Bft)
08.10.2016 09:49 5,3 C 5,4 C 95 % 1018,4 hPa 0,0 mm 3,7 km/h (1 Bft) N-NW 344 0 min 0,000 mm 0,0 UV-I 25 W/m 4,6 C 4,8 km/h (1 Bft)
08.10.2016 09:50 5,3 C 5,3 C 95 % 1018,4 hPa 0,0 mm 2,8 km/h (1 Bft) N-NW 344 0 min 0,000 mm 0,0 UV-I 25 W/m 4,6 C 4,8 km/h (1 Bft)
08.10.2016 09:51 5,4 C 5,4 C 95 % 1018,5 hPa 0,0 mm 3,2 km/h (1 Bft) N-NW 340 0 min 0,000 mm 0,0 UV-I 25 W/m 4,7 C 4,8 km/h (1 Bft)
08.10.2016 09:52 5,3 C 5,4 C 95 % 1018,4 hPa 0,0 mm 2,0 km/h (1 Bft) N-NW 340 0 min 0,000 mm 0,0 UV-I 23 W/m 4,6 C 3,2 km/h (1 Bft)
08.10.2016 09:53 5,3 C 5,3 C 95 % 1018,5 hPa 0,0 mm 3,9 km/h (1 Bft) N 5 0 min 0,000 mm 0,0 UV-I 25 W/m 4,6 C 6,4 km/h (2 Bft)
08.10.2016 09:54 5,3 C 5,3 C 95 % 1018,5 hPa 0,0 mm 5,8 km/h (2 Bft) N 355 0 min 0,000 mm 0,0 UV-I 26 W/m 4,6 C 6,4 km/h (2 Bft)
08.10.2016 09:55 5,3 C 5,3 C 95 % 1018,5 hPa 0,0 mm 3,7 km/h (1 Bft) N 360 0 min 0,000 mm 0,0 UV-I 26 W/m 4,6 C 6,4 km/h (2 Bft)
08.10.2016 09:56 5,2 C 5,3 C 95 % 1018,5 hPa 0,0 mm 1,3 km/h (1 Bft) N 355 0 min 0,000 mm 0,0 UV-I 26 W/m 4,5 C 3,2 km/h (1 Bft)
08.10.2016 09:57 5,2 C 5,2 C 95 % 1018,5 hPa 0,0 mm 4,1 km/h (1 Bft) N-NO 28 0 min 0,000 mm 0,0 UV-I 28 W/m 4,5 C 6,4 km/h (2 Bft)
08.10.2016 09:58 5,2 C 5,2 C 95 % 1018,5 hPa 0,0 mm 2,0 km/h (1 Bft) N-NO 27 0 min 0,000 mm 0,0 UV-I 28 W/m 4,5 C 4,8 km/h (1 Bft)
08.10.2016 09:59 5,2 C 5,2 C 95 % 1018,5 hPa 0,0 mm 1,1 km/h (1 Bft) N-NO 27 0 min 0,000 mm 0,0 UV-I 28 W/m 4,5 C 3,2 km/h (1 Bft)
08.10.2016 10:00 5,2 C 5,2 C 95 % 1018,5 hPa 0,0 mm 2,2 km/h (1 Bft) N 355 0 min 0,000 mm 0,0 UV-I 30 W/m 4,5 C 4,8 km/h (1 Bft)
08.10.2016 10:01 5,2 C 5,2 C 95 % 1018,5 hPa 0,2 mm 2,3 km/h (1 Bft) N 355 0 min 0,000 mm 0,0 UV-I 32 W/m 4,5 C 4,8 km/h (1 Bft)
08.10.2016 10:02 5,3 C 5,3 C 95 % 1018,6 hPa 0,0 mm 3,6 km/h (1 Bft) N-NW 346 0 min 0,000 mm 0,0 UV-I 33 W/m 4,6 C 4,8 km/h (1 Bft)
08.10.2016 10:03 5,3 C 5,3 C 95 % 1018,6 hPa 0,0 mm 2,4 km/h (1 Bft) N-NW 346 0 min 0,000 mm 0,0 UV-I 39 W/m 4,6 C 3,2 km/h (1 Bft)
08.10.2016 10:04 5,3 C 5,3 C 95 % 1018,6 hPa 0,0 mm 2,0 km/h (1 Bft) N-NW 348 0 min 0,000 mm 0,0 UV-I 40 W/m 4,6 C 3,2 km/h (1 Bft)
08.10.2016 10:05 5,2 C 5,3 C 95 % 1018,6 hPa 0,0 mm 0,8 km/h (0 Bft) N-NO 28 0 min 0,000 mm 0,0 UV-I 42 W/m 4,5 C 3,2 km/h (1 Bft)
08.10.2016 10:06 5,2 C 5,2 C 95 % 1018,6 hPa 0,0 mm 3,0 km/h (1 Bft) N-NO 27 0 min 0,000 mm 0,0 UV-I 42 W/m 4,5 C 4,8 km/h (1 Bft)
08.10.2016 10:07 5,2 C 5,2 C 95 % 1018,6 hPa 0,0 mm 3,5 km/h (1 Bft) N-NO 30 0 min 0,000 mm 0,0 UV-I 44 W/m 4,5 C 4,8 km/h (1 Bft)
08.10.2016 10:08 5,2 C 5,2 C 95 % 1018,6 hPa 0,0 mm 3,4 km/h (1 Bft) N 355 0 min 0,000 mm 0,0 UV-I 47 W/m 4,5 C 4,8 km/h (1 Bft)
08.10.2016 10:09 5,2 C 5,2 C 95 % 1018,6 hPa 0,0 mm 2,6 km/h (1 Bft) N 5 0 min 0,000 mm 0,0 UV-I 47 W/m 4,5 C 4,8 km/h (1 Bft)
08.10.2016 10:10 5,2 C 5,2 C 95 % 1018,6 hPa 0,0 mm 4,1 km/h (1 Bft) N 5 0 min 0,000 mm 0,0 UV-I 47 W/m 4,5 C 4,8 km/h (1 Bft)
08.10.2016 10:11 5,2 C 5,2 C 94 % 1018,7 hPa 0,0 mm 2,9 km/h (1 Bft) N-NO 17 0 min 0,000 mm 0,0 UV-I 51 W/m 4,3 C 4,8 km/h (1 Bft)
08.10.2016 10:12 5,2 C 5,2 C 94 % 1018,6 hPa 0,0 mm 2,9 km/h (1 Bft) NO 42 0 min 0,000 mm 0,0 UV-I 53 W/m 4,3 C 4,8 km/h (1 Bft)
08.10.2016 10:13 5,2 C 5,2 C 94 % 1018,6 hPa 0,0 mm 0,9 km/h (0 Bft) NO 42 0 min 0,000 mm 0,0 UV-I 54 W/m 4,3 C 1,6 km/h (1 Bft)
08.10.2016 10:14 5,2 C 5,2 C 94 % 1018,7 hPa 0,0 mm 2,3 km/h (1 Bft) NO 46 0 min 0,000 mm 0,0 UV-I 54 W/m 4,3 C 4,8 km/h (1 Bft)
08.10.2016 10:15 5,2 C 5,2 C 94 % 1018,6 hPa 0,0 mm 1,7 km/h (1 Bft) NO 46 0 min 0,000 mm 0,0 UV-I 54 W/m 4,3 C 3,2 km/h (1 Bft)
08.10.2016 10:16 5,2 C 5,2 C 94 % 1018,6 hPa 0,0 mm 0,7 km/h (0 Bft) NO 46 0 min 0,000 mm 0,0 UV-I 56 W/m 4,3 C 1,6 km/h (1 Bft)
08.10.2016 10:17 5,2 C 5,2 C 94 % 1018,7 hPa 0,0 mm 1,4 km/h (1 Bft) N-NO 24 0 min 0,000 mm 0,0 UV-I 58 W/m 4,3 C 3,2 km/h (1 Bft)
08.10.2016 10:18 5,2 C 5,2 C 94 % 1018,7 hPa 0,0 mm 3,2 km/h (1 Bft) N 10 0 min 0,000 mm 0,0 UV-I 58 W/m 4,3 C 4,8 km/h (1 Bft)
08.10.2016 10:19 5,2 C 5,2 C 94 % 1018,7 hPa 0,0 mm 1,6 km/h (1 Bft) N 355 0 min 0,000 mm 0,0 UV-I 60 W/m 4,3 C 3,2 km/h (1 Bft)
08.10.2016 10:20 5,2 C 5,2 C 94 % 1018,7 hPa 0,0 mm 1,7 km/h (1 Bft) N 355 0 min 0,000 mm 0,0 UV-I 60 W/m 4,3 C 3,2 km/h (1 Bft)
08.10.2016 10:21 5,2 C 5,2 C 94 % 1018,7 hPa 0,0 mm 3,3 km/h (1 Bft) N 355 0 min 0,000 mm 0,0 UV-I 58 W/m 4,3 C 4,8 km/h (1 Bft)
08.10.2016 10:22 5,2 C 5,2 C 94 % 1018,7 hPa 0,0 mm 2,1 km/h (1 Bft) N 355 0 min 0,000 mm 0,0 UV-I 56 W/m 4,3 C 3,2 km/h (1 Bft)
08.10.2016 10:23 5,2 C 5,2 C 94 % 1018,7 hPa 0,0 mm 3,8 km/h (1 Bft) N 360 0 min 0,000 mm 0,0 UV-I 53 W/m 4,3 C 4,8 km/h (1 Bft)
08.10.2016 10:24 5,2 C 5,3 C 94 % 1018,7 hPa 0,0 mm 3,4 km/h (1 Bft) N 360 0 min 0,000 mm 0,0 UV-I 53 W/m 4,3 C 4,8 km/h (1 Bft)
08.10.2016 10:25 5,3 C 5,3 C 94 % 1018,7 hPa 0,0 mm 3,0 km/h (1 Bft) N 360 0 min 0,000 mm 0,0 UV-I 53 W/m 4,4 C 4,8 km/h (1 Bft)
08.10.2016 10:26 5,2 C 5,3 C 94 % 1018,7 hPa 0,0 mm 2,3 km/h (1 Bft) N 360 0 min 0,000 mm 0,0 UV-I 53 W/m 4,3 C 3,2 km/h (1 Bft)
08.10.2016 10:27 5,2 C 5,2 C 94 % 1018,7 hPa 0,0 mm 1,5 km/h (1 Bft) N 360 0 min 0,000 mm 0,0 UV-I 53 W/m 4,3 C 3,2 km/h (1 Bft)
08.10.2016 10:28 5,3 C 5,3 C 94 % 1018,7 hPa 0,0 mm 1,0 km/h (0 Bft) N 360 0 min 0,000 mm 0,0 UV-I 53 W/m 4,4 C 3,2 km/h (1 Bft)
08.10.2016 10:29 5,3 C 5,3 C 94 % 1018,7 hPa 0,0 mm 1,1 km/h (1 Bft) N 360 0 min 0,000 mm 0,0 UV-I 51 W/m 4,4 C 1,6 km/h (1 Bft)
08.10.2016 10:30 5,3 C 5,3 C 94 % 1018,7 hPa 0,0 mm 1,5 km/h (1 Bft) N 360 0 min 0,000 mm 0,0 UV-I 51 W/m 4,4 C 3,2 km/h (1 Bft)
08.10.2016 10:31 5,3 C 5,3 C 94 % 1018,7 hPa 0,0 mm 2,3 km/h (1 Bft) N 360 0 min 0,000 mm 0,0 UV-I 51 W/m 4,4 C 3,2 km/h (1 Bft)
08.10.2016 10:32 5,3 C 5,3 C 94 % 1018,7 hPa 0,0 mm 0,4 km/h (0 Bft) N 360 0 min 0,000 mm 0,0 UV-I 53 W/m 4,4 C 1,6 km/h (1 Bft)
08.10.2016 10:33 5,3 C 5,3 C 94 % 1018,7 hPa 0,0 mm 0,1 km/h (0 Bft) N 360 0 min 0,000 mm 0,0 UV-I 53 W/m 4,4 C 1,6 km/h (1 Bft)
08.10.2016 10:34 5,3 C 5,3 C 94 % 1018,8 hPa 0,0 mm 1,3 km/h (1 Bft) N 360 0 min 0,000 mm 0,0 UV-I 53 W/m 4,4 C 1,6 km/h (1 Bft)
08.10.2016 10:35 5,3 C 5,3 C 93 % 1018,8 hPa 0,0 mm 2,1 km/h (1 Bft) N 5 0 min 0,000 mm 0,0 UV-I 49 W/m 4,3 C 3,2 km/h (1 Bft)
08.10.2016 10:36 5,3 C 5,3 C 93 % 1018,7 hPa 0,0 mm 1,0 km/h (0 Bft) N 5 0 min 0,000 mm 0,0 UV-I 47 W/m 4,3 C 1,6 km/h (1 Bft)
08.10.2016 10:37 5,3 C 5,3 C 93 % 1018,8 hPa 0,0 mm 0,7 km/h (0 Bft) N 5 0 min 0,000 mm 0,0 UV-I 46 W/m 4,3 C 1,6 km/h (1 Bft)
08.10.2016 10:38 5,2 C 5,3 C 93 % 1018,8 hPa 0,0 mm 0,6 km/h (0 Bft) N 5 0 min 0,000 mm 0,0 UV-I 42 W/m 4,2 C 1,6 km/h (1 Bft)
08.10.2016 10:39 5,3 C 5,3 C 93 % 1018,8 hPa 0,0 mm 0,7 km/h (0 Bft) N 5 0 min 0,000 mm 0,0 UV-I 42 W/m 4,3 C 1,6 km/h (1 Bft)
08.10.2016 10:40 5,3 C 5,3 C 93 % 1018,8 hPa 0,0 mm 1,4 km/h (1 Bft) N 5 0 min 0,000 mm 0,0 UV-I 44 W/m 4,3 C 3,2 km/h (1 Bft)
08.10.2016 10:41 5,3 C 5,3 C 94 % 1018,8 hPa 0,0 mm 2,1 km/h (1 Bft) N 5 0 min 0,000 mm 0,0 UV-I 44 W/m 4,4 C 3,2 km/h (1 Bft)
08.10.2016 10:42 5,3 C 5,3 C 94 % 1018,8 hPa 0,0 mm 3,7 km/h (1 Bft) N 355 0 min 0,000 mm 0,0 UV-I 44 W/m 4,4 C 4,8 km/h (1 Bft)
08.10.2016 10:43 5,3 C 5,3 C 94 % 1018,8 hPa 0,0 mm 3,7 km/h (1 Bft) N 355 0 min 0,000 mm 0,0 UV-I 44 W/m 4,4 C 4,8 km/h (1 Bft)
08.10.2016 10:44 5,3 C 5,3 C 93 % 1018,8 hPa 0,0 mm 2,1 km/h (1 Bft) N 355 0 min 0,000 mm 0,0 UV-I 40 W/m 4,3 C 3,2 km/h (1 Bft)
08.10.2016 10:45 5,3 C 5,3 C 93 % 1018,8 hPa 0,0 mm 2,0 km/h (1 Bft) N 355 0 min 0,000 mm 0,0 UV-I 40 W/m 4,3 C 3,2 km/h (1 Bft)
08.10.2016 10:46 5,3 C 5,3 C 93 % 1018,8 hPa 0,0 mm 1,4 km/h (1 Bft) N 355 0 min 0,000 mm 0,0 UV-I 42 W/m 4,3 C 3,2 km/h (1 Bft)
08.10.2016 10:47 5,3 C 5,3 C 94 % 1018,8 hPa 0,0 mm 1,9 km/h (1 Bft) N 355 0 min 0,000 mm 0,0 UV-I 42 W/m 4,4 C 3,2 km/h (1 Bft)
08.10.2016 10:48 5,3 C 5,3 C 94 % 1018,8 hPa 0,0 mm 2,7 km/h (1 Bft) N 355 0 min 0,000 mm 0,0 UV-I 44 W/m 4,4 C 3,2 km/h (1 Bft)
08.10.2016 10:49 5,3 C 5,3 C 94 % 1018,8 hPa 0,0 mm 1,3 km/h (1 Bft) N 355 0 min 0,000 mm 0,0 UV-I 42 W/m 4,4 C 3,2 km/h (1 Bft)
08.10.2016 10:50 5,3 C 5,3 C 93 % 1018,8 hPa 0,0 mm 1,1 km/h (1 Bft) N 355 0 min 0,000 mm 0,0 UV-I 42 W/m 4,3 C 1,6 km/h (1 Bft)
08.10.2016 10:51 5,3 C 5,3 C 93 % 1018,8 hPa 0,0 mm 2,3 km/h (1 Bft) N 355 0 min 0,000 mm 0,0 UV-I 42 W/m 4,3 C 3,2 km/h (1 Bft)
08.10.2016 10:52 5,3 C 5,3 C 93 % 1018,8 hPa 0,0 mm 1,5 km/h (1 Bft) N 355 0 min 0,000 mm 0,0 UV-I 44 W/m 4,3 C 3,2 km/h (1 Bft)
08.10.2016 10:53 5,3 C 5,3 C 93 % 1018,9 hPa 0,0 mm 0,3 km/h (0 Bft) N 355 0 min 0,000 mm 0,0 UV-I 44 W/m 4,3 C 1,6 km/h (1 Bft)
08.10.2016 10:54 5,3 C 5,3 C 92 % 1018,9 hPa 0,0 mm 3,8 km/h (1 Bft) O-NO 59 0 min 0,000 mm 0,0 UV-I 46 W/m 4,1 C 6,4 km/h (2 Bft)
08.10.2016 10:55 5,2 C 5,3 C 92 % 1018,9 hPa 0,0 mm 2,4 km/h (1 Bft) O-NO 59 0 min 0,000 mm 0,0 UV-I 47 W/m 4,0 C 3,2 km/h (1 Bft)
08.10.2016 10:56 5,2 C 5,2 C 92 % 1018,9 hPa 0,0 mm 1,8 km/h (1 Bft) N 9 0 min 0,000 mm 0,0 UV-I 47 W/m 4,0 C 4,8 km/h (1 Bft)
08.10.2016 10:57 5,2 C 5,2 C 92 % 1018,9 hPa 0,0 mm 3,0 km/h (1 Bft) N-NO 33 0 min 0,000 mm 0,0 UV-I 49 W/m 4,0 C 4,8 km/h (1 Bft)
08.10.2016 10:58 5,2 C 5,2 C 92 % 1018,9 hPa 0,0 mm 2,5 km/h (1 Bft) N-NO 32 0 min 0,000 mm 0,0 UV-I 49 W/m 4,0 C 4,8 km/h (1 Bft)
08.10.2016 10:59 5,2 C 5,2 C 92 % 1019,0 hPa 0,0 mm 2,3 km/h (1 Bft) N-NO 32 0 min 0,000 mm 0,0 UV-I 49 W/m 4,0 C 3,2 km/h (1 Bft)
08.10.2016 11:00 5,2 C 5,2 C 92 % 1019,0 hPa 0,0 mm 3,3 km/h (1 Bft) N 11 0 min 0,000 mm 0,0 UV-I 51 W/m 4,0 C 4,8 km/h (1 Bft)
08.10.2016 11:01 5,2 C 5,2 C 92 % 1019,0 hPa 0,0 mm 3,1 km/h (1 Bft) N-NO 25 0 min 0,025 mm 0,0 UV-I 53 W/m 4,0 C 4,8 km/h (1 Bft)
08.10.2016 11:02 5,2 C 5,2 C 92 % 1019,0 hPa 0,0 mm 2,0 km/h (1 Bft) N-NO 25 0 min 0,000 mm 0,0 UV-I 53 W/m 4,0 C 3,2 km/h (1 Bft)
08.10.2016 11:03 5,2 C 5,2 C 92 % 1019,0 hPa 0,0 mm 1,4 km/h (1 Bft) N-NO 25 0 min 0,000 mm 0,0 UV-I 54 W/m 4,0 C 3,2 km/h (1 Bft)
08.10.2016 11:04 5,1 C 5,2 C 93 % 1019,0 hPa 0,0 mm 0,1 km/h (0 Bft) N-NO 25 0 min 0,000 mm 0,0 UV-I 54 W/m 4,1 C 1,6 km/h (1 Bft)
08.10.2016 11:05 5,1 C 5,1 C 92 % 1019,0 hPa 0,0 mm 1,5 km/h (1 Bft) NO 38 0 min 0,000 mm 0,0 UV-I 56 W/m 3,9 C 3,2 km/h (1 Bft)
08.10.2016 11:06 5,1 C 5,1 C 92 % 1019,0 hPa 0,0 mm 3,2 km/h (1 Bft) O 80 0 min 0,000 mm 0,0 UV-I 58 W/m 3,9 C 4,8 km/h (1 Bft)
08.10.2016 11:07 5,1 C 5,1 C 92 % 1019,0 hPa 0,0 mm 3,1 km/h (1 Bft) O 79 0 min 0,000 mm 0,0 UV-I 56 W/m 3,9 C 4,8 km/h (1 Bft)
08.10.2016 11:08 5,1 C 5,1 C 92 % 1019,0 hPa 0,0 mm 3,2 km/h (1 Bft) NO 54 0 min 0,000 mm 0,0 UV-I 53 W/m 3,9 C 4,8 km/h (1 Bft)
08.10.2016 11:09 5,1 C 5,1 C 92 % 1019,0 hPa 0,0 mm 2,5 km/h (1 Bft) NO 43 0 min 0,000 mm 0,0 UV-I 51 W/m 3,9 C 4,8 km/h (1 Bft)
08.10.2016 11:10 5,0 C 5,1 C 91 % 1019,0 hPa 0,0 mm 1,7 km/h (1 Bft) O 88 0 min 0,000 mm 0,0 UV-I 51 W/m 3,7 C 3,2 km/h (1 Bft)
08.10.2016 11:11 5,0 C 5,1 C 92 % 1019,0 hPa 0,0 mm 3,3 km/h (1 Bft) O-NO 67 0 min 0,000 mm 0,0 UV-I 53 W/m 3,8 C 4,8 km/h (1 Bft)
08.10.2016 11:12 5,1 C 5,1 C 92 % 1019,0 hPa 0,0 mm 1,0 km/h (0 Bft) O-NO 67 0 min 0,000 mm 0,0 UV-I 56 W/m 3,9 C 1,6 km/h (1 Bft)
08.10.2016 11:13 5,0 C 5,1 C 92 % 1019,0 hPa 0,0 mm 0,7 km/h (0 Bft) O-NO 67 0 min 0,000 mm 0,0 UV-I 58 W/m 3,8 C 1,6 km/h (1 Bft)
08.10.2016 11:14 4,9 C 5,0 C 91 % 1019,1 hPa 0,0 mm 1,5 km/h (1 Bft) O-NO 67 0 min 0,000 mm 0,5 UV-I 60 W/m 3,6 C 3,2 km/h (1 Bft)
08.10.2016 11:15 4,9 C 5,0 C 92 % 1019,1 hPa 0,0 mm 1,7 km/h (1 Bft) O-NO 67 0 min 0,000 mm 0,5 UV-I 63 W/m 3,7 C 3,2 km/h (1 Bft)
08.10.2016 11:16 4,9 C 5,0 C 92 % 1019,1 hPa 0,0 mm 1,5 km/h (1 Bft) O-NO 67 0 min 0,000 mm 0,5 UV-I 63 W/m 3,7 C 3,2 km/h (1 Bft)
08.10.2016 11:17 4,9 C 5,0 C 93 % 1019,1 hPa 0,0 mm 1,9 km/h (1 Bft) O-NO 67 0 min 0,000 mm 0,5 UV-I 69 W/m 3,9 C 3,2 km/h (1 Bft)
08.10.2016 11:18 4,9 C 4,9 C 93 % 1019,1 hPa 0,0 mm 2,0 km/h (1 Bft) O-NO 67 0 min 0,000 mm 0,5 UV-I 70 W/m 3,9 C 3,2 km/h (1 Bft)
08.10.2016 11:19 4,9 C 4,9 C 93 % 1019,1 hPa 0,0 mm 1,7 km/h (1 Bft) O-NO 67 0 min 0,000 mm 0,5 UV-I 67 W/m 3,9 C 3,2 km/h (1 Bft)
08.10.2016 11:20 4,9 C 4,9 C 92 % 1019,1 hPa 0,0 mm 0,9 km/h (0 Bft) O-NO 67 0 min 0,000 mm 0,5 UV-I 67 W/m 3,7 C 1,6 km/h (1 Bft)
08.10.2016 11:21 4,8 C 4,9 C 92 % 1019,1 hPa 0,0 mm 1,7 km/h (1 Bft) O-NO 67 0 min 0,000 mm 0,5 UV-I 65 W/m 3,6 C 3,2 km/h (1 Bft)
08.10.2016 11:22 4,9 C 4,9 C 92 % 1019,0 hPa 0,0 mm 1,0 km/h (0 Bft) O-NO 67 0 min 0,000 mm 0,5 UV-I 65 W/m 3,7 C 1,6 km/h (1 Bft)
08.10.2016 11:23 4,9 C 4,9 C 92 % 1019,1 hPa 0,0 mm 0,1 km/h (0 Bft) O-NO 67 0 min 0,000 mm 0,5 UV-I 63 W/m 3,7 C 1,6 km/h (1 Bft)
08.10.2016 11:24 4,8 C 4,9 C 92 % 1019,1 hPa 0,0 mm 0,1 km/h (0 Bft) O-NO 67 0 min 0,000 mm 0,5 UV-I 62 W/m 3,6 C 1,6 km/h (1 Bft)
08.10.2016 11:25 4,9 C 4,9 C 92 % 1019,1 hPa 0,0 mm 0,0 km/h (0 Bft) O-NO 67 0 min 0,000 mm 0,0 UV-I 54 W/m 3,7 C 0,0 km/h (0 Bft)
08.10.2016 11:26 4,9 C 4,9 C 93 % 1019,1 hPa 0,0 mm 0,0 km/h (0 Bft) O-NO 67 0 min 0,000 mm 0,0 UV-I 53 W/m 3,9 C 0,0 km/h (0 Bft)
08.10.2016 11:27 4,9 C 4,9 C 93 % 1019,1 hPa 0,0 mm 0,0 km/h (0 Bft) O-NO 67 0 min 0,000 mm 0,0 UV-I 53 W/m 3,9 C 0,0 km/h (0 Bft)
08.10.2016 11:28 4,9 C 4,9 C 93 % 1019,1 hPa 0,0 mm 0,0 km/h (0 Bft) O-NO 67 0 min 0,000 mm 0,0 UV-I 53 W/m 3,9 C 0,0 km/h (0 Bft)
08.10.2016 11:29 4,9 C 4,9 C 93 % 1019,1 hPa 0,0 mm 0,9 km/h (0 Bft) O-NO 67 0 min 0,000 mm 0,0 UV-I 54 W/m 3,9 C 1,6 km/h (1 Bft)
08.10.2016 11:30 4,9 C 4,9 C 93 % 1019,1 hPa 0,0 mm 1,8 km/h (1 Bft) O-NO 67 0 min 0,000 mm 0,0 UV-I 56 W/m 3,9 C 3,2 km/h (1 Bft)
08.10.2016 11:31 4,9 C 4,9 C 93 % 1019,1 hPa 0,0 mm 1,9 km/h (1 Bft) O-NO 67 0 min 0,000 mm 0,0 UV-I 56 W/m 3,9 C 3,2 km/h (1 Bft)
08.10.2016 11:32 4,9 C 4,9 C 93 % 1019,1 hPa 0,0 mm 0,8 km/h (0 Bft) O-NO 67 0 min 0,000 mm 0,0 UV-I 56 W/m 3,9 C 1,6 km/h (1 Bft)
08.10.2016 11:33 4,9 C 4,9 C 93 % 1019,2 hPa 0,0 mm 0,0 km/h (0 Bft) O-NO 67 0 min 0,000 mm 0,0 UV-I 56 W/m 3,9 C 0,0 km/h (0 Bft)
08.10.2016 11:34 4,9 C 4,9 C 93 % 1019,2 hPa 0,2 mm 0,0 km/h (0 Bft) O-NO 67 0 min 0,000 mm 0,0 UV-I 56 W/m 3,9 C 0,0 km/h (0 Bft)
08.10.2016 11:35 4,9 C 4,9 C 93 % 1019,1 hPa 0,0 mm 0,1 km/h (0 Bft) O-NO 67 0 min 0,000 mm 0,0 UV-I 56 W/m 3,9 C 1,6 km/h (1 Bft)
08.10.2016 11:36 4,9 C 4,9 C 93 % 1019,2 hPa 0,0 mm 0,0 km/h (0 Bft) O-NO 67 0 min 0,000 mm 0,0 UV-I 54 W/m 3,9 C 0,0 km/h (0 Bft)
08.10.2016 11:37 4,9 C 5,0 C 94 % 1019,1 hPa 0,0 mm 0,0 km/h (0 Bft) O-NO 67 0 min 0,000 mm 0,0 UV-I 54 W/m 4,0 C 0,0 km/h (0 Bft)
08.10.2016 11:38 4,9 C 5,0 C 93 % 1019,1 hPa 0,0 mm 0,1 km/h (0 Bft) O-NO 67 0 min 0,000 mm 0,0 UV-I 56 W/m 3,9 C 1,6 km/h (1 Bft)
08.10.2016 11:39 5,0 C 5,0 C 93 % 1019,2 hPa 0,0 mm 0,0 km/h (0 Bft) O-NO 67 0 min 0,000 mm 0,0 UV-I 58 W/m 4,0 C 0,0 km/h (0 Bft)
08.10.2016 11:40 5,0 C 5,0 C 93 % 1019,2 hPa 0,0 mm 0,0 km/h (0 Bft) O-NO 67 0 min 0,000 mm 0,5 UV-I 62 W/m 4,0 C 0,0 km/h (0 Bft)
08.10.2016 11:41 5,0 C 5,0 C 93 % 1019,2 hPa 0,0 mm 0,0 km/h (0 Bft) O-NO 67 0 min 0,000 mm 0,5 UV-I 63 W/m 4,0 C 0,0 km/h (0 Bft)
08.10.2016 11:42 4,9 C 5,0 C 93 % 1019,2 hPa 0,0 mm 0,9 km/h (0 Bft) O-NO 67 0 min 0,000 mm 0,5 UV-I 69 W/m 3,9 C 1,6 km/h (1 Bft)
08.10.2016 11:43 4,9 C 4,9 C 93 % 1019,2 hPa 0,0 mm 0,9 km/h (0 Bft) O-NO 67 0 min 0,000 mm 0,5 UV-I 69 W/m 3,9 C 1,6 km/h (1 Bft)
08.10.2016 11:44 4,9 C 5,0 C 93 % 1019,2 hPa 0,0 mm 0,0 km/h (0 Bft) O-NO 67 0 min 0,000 mm 0,5 UV-I 67 W/m 3,9 C 0,0 km/h (0 Bft)
08.10.2016 11:45 5,0 C 5,1 C 93 % 1019,2 hPa 0,0 mm 0,0 km/h (0 Bft) O-NO 67 0 min 0,000 mm 0,5 UV-I 65 W/m 4,0 C 0,0 km/h (0 Bft)
08.10.2016 11:46 5,1 C 5,1 C 93 % 1019,2 hPa 0,0 mm 0,1 km/h (0 Bft) O-NO 67 0 min 0,000 mm 0,5 UV-I 63 W/m 4,1 C 1,6 km/h (1 Bft)
08.10.2016 11:47 5,1 C 5,1 C 93 % 1019,2 hPa 0,0 mm 0,0 km/h (0 Bft) O-NO 67 0 min 0,000 mm 0,5 UV-I 62 W/m 4,1 C 0,0 km/h (0 Bft)
08.10.2016 11:48 5,0 C 5,1 C 93 % 1019,3 hPa 0,0 mm 0,0 km/h (0 Bft) O-NO 67 0 min 0,000 mm 0,5 UV-I 63 W/m 4,0 C 0,0 km/h (0 Bft)
08.10.2016 11:49 5,1 C 5,1 C 93 % 1019,3 hPa 0,0 mm 0,0 km/h (0 Bft) O-NO 67 0 min 0,000 mm 0,5 UV-I 69 W/m 4,1 C 0,0 km/h (0 Bft)
08.10.2016 11:50 5,1 C 5,1 C 93 % 1019,3 hPa 0,0 mm 0,0 km/h (0 Bft) O-NO 67 0 min 0,000 mm 0,6 UV-I 76 W/m 4,1 C 0,0 km/h (0 Bft)
08.10.2016 11:51 5,1 C 5,1 C 93 % 1019,2 hPa 0,0 mm 0,1 km/h (0 Bft) O-NO 67 0 min 0,000 mm 0,6 UV-I 83 W/m 4,1 C 1,6 km/h (1 Bft)
08.10.2016 11:52 5,1 C 5,1 C 93 % 1019,3 hPa 0,0 mm 0,2 km/h (0 Bft) O-NO 67 0 min 0,000 mm 0,7 UV-I 88 W/m 4,1 C 1,6 km/h (1 Bft)
08.10.2016 11:53 5,0 C 5,1 C 93 % 1019,3 hPa 0,0 mm 0,6 km/h (0 Bft) O-NO 67 0 min 0,000 mm 0,7 UV-I 90 W/m 4,0 C 1,6 km/h (1 Bft)
08.10.2016 11:54 5,1 C 5,1 C 93 % 1019,3 hPa 0,0 mm 0,2 km/h (0 Bft) O-NO 67 0 min 0,000 mm 0,7 UV-I 95 W/m 4,1 C 1,6 km/h (1 Bft)
08.10.2016 11:55 5,1 C 5,1 C 93 % 1019,3 hPa 0,0 mm 0,0 km/h (0 Bft) O-NO 67 0 min 0,000 mm 0,7 UV-I 97 W/m 4,1 C 0,0 km/h (0 Bft)
08.10.2016 11:56 5,1 C 5,1 C 93 % 1019,3 hPa 0,0 mm 0,0 km/h (0 Bft) O-NO 67 0 min 0,000 mm 0,8 UV-I 100 W/m 4,1 C 0,0 km/h (0 Bft)
08.10.2016 11:57 5,1 C 5,1 C 94 % 1019,3 hPa 0,0 mm 0,0 km/h (0 Bft) O-NO 67 0 min 0,000 mm 0,8 UV-I 102 W/m 4,2 C 0,0 km/h (0 Bft)
08.10.2016 11:58 5,1 C 5,1 C 93 % 1019,3 hPa 0,0 mm 0,0 km/h (0 Bft) O-NO 67 0 min 0,000 mm 0,8 UV-I 102 W/m 4,1 C 0,0 km/h (0 Bft)
08.10.2016 11:59 5,1 C 5,1 C 93 % 1019,3 hPa 0,0 mm 0,0 km/h (0 Bft) O-NO 67 0 min 0,000 mm 0,8 UV-I 104 W/m 4,1 C 0,0 km/h (0 Bft)
08.10.2016 12:00 5,1 C 5,2 C 94 % 1019,3 hPa 0,0 mm 0,0 km/h (0 Bft) O-NO 67 0 min 0,026 mm 0,8 UV-I 102 W/m 4,2 C 0,0 km/h (0 Bft)
08.10.2016 12:01 5,2 C 5,2 C 93 % 1019,3 hPa 0,0 mm 0,0 km/h (0 Bft) O-NO 67 0 min 0,000 mm 0,7 UV-I 100 W/m 4,2 C 0,0 km/h (0 Bft)
08.10.2016 12:02 5,1 C 5,2 C 93 % 1019,3 hPa 0,0 mm 0,0 km/h (0 Bft) O-NO 67 0 min 0,000 mm 0,7 UV-I 100 W/m 4,1 C 0,0 km/h (0 Bft)
08.10.2016 12:03 5,1 C 5,2 C 93 % 1019,3 hPa 0,0 mm 0,0 km/h (0 Bft) O-NO 67 0 min 0,000 mm 0,7 UV-I 100 W/m 4,1 C 0,0 km/h (0 Bft)
08.10.2016 12:04 5,2 C 5,2 C 93 % 1019,3 hPa 0,0 mm 0,0 km/h (0 Bft) O-NO 67 0 min 0,000 mm 0,8 UV-I 102 W/m 4,2 C 0,0 km/h (0 Bft)
08.10.2016 12:05 5,2 C 5,2 C 93 % 1019,3 hPa 0,0 mm 0,0 km/h (0 Bft) O-NO 67 0 min 0,000 mm 0,8 UV-I 104 W/m 4,2 C 0,0 km/h (0 Bft)
08.10.2016 12:06 5,2 C 5,2 C 93 % 1019,3 hPa 0,0 mm 0,0 km/h (0 Bft) O-NO 67 0 min 0,000 mm 0,8 UV-I 102 W/m 4,2 C 0,0 km/h (0 Bft)
08.10.2016 12:07 5,2 C 5,2 C 93 % 1019,4 hPa 0,0 mm 0,0 km/h (0 Bft) O-NO 67 0 min 0,000 mm 0,7 UV-I 98 W/m 4,2 C 0,0 km/h (0 Bft)
08.10.2016 12:08 5,2 C 5,2 C 93 % 1019,3 hPa 0,0 mm 0,0 km/h (0 Bft) O-NO 67 0 min 0,000 mm 0,7 UV-I 95 W/m 4,2 C 0,0 km/h (0 Bft)
08.10.2016 12:09 5,2 C 5,2 C 93 % 1019,4 hPa 0,0 mm 0,3 km/h (0 Bft) O-NO 67 0 min 0,000 mm 0,7 UV-I 93 W/m 4,2 C 1,6 km/h (1 Bft)
08.10.2016 12:10 5,2 C 5,2 C 93 % 1019,4 hPa 0,0 mm 0,5 km/h (0 Bft) O-NO 67 0 min 0,000 mm 0,6 UV-I 90 W/m 4,2 C 1,6 km/h (1 Bft)
08.10.2016 12:11 5,2 C 5,2 C 93 % 1019,4 hPa 0,0 mm 0,4 km/h (0 Bft) O-NO 67 0 min 0,000 mm 0,6 UV-I 90 W/m 4,2 C 1,6 km/h (1 Bft)
08.10.2016 12:12 5,2 C 5,2 C 93 % 1019,4 hPa 0,0 mm 0,5 km/h (0 Bft) O-NO 67 0 min 0,000 mm 0,6 UV-I 86 W/m 4,2 C 1,6 km/h (1 Bft)
08.10.2016 12:13 5,2 C 5,2 C 93 % 1019,4 hPa 0,0 mm 0,1 km/h (0 Bft) O-NO 67 0 min 0,000 mm 0,6 UV-I 84 W/m 4,2 C 1,6 km/h (1 Bft)
08.10.2016 12:14 5,2 C 5,2 C 93 % 1019,4 hPa 0,0 mm 0,1 km/h (0 Bft) O-NO 67 0 min 0,000 mm 0,6 UV-I 83 W/m 4,2 C 1,6 km/h (1 Bft)
08.10.2016 12:15 5,3 C 5,3 C 93 % 1019,5 hPa 0,0 mm 0,0 km/h (0 Bft) O-NO 67 0 min 0,000 mm 0,6 UV-I 79 W/m 4,3 C 0,0 km/h (0 Bft)
08.10.2016 12:16 5,3 C 5,3 C 93 % 1019,5 hPa 0,0 mm 0,0 km/h (0 Bft) O-NO 67 0 min 0,000 mm 0,6 UV-I 81 W/m 4,3 C 0,0 km/h (0 Bft)
08.10.2016 12:17 5,3 C 5,3 C 94 % 1019,5 hPa 0,0 mm 0,2 km/h (0 Bft) O-NO 67 0 min 0,000 mm 0,6 UV-I 81 W/m 4,4 C 1,6 km/h (1 Bft)
08.10.2016 12:18 5,3 C 5,3 C 94 % 1019,4 hPa 0,0 mm 0,6 km/h (0 Bft) O-NO 67 0 min 0,000 mm 0,6 UV-I 86 W/m 4,4 C 1,6 km/h (1 Bft)
08.10.2016 12:19 5,3 C 5,3 C 93 % 1019,5 hPa 0,0 mm 0,9 km/h (0 Bft) O-NO 67 0 min 0,000 mm 0,6 UV-I 90 W/m 4,3 C 1,6 km/h (1 Bft)
08.10.2016 12:20 5,3 C 5,3 C 93 % 1019,4 hPa 0,0 mm 0,9 km/h (0 Bft) O-NO 67 0 min 0,000 mm 0,6 UV-I 90 W/m 4,3 C 1,6 km/h (1 Bft)
08.10.2016 12:21 5,3 C 5,3 C 93 % 1019,4 hPa 0,2 mm 1,3 km/h (1 Bft) O-NO 67 0 min 0,000 mm 0,6 UV-I 93 W/m 4,3 C 1,6 km/h (1 Bft)
08.10.2016 12:22 5,3 C 5,3 C 93 % 1019,4 hPa 0,0 mm 0,8 km/h (0 Bft) O-NO 67 0 min 0,000 mm 0,7 UV-I 95 W/m 4,3 C 1,6 km/h (1 Bft)
08.10.2016 12:23 5,2 C 5,3 C 92 % 1019,5 hPa 0,0 mm 0,1 km/h (0 Bft) O-NO 67 0 min 0,000 mm 0,7 UV-I 100 W/m 4,0 C 1,6 km/h (1 Bft)
08.10.2016 12:24 5,2 C 5,3 C 93 % 1019,5 hPa 0,0 mm 0,3 km/h (0 Bft) O-NO 67 0 min 0,000 mm 0,7 UV-I 104 W/m 4,2 C 1,6 km/h (1 Bft)
08.10.2016 12:25 5,3 C 5,3 C 93 % 1019,5 hPa 0,0 mm 0,2 km/h (0 Bft) O-NO 67 0 min 0,000 mm 0,7 UV-I 105 W/m 4,3 C 1,6 km/h (1 Bft)
08.10.2016 12:26 5,2 C 5,3 C 93 % 1019,5 hPa 0,0 mm 0,0 km/h (0 Bft) O-NO 67 0 min 0,000 mm 0,7 UV-I 105 W/m 4,2 C 0,0 km/h (0 Bft)
08.10.2016 12:27 5,2 C 5,3 C 92 % 1019,5 hPa 0,0 mm 0,5 km/h (0 Bft) O-NO 67 0 min 0,000 mm 0,7 UV-I 105 W/m 4,0 C 1,6 km/h (1 Bft)
08.10.2016 12:28 5,2 C 5,2 C 93 % 1019,5 hPa 0,0 mm 0,9 km/h (0 Bft) O-NO 67 0 min 0,000 mm 0,7 UV-I 107 W/m 4,2 C 1,6 km/h (1 Bft)
08.10.2016 12:29 5,3 C 5,3 C 93 % 1019,4 hPa 0,0 mm 0,5 km/h (0 Bft) O-NO 67 0 min 0,000 mm 0,8 UV-I 109 W/m 4,3 C 1,6 km/h (1 Bft)
08.10.2016 12:30 5,3 C 5,3 C 93 % 1019,5 hPa 0,0 mm 0,0 km/h (0 Bft) O-NO 67 0 min 0,000 mm 0,8 UV-I 114 W/m 4,3 C 0,0 km/h (0 Bft)
08.10.2016 12:31 5,3 C 5,3 C 93 % 1019,5 hPa 0,0 mm 0,0 km/h (0 Bft) O-NO 67 0 min 0,000 mm 0,8 UV-I 116 W/m 4,3 C 0,0 km/h (0 Bft)
08.10.2016 12:32 5,3 C 5,3 C 93 % 1019,5 hPa 0,0 mm 0,8 km/h (0 Bft) O-NO 67 0 min 0,000 mm 0,8 UV-I 120 W/m 4,3 C 1,6 km/h (1 Bft)
08.10.2016 12:33 5,3 C 5,3 C 93 % 1019,5 hPa 0,0 mm 1,3 km/h (1 Bft) O-NO 67 0 min 0,000 mm 0,9 UV-I 121 W/m 4,3 C 3,2 km/h (1 Bft)
08.10.2016 12:34 5,3 C 5,3 C 93 % 1019,5 hPa 0,0 mm 2,3 km/h (1 Bft) O-NO 67 0 min 0,000 mm 0,8 UV-I 120 W/m 4,3 C 3,2 km/h (1 Bft)
08.10.2016 12:35 5,3 C 5,3 C 92 % 1019,5 hPa 0,0 mm 1,6 km/h (1 Bft) O-NO 67 0 min 0,000 mm 0,8 UV-I 118 W/m 4,1 C 1,6 km/h (1 Bft)
08.10.2016 12:36 5,3 C 5,3 C 93 % 1019,4 hPa 0,0 mm 1,1 km/h (1 Bft) O-NO 67 0 min 0,000 mm 0,9 UV-I 116 W/m 4,3 C 3,2 km/h (1 Bft)
08.10.2016 12:37 5,3 C 5,3 C 92 % 1019,5 hPa 0,0 mm 0,3 km/h (0 Bft) O-NO 67 0 min 0,000 mm 0,9 UV-I 116 W/m 4,1 C 1,6 km/h (1 Bft)
08.10.2016 12:38 5,3 C 5,3 C 91 % 1019,5 hPa 0,0 mm 1,3 km/h (1 Bft) O-NO 67 0 min 0,000 mm 0,9 UV-I 118 W/m 4,0 C 3,2 km/h (1 Bft)
08.10.2016 12:39 5,2 C 5,3 C 92 % 1019,5 hPa 0,0 mm 0,4 km/h (0 Bft) O-NO 67 0 min 0,000 mm 0,9 UV-I 121 W/m 4,0 C 1,6 km/h (1 Bft)
08.10.2016 12:40 5,3 C 5,3 C 92 % 1019,5 hPa 0,0 mm 1,9 km/h (1 Bft) O-NO 67 0 min 0,000 mm 0,9 UV-I 123 W/m 4,1 C 3,2 km/h (1 Bft)
08.10.2016 12:41 5,3 C 5,3 C 92 % 1019,5 hPa 0,0 mm 2,4 km/h (1 Bft) O-NO 67 0 min 0,000 mm 0,9 UV-I 120 W/m 4,1 C 3,2 km/h (1 Bft)
08.10.2016 12:42 5,3 C 5,3 C 92 % 1019,5 hPa 0,0 mm 2,1 km/h (1 Bft) O-NO 67 0 min 0,000 mm 0,9 UV-I 113 W/m 4,1 C 3,2 km/h (1 Bft)
08.10.2016 12:43 5,3 C 5,3 C 92 % 1019,5 hPa 0,0 mm 2,2 km/h (1 Bft) O-NO 67 0 min 0,000 mm 0,8 UV-I 105 W/m 4,1 C 3,2 km/h (1 Bft)
08.10.2016 12:44 5,3 C 5,3 C 92 % 1019,5 hPa 0,0 mm 0,3 km/h (0 Bft) O-NO 67 0 min 0,000 mm 0,8 UV-I 102 W/m 4,1 C 1,6 km/h (1 Bft)
08.10.2016 12:45 5,3 C 5,3 C 91 % 1019,5 hPa 0,0 mm 0,0 km/h (0 Bft) O-NO 67 0 min 0,000 mm 0,8 UV-I 100 W/m 4,0 C 0,0 km/h (0 Bft)
08.10.2016 12:46 5,3 C 5,3 C 91 % 1019,5 hPa 0,0 mm 0,0 km/h (0 Bft) O-NO 67 0 min 0,000 mm 0,8 UV-I 100 W/m 4,0 C 0,0 km/h (0 Bft)
08.10.2016 12:47 5,3 C 5,3 C 92 % 1019,5 hPa 0,0 mm 0,0 km/h (0 Bft) O-NO 67 0 min 0,000 mm 0,9 UV-I 104 W/m 4,1 C 0,0 km/h (0 Bft)
08.10.2016 12:48 5,3 C 5,3 C 92 % 1019,5 hPa 0,0 mm 0,0 km/h (0 Bft) O-NO 67 0 min 0,000 mm 0,9 UV-I 105 W/m 4,1 C 0,0 km/h (0 Bft)
08.10.2016 12:49 5,3 C 5,3 C 92 % 1019,5 hPa 0,0 mm 0,0 km/h (0 Bft) O-NO 67 0 min 0,000 mm 0,9 UV-I 107 W/m 4,1 C 0,0 km/h (0 Bft)
08.10.2016 12:50 5,3 C 5,3 C 92 % 1019,5 hPa 0,0 mm 0,0 km/h (0 Bft) O-NO 67 0 min 0,000 mm 0,9 UV-I 109 W/m 4,1 C 0,0 km/h (0 Bft)
08.10.2016 12:51 5,3 C 5,3 C 93 % 1019,5 hPa 0,0 mm 0,0 km/h (0 Bft) O-NO 67 0 min 0,000 mm 0,9 UV-I 111 W/m 4,3 C 0,0 km/h (0 Bft)
08.10.2016 12:52 5,3 C 5,3 C 92 % 1019,5 hPa 0,0 mm 0,0 km/h (0 Bft) O-NO 67 0 min 0,000 mm 0,9 UV-I 109 W/m 4,1 C 0,0 km/h (0 Bft)
08.10.2016 12:53 5,3 C 5,3 C 93 % 1019,5 hPa 0,0 mm 0,0 km/h (0 Bft) O-NO 67 0 min 0,000 mm 0,9 UV-I 105 W/m 4,3 C 0,0 km/h (0 Bft)
08.10.2016 12:54 5,4 C 5,4 C 93 % 1019,5 hPa 0,0 mm 0,0 km/h (0 Bft) O-NO 67 0 min 0,000 mm 0,9 UV-I 107 W/m 4,4 C 0,0 km/h (0 Bft)
08.10.2016 12:55 5,4 C 5,4 C 93 % 1019,6 hPa 0,0 mm 0,0 km/h (0 Bft) O-NO 67 0 min 0,000 mm 0,9 UV-I 105 W/m 4,4 C 0,0 km/h (0 Bft)
08.10.2016 12:56 5,4 C 5,4 C 93 % 1019,6 hPa 0,0 mm 0,1 km/h (0 Bft) O-NO 67 0 min 0,000 mm 0,8 UV-I 102 W/m 4,4 C 1,6 km/h (1 Bft)
08.10.2016 12:57 5,4 C 5,4 C 93 % 1019,6 hPa 0,0 mm 0,6 km/h (0 Bft) O-NO 67 0 min 0,000 mm 0,8 UV-I 97 W/m 4,4 C 1,6 km/h (1 Bft)
08.10.2016 12:58 5,4 C 5,4 C 92 % 1019,6 hPa 0,0 mm 0,0 km/h (0 Bft) O-NO 67 0 min 0,000 mm 0,7 UV-I 91 W/m 4,2 C 0,0 km/h (0 Bft)
08.10.2016 12:59 5,4 C 5,4 C 92 % 1019,6 hPa 0,0 mm 1,1 km/h (1 Bft) O-NO 67 0 min 0,000 mm 0,7 UV-I 83 W/m 4,2 C 1,6 km/h (1 Bft)
08.10.2016 13:00 5,4 C 5,4 C 93 % 1019,6 hPa 0,0 mm 1,0 km/h (0 Bft) O-NO 67 0 min 0,000 mm 0,7 UV-I 81 W/m 4,4 C 1,6 km/h (1 Bft)
08.10.2016 13:01 5,4 C 5,4 C 93 % 1019,6 hPa 0,0 mm 2,4 km/h (1 Bft) O-NO 67 0 min 0,051 mm 0,7 UV-I 81 W/m 4,4 C 3,2 km/h (1 Bft)
08.10.2016 13:02 5,4 C 5,5 C 93 % 1019,6 hPa 0,0 mm 1,9 km/h (1 Bft) NO 45 0 min 0,000 mm 0,7 UV-I 83 W/m 4,4 C 3,2 km/h (1 Bft)
08.10.2016 13:03 5,5 C 5,5 C 93 % 1019,6 hPa 0,0 mm 1,1 km/h (1 Bft) NO 45 0 min 0,000 mm 0,7 UV-I 84 W/m 4,5 C 3,2 km/h (1 Bft)
08.10.2016 13:04 5,5 C 5,5 C 93 % 1019,6 hPa 0,0 mm 1,8 km/h (1 Bft) O-NO 59 0 min 0,000 mm 0,7 UV-I 93 W/m 4,5 C 4,8 km/h (1 Bft)
08.10.2016 13:05 5,5 C 5,5 C 93 % 1019,6 hPa 0,0 mm 3,1 km/h (1 Bft) O-NO 60 0 min 0,000 mm 0,7 UV-I 100 W/m 4,5 C 4,8 km/h (1 Bft)
08.10.2016 13:06 5,4 C 5,5 C 92 % 1019,5 hPa 0,0 mm 3,1 km/h (1 Bft) O-NO 60 0 min 0,000 mm 0,8 UV-I 105 W/m 4,2 C 4,8 km/h (1 Bft)
08.10.2016 13:07 5,4 C 5,4 C 92 % 1019,6 hPa 0,0 mm 2,9 km/h (1 Bft) O-NO 60 0 min 0,000 mm 0,9 UV-I 111 W/m 4,2 C 4,8 km/h (1 Bft)
08.10.2016 13:08 5,3 C 5,4 C 92 % 1019,6 hPa 0,0 mm 2,1 km/h (1 Bft) O-NO 60 0 min 0,000 mm 0,9 UV-I 116 W/m 4,1 C 3,2 km/h (1 Bft)
08.10.2016 13:09 5,3 C 5,3 C 92 % 1019,6 hPa 0,0 mm 0,8 km/h (0 Bft) O-NO 60 0 min 0,000 mm 0,9 UV-I 120 W/m 4,1 C 1,6 km/h (1 Bft)
08.10.2016 13:10 5,3 C 5,3 C 93 % 1019,6 hPa 0,0 mm 0,5 km/h (0 Bft) O-NO 60 0 min 0,000 mm 0,9 UV-I 123 W/m 4,3 C 1,6 km/h (1 Bft)
08.10.2016 13:11 5,3 C 5,4 C 93 % 1019,6 hPa 0,0 mm 2,3 km/h (1 Bft) O-NO 60 0 min 0,000 mm 0,9 UV-I 121 W/m 4,3 C 3,2 km/h (1 Bft)
08.10.2016 13:12 5,3 C 5,3 C 92 % 1019,6 hPa 0,0 mm 0,9 km/h (0 Bft) O-NO 60 0 min 0,000 mm 0,9 UV-I 120 W/m 4,1 C 1,6 km/h (1 Bft)
08.10.2016 13:13 5,4 C 5,4 C 93 % 1019,6 hPa 0,0 mm 3,8 km/h (1 Bft) NO 50 0 min 0,000 mm 0,9 UV-I 116 W/m 4,4 C 4,8 km/h (1 Bft)
08.10.2016 13:14 5,4 C 5,4 C 92 % 1019,6 hPa 0,0 mm 4,2 km/h (1 Bft) NO 50 0 min 0,000 mm 0,9 UV-I 114 W/m 4,2 C 4,8 km/h (1 Bft)
08.10.2016 13:15 5,3 C 5,4 C 91 % 1019,6 hPa 0,0 mm 3,3 km/h (1 Bft) NO 50 0 min 0,000 mm 0,9 UV-I 114 W/m 4,0 C 4,8 km/h (1 Bft)
08.10.2016 13:16 5,3 C 5,3 C 91 % 1019,6 hPa 0,0 mm 2,3 km/h (1 Bft) NO 50 0 min 0,000 mm 0,9 UV-I 125 W/m 4,0 C 3,2 km/h (1 Bft)
08.10.2016 13:17 5,3 C 5,3 C 91 % 1019,6 hPa 0,0 mm 0,8 km/h (0 Bft) NO 50 0 min 0,000 mm 1,0 UV-I 130 W/m 4,0 C 1,6 km/h (1 Bft)
08.10.2016 13:18 5,4 C 5,4 C 92 % 1019,6 hPa 0,0 mm 0,1 km/h (0 Bft) NO 50 0 min 0,000 mm 1,0 UV-I 135 W/m 4,2 C 1,6 km/h (1 Bft)
08.10.2016 13:19 5,4 C 5,4 C 92 % 1019,6 hPa 0,0 mm 2,2 km/h (1 Bft) O-NO 67 0 min 0,000 mm 1,1 UV-I 141 W/m 4,2 C 3,2 km/h (1 Bft)
08.10.2016 13:20 5,4 C 5,4 C 92 % 1019,6 hPa 0,0 mm 3,0 km/h (1 Bft) O-NO 67 0 min 0,000 mm 1,1 UV-I 146 W/m 4,2 C 4,8 km/h (1 Bft)
08.10.2016 13:21 5,4 C 5,4 C 92 % 1019,6 hPa 0,0 mm 0,9 km/h (0 Bft) O-NO 67 0 min 0,000 mm 1,1 UV-I 148 W/m 4,2 C 1,6 km/h (1 Bft)
08.10.2016 13:22 5,4 C 5,4 C 92 % 1019,6 hPa 0,0 mm 2,2 km/h (1 Bft) O-NO 66 0 min 0,000 mm 1,1 UV-I 142 W/m 4,2 C 3,2 km/h (1 Bft)
08.10.2016 13:23 5,5 C 5,5 C 92 % 1019,6 hPa 0,0 mm 2,6 km/h (1 Bft) NO 45 0 min 0,000 mm 1,0 UV-I 137 W/m 4,3 C 4,8 km/h (1 Bft)
08.10.2016 13:24 5,4 C 5,5 C 92 % 1019,6 hPa 0,0 mm 0,9 km/h (0 Bft) NO 45 0 min 0,000 mm 1,0 UV-I 128 W/m 4,2 C 1,6 km/h (1 Bft)
08.10.2016 13:25 5,5 C 5,5 C 91 % 1019,6 hPa 0,0 mm 1,3 km/h (1 Bft) NO 45 0 min 0,000 mm 0,9 UV-I 121 W/m 4,2 C 3,2 km/h (1 Bft)
08.10.2016 13:26 5,4 C 5,5 C 92 % 1019,6 hPa 0,0 mm 2,7 km/h (1 Bft) N 10 0 min 0,000 mm 0,9 UV-I 113 W/m 4,2 C 4,8 km/h (1 Bft)
08.10.2016 13:27 5,5 C 5,5 C 92 % 1019,6 hPa 0,0 mm 1,8 km/h (1 Bft) N 10 0 min 0,000 mm 0,8 UV-I 107 W/m 4,3 C 3,2 km/h (1 Bft)
08.10.2016 13:28 5,6 C 5,6 C 92 % 1019,6 hPa 0,0 mm 1,2 km/h (1 Bft) N 10 0 min 0,000 mm 0,8 UV-I 98 W/m 4,4 C 1,6 km/h (1 Bft)
08.10.2016 13:29 5,6 C 5,6 C 93 % 1019,6 hPa 0,0 mm 1,2 km/h (1 Bft) N 10 0 min 0,000 mm 0,8 UV-I 95 W/m 4,6 C 3,2 km/h (1 Bft)
08.10.2016 13:30 5,7 C 5,7 C 92 % 1019,6 hPa 0,0 mm 1,9 km/h (1 Bft) N 10 0 min 0,000 mm 0,8 UV-I 93 W/m 4,5 C 3,2 km/h (1 Bft)
08.10.2016 13:31 5,6 C 5,7 C 92 % 1019,6 hPa 0,0 mm 2,2 km/h (1 Bft) N-NO 15 0 min 0,000 mm 0,8 UV-I 93 W/m 4,4 C 3,2 km/h (1 Bft)
08.10.2016 13:32 5,6 C 5,7 C 92 % 1019,6 hPa 0,0 mm 2,6 km/h (1 Bft) N-NO 15 0 min 0,000 mm 0,8 UV-I 93 W/m 4,4 C 4,8 km/h (1 Bft)
08.10.2016 13:33 5,6 C 5,6 C 91 % 1019,6 hPa 0,0 mm 2,3 km/h (1 Bft) N-NO 15 0 min 0,000 mm 0,8 UV-I 91 W/m 4,2 C 3,2 km/h (1 Bft)
08.10.2016 13:34 5,6 C 5,6 C 92 % 1019,5 hPa 0,0 mm 1,1 km/h (1 Bft) N-NO 15 0 min 0,000 mm 0,8 UV-I 88 W/m 4,4 C 3,2 km/h (1 Bft)
08.10.2016 13:35 5,6 C 5,6 C 92 % 1019,6 hPa 0,0 mm 0,1 km/h (0 Bft) N-NO 15 0 min 0,000 mm 0,8 UV-I 86 W/m 4,4 C 1,6 km/h (1 Bft)
08.10.2016 13:36 5,6 C 5,6 C 92 % 1019,5 hPa 0,0 mm 0,1 km/h (0 Bft) N-NO 15 0 min 0,000 mm 0,8 UV-I 84 W/m 4,4 C 1,6 km/h (1 Bft)
08.10.2016 13:37 5,6 C 5,6 C 92 % 1019,6 hPa 0,0 mm 1,6 km/h (1 Bft) N-NO 15 0 min 0,000 mm 0,7 UV-I 83 W/m 4,4 C 3,2 km/h (1 Bft)
08.10.2016 13:38 5,6 C 5,6 C 92 % 1019,5 hPa 0,0 mm 2,6 km/h (1 Bft) N-NO 17 0 min 0,000 mm 0,7 UV-I 84 W/m 4,4 C 4,8 km/h (1 Bft)
08.10.2016 13:39 5,6 C 5,6 C 92 % 1019,6 hPa 0,0 mm 1,6 km/h (1 Bft) N-NO 17 0 min 0,000 mm 0,7 UV-I 86 W/m 4,4 C 3,2 km/h (1 Bft)
08.10.2016 13:40 5,6 C 5,6 C 91 % 1019,6 hPa 0,0 mm 1,3 km/h (1 Bft) N-NO 17 0 min 0,000 mm 0,7 UV-I 95 W/m 4,2 C 1,6 km/h (1 Bft)
08.10.2016 13:41 5,6 C 5,6 C 91 % 1019,6 hPa 0,0 mm 0,2 km/h (0 Bft) N-NO 17 0 min 0,000 mm 0,8 UV-I 100 W/m 4,2 C 1,6 km/h (1 Bft)
08.10.2016 13:42 5,6 C 5,6 C 91 % 1019,6 hPa 0,0 mm 1,5 km/h (1 Bft) N-NO 17 0 min 0,000 mm 0,8 UV-I 107 W/m 4,2 C 3,2 km/h (1 Bft)
08.10.2016 13:43 5,6 C 5,6 C 92 % 1019,6 hPa 0,0 mm 2,2 km/h (1 Bft) N-NO 22 0 min 0,000 mm 0,9 UV-I 114 W/m 4,4 C 3,2 km/h (1 Bft)
08.10.2016 13:44 5,6 C 5,6 C 92 % 1019,6 hPa 0,0 mm 2,4 km/h (1 Bft) N-NO 22 0 min 0,000 mm 0,9 UV-I 118 W/m 4,4 C 3,2 km/h (1 Bft)
08.10.2016 13:45 5,6 C 5,6 C 92 % 1019,6 hPa 0,0 mm 1,8 km/h (1 Bft) N-NO 21 0 min 0,000 mm 0,9 UV-I 120 W/m 4,4 C 3,2 km/h (1 Bft)
08.10.2016 13:46 5,7 C 5,7 C 92 % 1019,6 hPa 0,0 mm 2,3 km/h (1 Bft) N-NO 21 0 min 0,000 mm 0,9 UV-I 123 W/m 4,5 C 3,2 km/h (1 Bft)
08.10.2016 13:47 5,7 C 5,7 C 91 % 1019,6 hPa 0,0 mm 2,5 km/h (1 Bft) N-NO 21 0 min 0,000 mm 0,9 UV-I 123 W/m 4,3 C 3,2 km/h (1 Bft)
08.10.2016 13:48 5,7 C 5,7 C 92 % 1019,6 hPa 0,0 mm 2,0 km/h (1 Bft) N-NO 21 0 min 0,000 mm 0,9 UV-I 123 W/m 4,5 C 3,2 km/h (1 Bft)
08.10.2016 13:49 5,8 C 5,8 C 92 % 1019,6 hPa 0,0 mm 1,7 km/h (1 Bft) N-NO 21 0 min 0,000 mm 0,9 UV-I 120 W/m 4,6 C 3,2 km/h (1 Bft)
08.10.2016 13:50 5,8 C 5,8 C 92 % 1019,6 hPa 0,0 mm 1,5 km/h (1 Bft) N-NO 21 0 min 0,000 mm 0,9 UV-I 114 W/m 4,6 C 3,2 km/h (1 Bft)
08.10.2016 13:51 5,8 C 5,8 C 92 % 1019,6 hPa 0,0 mm 4,2 km/h (1 Bft) N-NO 22 0 min 0,000 mm 0,9 UV-I 107 W/m 4,6 C 4,8 km/h (1 Bft)
08.10.2016 13:52 5,8 C 5,8 C 91 % 1019,6 hPa 0,0 mm 3,0 km/h (1 Bft) N-NO 22 0 min 0,000 mm 0,8 UV-I 104 W/m 4,4 C 4,8 km/h (1 Bft)
08.10.2016 13:53 5,7 C 5,8 C 90 % 1019,6 hPa 0,0 mm 2,1 km/h (1 Bft) N-NO 22 0 min 0,000 mm 0,8 UV-I 98 W/m 4,2 C 4,8 km/h (1 Bft)
08.10.2016 13:54 5,7 C 5,7 C 90 % 1019,6 hPa 0,0 mm 0,7 km/h (0 Bft) N-NO 22 0 min 0,000 mm 0,8 UV-I 95 W/m 4,2 C 1,6 km/h (1 Bft)
08.10.2016 13:55 5,7 C 5,7 C 91 % 1019,6 hPa 0,0 mm 0,4 km/h (0 Bft) N-NO 22 0 min 0,000 mm 0,7 UV-I 95 W/m 4,3 C 1,6 km/h (1 Bft)
08.10.2016 13:56 5,7 C 5,7 C 91 % 1019,7 hPa 0,0 mm 0,0 km/h (0 Bft) N-NO 22 0 min 0,000 mm 0,7 UV-I 95 W/m 4,3 C 0,0 km/h (0 Bft)
08.10.2016 13:57 5,7 C 5,7 C 91 % 1019,7 hPa 0,0 mm 0,0 km/h (0 Bft) N-NO 22 0 min 0,000 mm 0,7 UV-I 98 W/m 4,3 C 0,0 km/h (0 Bft)
08.10.2016 13:58 5,7 C 5,7 C 91 % 1019,7 hPa 0,0 mm 0,0 km/h (0 Bft) N-NO 22 0 min 0,000 mm 0,7 UV-I 100 W/m 4,3 C 0,0 km/h (0 Bft)
08.10.2016 13:59 5,8 C 5,8 C 91 % 1019,7 hPa 0,0 mm 0,0 km/h (0 Bft) N-NO 22 0 min 0,000 mm 0,7 UV-I 104 W/m 4,4 C 0,0 km/h (0 Bft)
08.10.2016 14:00 5,7 C 5,8 C 91 % 1019,7 hPa 0,0 mm 0,0 km/h (0 Bft) N-NO 22 0 min 0,000 mm 0,8 UV-I 105 W/m 4,3 C 0,0 km/h (0 Bft)
08.10.2016 14:01 5,7 C 5,7 C 90 % 1019,7 hPa 0,0 mm 0,0 km/h (0 Bft) N-NO 22 0 min 0,050 mm 0,8 UV-I 107 W/m 4,2 C 0,0 km/h (0 Bft)
08.10.2016 14:02 5,7 C 5,7 C 91 % 1019,7 hPa 0,0 mm 0,0 km/h (0 Bft) N-NO 22 0 min 0,000 mm 0,8 UV-I 109 W/m 4,3 C 0,0 km/h (0 Bft)
08.10.2016 14:03 5,7 C 5,7 C 91 % 1019,7 hPa 0,0 mm 0,0 km/h (0 Bft) N-NO 22 0 min 0,000 mm 0,8 UV-I 100 W/m 4,3 C 0,0 km/h (0 Bft)
08.10.2016 14:04 5,7 C 5,7 C 92 % 1019,7 hPa 0,0 mm 0,0 km/h (0 Bft) N-NO 22 0 min 0,000 mm 0,7 UV-I 93 W/m 4,5 C 0,0 km/h (0 Bft)
08.10.2016 14:05 5,7 C 5,8 C 91 % 1019,7 hPa 0,0 mm 0,0 km/h (0 Bft) N-NO 22 0 min 0,000 mm 0,7 UV-I 90 W/m 4,3 C 0,0 km/h (0 Bft)
08.10.2016 14:06 5,7 C 5,8 C 91 % 1019,7 hPa 0,0 mm 0,0 km/h (0 Bft) N-NO 22 0 min 0,000 mm 0,7 UV-I 88 W/m 4,3 C 0,0 km/h (0 Bft)
08.10.2016 14:07 5,7 C 5,7 C 91 % 1019,7 hPa 0,0 mm 0,0 km/h (0 Bft) N-NO 22 0 min 0,000 mm 0,7 UV-I 90 W/m 4,3 C 0,0 km/h (0 Bft)
08.10.2016 14:08 5,8 C 5,8 C 91 % 1019,7 hPa 0,0 mm 0,0 km/h (0 Bft) N-NO 22 0 min 0,000 mm 0,7 UV-I 90 W/m 4,4 C 0,0 km/h (0 Bft)
08.10.2016 14:09 5,8 C 5,8 C 91 % 1019,7 hPa 0,0 mm 0,0 km/h (0 Bft) N-NO 22 0 min 0,000 mm 0,7 UV-I 91 W/m 4,4 C 0,0 km/h (0 Bft)
08.10.2016 14:10 5,8 C 5,8 C 91 % 1019,7 hPa 0,0 mm 0,0 km/h (0 Bft) N-NO 22 0 min 0,000 mm 0,7 UV-I 95 W/m 4,4 C 0,0 km/h (0 Bft)
08.10.2016 14:11 5,7 C 5,8 C 90 % 1019,7 hPa 0,0 mm 0,0 km/h (0 Bft) N-NO 22 0 min 0,000 mm 0,7 UV-I 98 W/m 4,2 C 0,0 km/h (0 Bft)
08.10.2016 14:12 5,7 C 5,8 C 90 % 1019,7 hPa 0,0 mm 0,0 km/h (0 Bft) N-NO 22 0 min 0,000 mm 0,7 UV-I 100 W/m 4,2 C 0,0 km/h (0 Bft)
08.10.2016 14:13 5,7 C 5,7 C 90 % 1019,8 hPa 0,0 mm 0,0 km/h (0 Bft) N-NO 22 0 min 0,000 mm 0,7 UV-I 100 W/m 4,2 C 0,0 km/h (0 Bft)
08.10.2016 14:14 5,7 C 5,8 C 90 % 1019,7 hPa 0,0 mm 0,0 km/h (0 Bft) N-NO 22 0 min 0,000 mm 0,7 UV-I 98 W/m 4,2 C 0,0 km/h (0 Bft)
08.10.2016 14:15 5,8 C 5,8 C 91 % 1019,7 hPa 0,0 mm 0,0 km/h (0 Bft) N-NO 22 0 min 0,000 mm 0,7 UV-I 98 W/m 4,4 C 0,0 km/h (0 Bft)
08.10.2016 14:16 5,8 C 5,8 C 92 % 1019,7 hPa 0,0 mm 0,0 km/h (0 Bft) N-NO 24 0 min 0,000 mm 0,7 UV-I 98 W/m 4,6 C 0,0 km/h (0 Bft)
08.10.2016 14:17 5,8 C 5,8 C 91 % 1019,7 hPa 0,0 mm 0,0 km/h (0 Bft) N-NO 24 0 min 0,000 mm 0,7 UV-I 97 W/m 4,4 C 0,0 km/h (0 Bft)
08.10.2016 14:18 5,8 C 5,8 C 89 % 1019,7 hPa 0,0 mm 0,0 km/h (0 Bft) N-NO 24 0 min 0,000 mm 0,7 UV-I 95 W/m 4,1 C 0,0 km/h (0 Bft)
08.10.2016 14:19 5,8 C 5,8 C 89 % 1019,7 hPa 0,0 mm 0,0 km/h (0 Bft) N-NO 24 0 min 0,000 mm 0,6 UV-I 91 W/m 4,1 C 0,0 km/h (0 Bft)
08.10.2016 14:20 5,8 C 5,8 C 89 % 1019,7 hPa 0,0 mm 0,0 km/h (0 Bft) N-NO 24 0 min 0,000 mm 0,6 UV-I 90 W/m 4,1 C 0,0 km/h (0 Bft)
08.10.2016 14:21 5,8 C 5,8 C 89 % 1019,7 hPa 0,0 mm 0,0 km/h (0 Bft) N-NO 24 0 min 0,000 mm 0,6 UV-I 88 W/m 4,1 C 0,0 km/h (0 Bft)
08.10.2016 14:22 5,8 C 5,8 C 90 % 1019,7 hPa 0,0 mm 0,0 km/h (0 Bft) N-NO 24 0 min 0,000 mm 0,7 UV-I 90 W/m 4,3 C 0,0 km/h (0 Bft)
08.10.2016 14:23 5,8 C 5,8 C 90 % 1019,7 hPa 0,0 mm 0,0 km/h (0 Bft) N-NO 24 0 min 0,000 mm 0,7 UV-I 93 W/m 4,3 C 0,0 km/h (0 Bft)
08.10.2016 14:24 5,9 C 5,9 C 90 % 1019,7 hPa 0,0 mm 0,0 km/h (0 Bft) N-NO 24 0 min 0,000 mm 0,7 UV-I 95 W/m 4,4 C 0,0 km/h (0 Bft)
08.10.2016 14:25 5,9 C 5,9 C 90 % 1019,7 hPa 0,0 mm 0,0 km/h (0 Bft) N-NO 24 0 min 0,000 mm 0,7 UV-I 95 W/m 4,4 C 0,0 km/h (0 Bft)
08.10.2016 14:26 5,9 C 5,9 C 91 % 1019,7 hPa 0,0 mm 0,0 km/h (0 Bft) N-NO 24 0 min 0,000 mm 0,7 UV-I 97 W/m 4,5 C 0,0 km/h (0 Bft)
08.10.2016 14:27 5,9 C 5,9 C 92 % 1019,7 hPa 0,0 mm 0,0 km/h (0 Bft) N-NO 24 0 min 0,000 mm 0,7 UV-I 97 W/m 4,7 C 0,0 km/h (0 Bft)
08.10.2016 14:28 5,9 C 5,9 C 92 % 1019,7 hPa 0,0 mm 0,0 km/h (0 Bft) N-NO 24 0 min 0,000 mm 0,7 UV-I 97 W/m 4,7 C 0,0 km/h (0 Bft)
08.10.2016 14:29 5,9 C 5,9 C 92 % 1019,7 hPa 0,0 mm 0,0 km/h (0 Bft) N-NO 24 0 min 0,000 mm 0,7 UV-I 95 W/m 4,7 C 0,0 km/h (0 Bft)
08.10.2016 14:30 5,9 C 5,9 C 91 % 1019,7 hPa 0,0 mm 0,0 km/h (0 Bft) N-NO 24 0 min 0,000 mm 0,7 UV-I 95 W/m 4,5 C 0,0 km/h (0 Bft)
08.10.2016 14:31 5,9 C 5,9 C 91 % 1019,7 hPa 0,0 mm 0,0 km/h (0 Bft) N-NO 24 0 min 0,000 mm 0,7 UV-I 95 W/m 4,5 C 0,0 km/h (0 Bft)
08.10.2016 14:32 5,9 C 5,9 C 90 % 1019,7 hPa 0,0 mm 0,0 km/h (0 Bft) N-NO 24 0 min 0,000 mm 0,7 UV-I 98 W/m 4,4 C 0,0 km/h (0 Bft)
08.10.2016 14:33 5,9 C 5,9 C 90 % 1019,7 hPa 0,0 mm 0,0 km/h (0 Bft) N-NO 24 0 min 0,000 mm 0,8 UV-I 102 W/m 4,4 C 0,0 km/h (0 Bft)
08.10.2016 14:34 5,9 C 5,9 C 90 % 1019,7 hPa 0,0 mm 0,0 km/h (0 Bft) N-NO 24 0 min 0,000 mm 0,8 UV-I 104 W/m 4,4 C 0,0 km/h (0 Bft)
08.10.2016 14:35 5,9 C 5,9 C 90 % 1019,7 hPa 0,0 mm 0,0 km/h (0 Bft) N-NO 24 0 min 0,000 mm 0,8 UV-I 104 W/m 4,4 C 0,0 km/h (0 Bft)
08.10.2016 14:36 5,9 C 5,9 C 92 % 1019,8 hPa 0,0 mm 0,0 km/h (0 Bft) N-NO 24 0 min 0,000 mm 0,8 UV-I 105 W/m 4,7 C 0,0 km/h (0 Bft)
08.10.2016 14:37 5,9 C 5,9 C 92 % 1019,8 hPa 0,0 mm 0,0 km/h (0 Bft) N-NO 24 0 min 0,000 mm 0,8 UV-I 109 W/m 4,7 C 0,0 km/h (0 Bft)
08.10.2016 14:38 5,9 C 5,9 C 92 % 1019,8 hPa 0,0 mm 0,0 km/h (0 Bft) N-NO 24 0 min 0,000 mm 0,8 UV-I 114 W/m 4,7 C 0,0 km/h (0 Bft)
08.10.2016 14:39 5,9 C 5,9 C 91 % 1019,8 hPa 0,0 mm 0,0 km/h (0 Bft) N-NO 24 0 min 0,000 mm 0,8 UV-I 116 W/m 4,5 C 0,0 km/h (0 Bft)
08.10.2016 14:40 5,9 C 5,9 C 91 % 1019,8 hPa 0,0 mm 0,0 km/h (0 Bft) N-NO 24 0 min 0,000 mm 0,8 UV-I 118 W/m 4,5 C 0,0 km/h (0 Bft)
08.10.2016 14:41 5,9 C 5,9 C 90 % 1019,8 hPa 0,0 mm 0,0 km/h (0 Bft) N-NO 24 0 min 0,000 mm 0,9 UV-I 123 W/m 4,4 C 0,0 km/h (0 Bft)
08.10.2016 14:42 5,8 C 5,9 C 90 % 1019,8 hPa 0,0 mm 0,0 km/h (0 Bft) N-NO 24 0 min 0,000 mm 0,9 UV-I 127 W/m 4,3 C 0,0 km/h (0 Bft)
08.10.2016 14:43 5,8 C 5,8 C 90 % 1019,8 hPa 0,0 mm 0,0 km/h (0 Bft) N-NO 24 0 min 0,000 mm 0,9 UV-I 128 W/m 4,3 C 0,0 km/h (0 Bft)
08.10.2016 14:44 5,8 C 5,8 C 90 % 1019,8 hPa 0,0 mm 0,0 km/h (0 Bft) N-NO 24 0 min 0,000 mm 0,9 UV-I 127 W/m 4,3 C 0,0 km/h (0 Bft)
08.10.2016 14:45 5,8 C 5,8 C 90 % 1019,8 hPa 0,0 mm 0,0 km/h (0 Bft) N-NO 24 0 min 0,000 mm 0,9 UV-I 125 W/m 4,3 C 0,0 km/h (0 Bft)
08.10.2016 14:46 5,9 C 5,9 C 90 % 1019,8 hPa 0,0 mm 0,0 km/h (0 Bft) N-NO 24 0 min 0,000 mm 0,9 UV-I 123 W/m 4,4 C 0,0 km/h (0 Bft)
08.10.2016 14:47 5,9 C 5,9 C 90 % 1019,7 hPa 0,0 mm 0,0 km/h (0 Bft) N-NO 24 0 min 0,000 mm 0,9 UV-I 121 W/m 4,4 C 0,0 km/h (0 Bft)
08.10.2016 14:48 5,9 C 5,9 C 91 % 1019,8 hPa 0,0 mm 0,0 km/h (0 Bft) N-NO 24 0 min 0,000 mm 0,9 UV-I 120 W/m 4,5 C 0,0 km/h (0 Bft)
08.10.2016 14:49 5,9 C 5,9 C 91 % 1019,8 hPa 0,0 mm 0,0 km/h (0 Bft) N-NO 24 0 min 0,000 mm 0,9 UV-I 118 W/m 4,5 C 0,0 km/h (0 Bft)
08.10.2016 14:50 6,1 C 6,1 C 92 % 1019,8 hPa 0,0 mm 0,0 km/h (0 Bft) N-NO 24 0 min 0,000 mm 0,9 UV-I 118 W/m 4,9 C 0,0 km/h (0 Bft)
08.10.2016 14:51 6,1 C 6,1 C 92 % 1019,8 hPa 0,0 mm 0,0 km/h (0 Bft) N-NO 24 0 min 0,000 mm 0,9 UV-I 118 W/m 4,9 C 0,0 km/h (0 Bft)
08.10.2016 14:52 6,1 C 6,1 C 91 % 1019,8 hPa 0,0 mm 0,0 km/h (0 Bft) N-NO 24 0 min 0,000 mm 1,0 UV-I 120 W/m 4,7 C 0,0 km/h (0 Bft)
08.10.2016 14:53 6,1 C 6,1 C 90 % 1019,8 hPa 0,0 mm 0,0 km/h (0 Bft) N-NO 24 0 min 0,000 mm 1,0 UV-I 123 W/m 4,6 C 0,0 km/h (0 Bft)
08.10.2016 14:54 6,1 C 6,1 C 90 % 1019,8 hPa 0,0 mm 0,0 km/h (0 Bft) N-NO 24 0 min 0,000 mm 1,0 UV-I 127 W/m 4,6 C 0,0 km/h (0 Bft)
08.10.2016 14:55 6,0 C 6,1 C 89 % 1019,8 hPa 0,0 mm 0,0 km/h (0 Bft) N-NO 24 0 min 0,000 mm 1,0 UV-I 127 W/m 4,3 C 0,0 km/h (0 Bft)
08.10.2016 14:56 6,0 C 6,0 C 90 % 1019,8 hPa 0,0 mm 0,0 km/h (0 Bft) N-NO 24 0 min 0,000 mm 1,0 UV-I 120 W/m 4,5 C 0,0 km/h (0 Bft)
08.10.2016 14:57 6,1 C 6,1 C 90 % 1019,8 hPa 0,0 mm 0,0 km/h (0 Bft) N-NO 24 0 min 0,000 mm 1,0 UV-I 116 W/m 4,6 C 0,0 km/h (0 Bft)
08.10.2016 14:58 6,1 C 6,1 C 90 % 1019,8 hPa 0,0 mm 0,0 km/h (0 Bft) N-NO 24 0 min 0,000 mm 0,9 UV-I 116 W/m 4,6 C 0,0 km/h (0 Bft)
08.10.2016 14:59 6,1 C 6,1 C 91 % 1019,8 hPa 0,0 mm 0,0 km/h (0 Bft) N-NO 24 0 min 0,000 mm 1,0 UV-I 118 W/m 4,7 C 0,0 km/h (0 Bft)
08.10.2016 15:00 6,2 C 6,2 C 92 % 1019,8 hPa 0,0 mm 0,0 km/h (0 Bft) N-NO 24 0 min 0,000 mm 1,0 UV-I 123 W/m 5,0 C 0,0 km/h (0 Bft)
08.10.2016 15:01 6,2 C 6,2 C 90 % 1019,8 hPa 0,0 mm 0,0 km/h (0 Bft) N-NO 24 0 min 0,051 mm 1,0 UV-I 134 W/m 4,7 C 0,0 km/h (0 Bft)
08.10.2016 15:02 6,2 C 6,2 C 90 % 1019,8 hPa 0,0 mm 0,0 km/h (0 Bft) N-NO 24 0 min 0,000 mm 1,0 UV-I 141 W/m 4,7 C 0,0 km/h (0 Bft)
08.10.2016 15:03 6,2 C 6,2 C 91 % 1019,8 hPa 0,0 mm 0,0 km/h (0 Bft) N-NO 24 0 min 0,000 mm 1,1 UV-I 148 W/m 4,8 C 0,0 km/h (0 Bft)
08.10.2016 15:04 6,3 C 6,3 C 92 % 1019,8 hPa 0,0 mm 0,0 km/h (0 Bft) N-NO 24 0 min 0,000 mm 1,1 UV-I 151 W/m 5,1 C 0,0 km/h (0 Bft)
08.10.2016 15:05 6,3 C 6,3 C 91 % 1019,8 hPa 0,0 mm 0,0 km/h (0 Bft) N-NO 24 0 min 0,000 mm 1,1 UV-I 158 W/m 4,9 C 0,0 km/h (0 Bft)
08.10.2016 15:06 6,3 C 6,3 C 91 % 1019,8 hPa 0,0 mm 0,0 km/h (0 Bft) N-NO 24 0 min 0,000 mm 1,1 UV-I 165 W/m 4,9 C 0,0 km/h (0 Bft)
08.10.2016 15:07 6,3 C 6,4 C 91 % 1019,8 hPa 0,0 mm 0,0 km/h (0 Bft) N-NO 24 0 min 0,000 mm 1,1 UV-I 169 W/m 4,9 C 0,0 km/h (0 Bft)
08.10.2016 15:08 6,3 C 6,3 C 90 % 1019,8 hPa 0,0 mm 0,0 km/h (0 Bft) N-NO 24 0 min 0,000 mm 1,2 UV-I 176 W/m 4,8 C 0,0 km/h (0 Bft)
08.10.2016 15:09 6,3 C 6,3 C 89 % 1019,9 hPa 0,0 mm 0,0 km/h (0 Bft) N-NO 24 0 min 0,000 mm 1,2 UV-I 179 W/m 4,6 C 0,0 km/h (0 Bft)
08.10.2016 15:10 6,3 C 6,3 C 89 % 1019,8 hPa 0,0 mm 0,0 km/h (0 Bft) N-NO 24 0 min 0,000 mm 1,2 UV-I 183 W/m 4,6 C 0,0 km/h (0 Bft)
08.10.2016 15:11 6,3 C 6,3 C 89 % 1019,9 hPa 0,0 mm 0,0 km/h (0 Bft) N-NO 24 0 min 0,000 mm 1,2 UV-I 188 W/m 4,6 C 0,0 km/h (0 Bft)
08.10.2016 15:12 6,4 C 6,4 C 90 % 1019,9 hPa 0,0 mm 0,0 km/h (0 Bft) N-NO 24 0 min 0,000 mm 1,2 UV-I 192 W/m 4,9 C 0,0 km/h (0 Bft)
08.10.2016 15:13 6,4 C 6,4 C 90 % 1019,8 hPa 0,0 mm 0,0 km/h (0 Bft) N-NO 24 0 min 0,000 mm 1,2 UV-I 193 W/m 4,9 C 0,0 km/h (0 Bft)
08.10.2016 15:14 6,5 C 6,5 C 90 % 1019,9 hPa 0,0 mm 0,0 km/h (0 Bft) N-NW 331 0 min 0,000 mm 1,2 UV-I 193 W/m 5,0 C 0,0 km/h (0 Bft)
08.10.2016 15:15 6,4 C 6,5 C 89 % 1019,9 hPa 0,0 mm 0,0 km/h (0 Bft) N-NW 331 0 min 0,000 mm 1,2 UV-I 193 W/m 4,7 C 0,0 km/h (0 Bft)
08.10.2016 15:16 6,4 C 6,5 C 89 % 1019,9 hPa 0,0 mm 0,0 km/h (0 Bft) N-NW 331 0 min 0,000 mm 1,2 UV-I 195 W/m 4,7 C 0,0 km/h (0 Bft)
08.10.2016 15:17 6,4 C 6,4 C 88 % 1019,9 hPa 0,0 mm 0,0 km/h (0 Bft) N-NW 331 0 min 0,000 mm 1,2 UV-I 197 W/m 4,6 C 0,0 km/h (0 Bft)
08.10.2016 15:18 6,3 C 6,4 C 89 % 1019,9 hPa 0,0 mm 0,0 km/h (0 Bft) N-NW 331 0 min 0,000 mm 1,2 UV-I 197 W/m 4,6 C 0,0 km/h (0 Bft)
08.10.2016 15:19 6,4 C 6,4 C 89 % 1019,9 hPa 0,0 mm 0,0 km/h (0 Bft) N-NW 331 0 min 0,000 mm 1,2 UV-I 190 W/m 4,7 C 0,0 km/h (0 Bft)
08.10.2016 15:20 6,4 C 6,4 C 89 % 1019,9 hPa 0,0 mm 0,0 km/h (0 Bft) N-NW 331 0 min 0,000 mm 1,2 UV-I 185 W/m 4,7 C 0,0 km/h (0 Bft)
08.10.2016 15:21 6,4 C 6,4 C 90 % 1019,9 hPa 0,0 mm 0,0 km/h (0 Bft) W-NW 287 0 min 0,000 mm 1,1 UV-I 178 W/m 4,9 C 0,0 km/h (0 Bft)
08.10.2016 15:22 6,5 C 6,5 C 90 % 1020,0 hPa 0,0 mm 0,0 km/h (0 Bft) W-NW 287 0 min 0,000 mm 1,1 UV-I 169 W/m 5,0 C 0,0 km/h (0 Bft)
08.10.2016 15:23 6,6 C 6,6 C 89 % 1020,0 hPa 0,0 mm 0,0 km/h (0 Bft) W-NW 287 0 min 0,000 mm 1,1 UV-I 160 W/m 4,9 C 0,0 km/h (0 Bft)
08.10.2016 15:24 6,5 C 6,6 C 87 % 1020,0 hPa 0,0 mm 0,0 km/h (0 Bft) W-NW 287 0 min 0,000 mm 1,0 UV-I 151 W/m 4,5 C 0,0 km/h (0 Bft)
08.10.2016 15:25 6,4 C 6,5 C 86 % 1020,0 hPa 0,0 mm 0,0 km/h (0 Bft) W-NW 287 0 min 0,000 mm 1,0 UV-I 141 W/m 4,2 C 0,0 km/h (0 Bft)
08.10.2016 15:26 6,4 C 6,4 C 87 % 1020,0 hPa 0,0 mm 0,0 km/h (0 Bft) W-NW 287 0 min 0,000 mm 1,0 UV-I 135 W/m 4,4 C 0,0 km/h (0 Bft)
08.10.2016 15:27 6,4 C 6,4 C 86 % 1020,0 hPa 0,0 mm 0,0 km/h (0 Bft) W-NW 287 0 min 0,000 mm 0,9 UV-I 134 W/m 4,2 C 0,0 km/h (0 Bft)
08.10.2016 15:28 6,4 C 6,4 C 89 % 1020,1 hPa 0,0 mm 0,0 km/h (0 Bft) W-NW 287 0 min 0,000 mm 0,9 UV-I 132 W/m 4,7 C 0,0 km/h (0 Bft)
08.10.2016 15:29 6,5 C 6,5 C 87 % 1020,1 hPa 0,0 mm 0,0 km/h (0 Bft) W-NW 287 0 min 0,000 mm 0,9 UV-I 130 W/m 4,5 C 0,0 km/h (0 Bft)
08.10.2016 15:30 6,5 C 6,5 C 88 % 1020,1 hPa 0,0 mm 0,0 km/h (0 Bft) W-NW 287 0 min 0,000 mm 0,9 UV-I 128 W/m 4,7 C 0,0 km/h (0 Bft)
08.10.2016 15:31 6,6 C 6,6 C 88 % 1020,1 hPa 0,0 mm 0,0 km/h (0 Bft) W-NW 287 0 min 0,000 mm 0,9 UV-I 125 W/m 4,8 C 0,0 km/h (0 Bft)
08.10.2016 15:32 6,5 C 6,6 C 86 % 1020,0 hPa 0,0 mm 0,0 km/h (0 Bft) W-NW 287 0 min 0,000 mm 0,9 UV-I 123 W/m 4,3 C 0,0 km/h (0 Bft)
08.10.2016 15:33 6,5 C 6,6 C 86 % 1020,1 hPa 0,0 mm 0,0 km/h (0 Bft) W-NW 287 0 min 0,000 mm 0,9 UV-I 123 W/m 4,3 C 0,0 km/h (0 Bft)
08.10.2016 15:34 6,4 C 6,5 C 85 % 1020,1 hPa 0,0 mm 0,0 km/h (0 Bft) W-NW 287 0 min 0,000 mm 0,9 UV-I 125 W/m 4,1 C 0,0 km/h (0 Bft)
08.10.2016 15:35 6,5 C 6,5 C 86 % 1020,1 hPa 0,0 mm 0,0 km/h (0 Bft) W-NW 287 0 min 0,000 mm 0,9 UV-I 125 W/m 4,3 C 0,0 km/h (0 Bft)
08.10.2016 15:36 6,4 C 6,5 C 86 % 1020,1 hPa 0,0 mm 0,0 km/h (0 Bft) W-NW 287 0 min 0,000 mm 0,9 UV-I 125 W/m 4,2 C 0,0 km/h (0 Bft)
08.10.2016 15:37 6,4 C 6,5 C 86 % 1020,1 hPa 0,0 mm 0,0 km/h (0 Bft) W-NW 287 0 min 0,000 mm 0,9 UV-I 121 W/m 4,2 C 0,0 km/h (0 Bft)
08.10.2016 15:38 6,5 C 6,5 C 87 % 1020,1 hPa 0,0 mm 0,0 km/h (0 Bft) W-NW 287 0 min 0,000 mm 0,9 UV-I 120 W/m 4,5 C 0,0 km/h (0 Bft)
08.10.2016 15:39 6,4 C 6,5 C 89 % 1020,1 hPa 0,0 mm 0,0 km/h (0 Bft) W-NW 287 0 min 0,000 mm 0,9 UV-I 118 W/m 4,7 C 0,0 km/h (0 Bft)
08.10.2016 15:40 6,4 C 6,5 C 89 % 1020,1 hPa 0,0 mm 0,0 km/h (0 Bft) W-NW 287 0 min 0,000 mm 0,9 UV-I 116 W/m 4,7 C 0,0 km/h (0 Bft)
08.10.2016 15:41 6,4 C 6,4 C 90 % 1020,1 hPa 0,0 mm 0,0 km/h (0 Bft) W-NW 287 0 min 0,000 mm 0,8 UV-I 114 W/m 4,9 C 0,0 km/h (0 Bft)
08.10.2016 15:42 6,4 C 6,4 C 90 % 1020,1 hPa 0,0 mm 0,0 km/h (0 Bft) W-NW 287 0 min 0,000 mm 0,8 UV-I 111 W/m 4,9 C 0,0 km/h (0 Bft)
08.10.2016 15:43 6,3 C 6,4 C 90 % 1020,1 hPa 0,0 mm 0,0 km/h (0 Bft) W-NW 287 0 min 0,000 mm 0,8 UV-I 107 W/m 4,8 C 0,0 km/h (0 Bft)
08.10.2016 15:44 6,3 C 6,3 C 91 % 1020,1 hPa 0,0 mm 0,0 km/h (0 Bft) W-NW 287 0 min 0,000 mm 0,8 UV-I 107 W/m 4,9 C 0,0 km/h (0 Bft)
08.10.2016 15:45 6,3 C 6,3 C 91 % 1020,1 hPa 0,0 mm 0,0 km/h (0 Bft) W-NW 287 0 min 0,000 mm 0,8 UV-I 102 W/m 4,9 C 0,0 km/h (0 Bft)
08.10.2016 15:46 6,2 C 6,3 C 91 % 1020,1 hPa 0,0 mm 0,0 km/h (0 Bft) W-NW 287 0 min 0,000 mm 0,7 UV-I 100 W/m 4,8 C 0,0 km/h (0 Bft)
08.10.2016 15:47 6,2 C 6,2 C 91 % 1020,1 hPa 0,0 mm 0,0 km/h (0 Bft) W-NW 287 0 min 0,000 mm 0,7 UV-I 98 W/m 4,8 C 0,0 km/h (0 Bft)
08.10.2016 15:48 6,2 C 6,2 C 91 % 1020,1 hPa 0,0 mm 0,0 km/h (0 Bft) W-NW 287 0 min 0,000 mm 0,7 UV-I 93 W/m 4,8 C 0,0 km/h (0 Bft)
08.10.2016 15:49 6,2 C 6,2 C 91 % 1020,1 hPa 0,0 mm 0,0 km/h (0 Bft) W-NW 287 0 min 0,000 mm 0,6 UV-I 79 W/m 4,8 C 0,0 km/h (0 Bft)
08.10.2016 15:50 6,2 C 6,2 C 91 % 1020,1 hPa 0,0 mm 0,0 km/h (0 Bft) W-NW 287 0 min 0,000 mm 0,5 UV-I 70 W/m 4,8 C 0,0 km/h (0 Bft)
08.10.2016 15:51 6,1 C 6,2 C 91 % 1020,1 hPa 0,0 mm 0,0 km/h (0 Bft) W-NW 287 0 min 0,000 mm 0,5 UV-I 65 W/m 4,7 C 0,0 km/h (0 Bft)
08.10.2016 15:52 6,1 C 6,1 C 91 % 1020,2 hPa 0,0 mm 0,0 km/h (0 Bft) W-NW 287 0 min 0,000 mm 0,0 UV-I 60 W/m 4,7 C 0,0 km/h (0 Bft)
08.10.2016 15:53 6,1 C 6,1 C 91 % 1020,2 hPa 0,0 mm 0,0 km/h (0 Bft) W-NW 287 0 min 0,000 mm 0,0 UV-I 54 W/m 4,7 C 0,0 km/h (0 Bft)
08.10.2016 15:54 6,1 C 6,1 C 91 % 1020,2 hPa 0,0 mm 0,0 km/h (0 Bft) W-NW 287 0 min 0,000 mm 0,0 UV-I 51 W/m 4,7 C 0,0 km/h (0 Bft)
08.10.2016 15:55 6,0 C 6,1 C 91 % 1020,1 hPa 0,0 mm 0,0 km/h (0 Bft) W-NW 287 0 min 0,000 mm 0,0 UV-I 46 W/m 4,6 C 0,0 km/h (0 Bft)
08.10.2016 15:56 6,0 C 6,0 C 92 % 1020,2 hPa 0,0 mm 0,0 km/h (0 Bft) W-NW 287 0 min 0,000 mm 0,0 UV-I 42 W/m 4,8 C 0,0 km/h (0 Bft)
08.10.2016 15:57 5,9 C 6,0 C 92 % 1020,2 hPa 0,0 mm 0,0 km/h (0 Bft) W-NW 287 0 min 0,000 mm 0,0 UV-I 42 W/m 4,7 C 0,0 km/h (0 Bft)
08.10.2016 15:58 5,9 C 5,9 C 92 % 1020,2 hPa 0,0 mm 0,0 km/h (0 Bft) W-NW 287 0 min 0,000 mm 0,0 UV-I 42 W/m 4,7 C 0,0 km/h (0 Bft)
08.10.2016 15:59 5,9 C 5,9 C 93 % 1020,1 hPa 0,0 mm 0,0 km/h (0 Bft) W-NW 287 0 min 0,000 mm 0,0 UV-I 42 W/m 4,9 C 0,0 km/h (0 Bft)
08.10.2016 16:00 5,9 C 5,9 C 93 % 1020,2 hPa 0,0 mm 0,0 km/h (0 Bft) W-NW 287 0 min 0,000 mm 0,0 UV-I 40 W/m 4,9 C 0,0 km/h (0 Bft)
08.10.2016 16:01 5,9 C 5,9 C 93 % 1020,2 hPa 0,0 mm 0,0 km/h (0 Bft) W-NW 287 0 min 0,051 mm 0,0 UV-I 39 W/m 4,9 C 0,0 km/h (0 Bft)
08.10.2016 16:02 5,8 C 5,9 C 93 % 1020,2 hPa 0,0 mm 0,0 km/h (0 Bft) W-NW 287 0 min 0,000 mm 0,0 UV-I 39 W/m 4,8 C 0,0 km/h (0 Bft)
08.10.2016 16:03 5,8 C 5,8 C 93 % 1020,2 hPa 0,0 mm 0,0 km/h (0 Bft) W-NW 287 0 min 0,000 mm 0,0 UV-I 39 W/m 4,8 C 0,0 km/h (0 Bft)
08.10.2016 16:04 5,8 C 5,9 C 93 % 1020,2 hPa 0,0 mm 0,0 km/h (0 Bft) W-NW 287 0 min 0,000 mm 0,0 UV-I 40 W/m 4,8 C 0,0 km/h (0 Bft)
08.10.2016 16:05 5,8 C 5,8 C 93 % 1020,2 hPa 0,0 mm 0,0 km/h (0 Bft) W-NW 287 0 min 0,000 mm 0,0 UV-I 39 W/m 4,8 C 0,0 km/h (0 Bft)
08.10.2016 16:06 5,8 C 5,8 C 94 % 1020,2 hPa 0,0 mm 0,0 km/h (0 Bft) W-NW 287 0 min 0,000 mm 0,0 UV-I 35 W/m 4,9 C 0,0 km/h (0 Bft)
08.10.2016 16:07 5,8 C 5,8 C 94 % 1020,3 hPa 0,0 mm 0,0 km/h (0 Bft) W-NW 287 0 min 0,000 mm 0,0 UV-I 35 W/m 4,9 C 0,0 km/h (0 Bft)
08.10.2016 16:08 5,8 C 5,8 C 94 % 1020,3 hPa 0,0 mm 0,0 km/h (0 Bft) W-NW 287 0 min 0,000 mm 0,0 UV-I 33 W/m 4,9 C 0,0 km/h (0 Bft)
08.10.2016 16:09 5,8 C 5,8 C 94 % 1020,3 hPa 0,0 mm 0,0 km/h (0 Bft) W-NW 287 0 min 0,000 mm 0,0 UV-I 33 W/m 4,9 C 0,0 km/h (0 Bft)
08.10.2016 16:10 5,8 C 5,8 C 93 % 1020,3 hPa 0,0 mm 0,0 km/h (0 Bft) W-NW 287 0 min 0,000 mm 0,0 UV-I 35 W/m 4,8 C 0,0 km/h (0 Bft)
08.10.2016 16:11 5,8 C 5,8 C 93 % 1020,3 hPa 0,0 mm 0,0 km/h (0 Bft) W-NW 287 0 min 0,000 mm 0,0 UV-I 35 W/m 4,8 C 0,0 km/h (0 Bft)
08.10.2016 16:12 5,8 C 5,8 C 93 % 1020,3 hPa 0,0 mm 0,0 km/h (0 Bft) W-NW 287 0 min 0,000 mm 0,0 UV-I 35 W/m 4,8 C 0,0 km/h (0 Bft)
08.10.2016 16:13 5,8 C 5,8 C 93 % 1020,3 hPa 0,0 mm 0,0 km/h (0 Bft) W-NW 287 0 min 0,000 mm 0,0 UV-I 39 W/m 4,8 C 0,0 km/h (0 Bft)
08.10.2016 16:14 5,8 C 5,8 C 93 % 1020,3 hPa 0,0 mm 0,0 km/h (0 Bft) W-NW 287 0 min 0,000 mm 0,0 UV-I 39 W/m 4,8 C 0,0 km/h (0 Bft)
08.10.2016 16:15 5,8 C 5,8 C 93 % 1020,3 hPa 0,0 mm 0,0 km/h (0 Bft) W-NW 287 0 min 0,000 mm 0,0 UV-I 40 W/m 4,8 C 0,0 km/h (0 Bft)
08.10.2016 16:16 5,8 C 5,8 C 93 % 1020,2 hPa 0,0 mm 0,0 km/h (0 Bft) W-NW 287 0 min 0,000 mm 0,0 UV-I 40 W/m 4,8 C 0,0 km/h (0 Bft)
08.10.2016 16:17 5,8 C 5,8 C 93 % 1020,3 hPa 0,0 mm 0,0 km/h (0 Bft) W-NW 287 0 min 0,000 mm 0,0 UV-I 42 W/m 4,8 C 0,0 km/h (0 Bft)
08.10.2016 16:18 5,8 C 5,8 C 93 % 1020,2 hPa 0,0 mm 0,0 km/h (0 Bft) W-NW 287 0 min 0,000 mm 0,0 UV-I 44 W/m 4,8 C 0,0 km/h (0 Bft)
08.10.2016 16:19 5,8 C 5,8 C 93 % 1020,2 hPa 0,0 mm 0,0 km/h (0 Bft) W-NW 287 0 min 0,000 mm 0,0 UV-I 44 W/m 4,8 C 0,0 km/h (0 Bft)
08.10.2016 16:20 5,8 C 5,8 C 93 % 1020,3 hPa 0,0 mm 0,0 km/h (0 Bft) W-NW 287 0 min 0,000 mm 0,0 UV-I 44 W/m 4,8 C 0,0 km/h (0 Bft)
08.10.2016 16:21 5,8 C 5,8 C 92 % 1020,3 hPa 0,0 mm 0,0 km/h (0 Bft) W-NW 287 0 min 0,000 mm 0,0 UV-I 44 W/m 4,6 C 0,0 km/h (0 Bft)
08.10.2016 16:22 5,8 C 5,8 C 92 % 1020,3 hPa 0,0 mm 0,0 km/h (0 Bft) W-NW 287 0 min 0,000 mm 0,0 UV-I 44 W/m 4,6 C 0,0 km/h (0 Bft)
08.10.2016 16:23 5,7 C 5,8 C 92 % 1020,3 hPa 0,0 mm 0,0 km/h (0 Bft) W-NW 287 0 min 0,000 mm 0,0 UV-I 46 W/m 4,5 C 0,0 km/h (0 Bft)
08.10.2016 16:24 5,7 C 5,8 C 92 % 1020,3 hPa 0,0 mm 0,0 km/h (0 Bft) W-NW 287 0 min 0,000 mm 0,0 UV-I 46 W/m 4,5 C 0,0 km/h (0 Bft)
08.10.2016 16:25 5,7 C 5,7 C 92 % 1020,3 hPa 0,0 mm 0,0 km/h (0 Bft) W-NW 287 0 min 0,000 mm 0,0 UV-I 44 W/m 4,5 C 0,0 km/h (0 Bft)
08.10.2016 16:26 5,7 C 5,7 C 91 % 1020,3 hPa 0,0 mm 0,0 km/h (0 Bft) W-NW 287 0 min 0,000 mm 0,0 UV-I 44 W/m 4,3 C 0,0 km/h (0 Bft)
08.10.2016 16:27 5,7 C 5,7 C 92 % 1020,3 hPa 0,0 mm 0,0 km/h (0 Bft) W-NW 287 0 min 0,000 mm 0,0 UV-I 44 W/m 4,5 C 0,0 km/h (0 Bft)
08.10.2016 16:28 5,6 C 5,7 C 92 % 1020,3 hPa 0,0 mm 0,0 km/h (0 Bft) W-NW 287 0 min 0,000 mm 0,0 UV-I 44 W/m 4,4 C 0,0 km/h (0 Bft)
08.10.2016 16:29 5,6 C 5,6 C 92 % 1020,3 hPa 0,0 mm 0,0 km/h (0 Bft) W-NW 287 0 min 0,000 mm 0,0 UV-I 46 W/m 4,4 C 0,0 km/h (0 Bft)
08.10.2016 16:30 5,6 C 5,6 C 92 % 1020,4 hPa 0,0 mm 0,0 km/h (0 Bft) W-NW 287 0 min 0,000 mm 0,0 UV-I 47 W/m 4,4 C 0,0 km/h (0 Bft)
08.10.2016 16:31 5,5 C 5,6 C 92 % 1020,4 hPa 0,0 mm 0,0 km/h (0 Bft) W-NW 287 0 min 0,000 mm 0,0 UV-I 47 W/m 4,3 C 0,0 km/h (0 Bft)
08.10.2016 16:32 5,5 C 5,5 C 92 % 1020,4 hPa 0,0 mm 0,0 km/h (0 Bft) W-NW 287 0 min 0,000 mm 0,0 UV-I 49 W/m 4,3 C 0,0 km/h (0 Bft)
08.10.2016 16:33 5,4 C 5,5 C 92 % 1020,4 hPa 0,0 mm 0,0 km/h (0 Bft) W-NW 287 0 min 0,000 mm 0,0 UV-I 51 W/m 4,2 C 0,0 km/h (0 Bft)
08.10.2016 16:34 5,4 C 5,4 C 92 % 1020,4 hPa 0,0 mm 0,0 km/h (0 Bft) W-NW 287 0 min 0,000 mm 0,0 UV-I 53 W/m 4,2 C 0,0 km/h (0 Bft)
08.10.2016 16:35 5,4 C 5,4 C 92 % 1020,4 hPa 0,0 mm 0,0 km/h (0 Bft) W-NW 287 0 min 0,000 mm 0,0 UV-I 54 W/m 4,2 C 0,0 km/h (0 Bft)
08.10.2016 16:36 5,4 C 5,4 C 93 % 1020,4 hPa 0,0 mm 0,0 km/h (0 Bft) W-NW 287 0 min 0,000 mm 0,0 UV-I 56 W/m 4,4 C 0,0 km/h (0 Bft)
08.10.2016 16:37 5,4 C 5,4 C 93 % 1020,4 hPa 0,0 mm 0,0 km/h (0 Bft) W-NW 287 0 min 0,000 mm 0,0 UV-I 56 W/m 4,4 C 0,0 km/h (0 Bft)
08.10.2016 16:38 5,4 C 5,4 C 93 % 1020,4 hPa 0,0 mm 0,0 km/h (0 Bft) W-NW 287 0 min 0,000 mm 0,0 UV-I 54 W/m 4,4 C 0,0 km/h (0 Bft)
08.10.2016 16:39 5,4 C 5,4 C 93 % 1020,4 hPa 0,0 mm 0,0 km/h (0 Bft) W-NW 287 0 min 0,000 mm 0,0 UV-I 54 W/m 4,4 C 0,0 km/h (0 Bft)
08.10.2016 16:40 5,4 C 5,4 C 93 % 1020,4 hPa 0,0 mm 0,0 km/h (0 Bft) W-NW 287 0 min 0,000 mm 0,0 UV-I 53 W/m 4,4 C 0,0 km/h (0 Bft)
08.10.2016 16:41 5,4 C 5,4 C 93 % 1020,4 hPa 0,0 mm 0,0 km/h (0 Bft) W-NW 287 0 min 0,000 mm 0,0 UV-I 49 W/m 4,4 C 0,0 km/h (0 Bft)
08.10.2016 16:42 5,4 C 5,4 C 93 % 1020,4 hPa 0,0 mm 0,0 km/h (0 Bft) W-NW 287 0 min 0,000 mm 0,0 UV-I 47 W/m 4,4 C 0,0 km/h (0 Bft)
08.10.2016 16:43 5,4 C 5,4 C 93 % 1020,4 hPa 0,0 mm 0,0 km/h (0 Bft) W-NW 287 0 min 0,000 mm 0,0 UV-I 47 W/m 4,4 C 0,0 km/h (0 Bft)
08.10.2016 16:44 5,4 C 5,4 C 93 % 1020,4 hPa 0,0 mm 0,0 km/h (0 Bft) W-NW 287 0 min 0,000 mm 0,0 UV-I 46 W/m 4,4 C 0,0 km/h (0 Bft)
08.10.2016 16:45 5,4 C 5,4 C 93 % 1020,4 hPa 0,0 mm 0,0 km/h (0 Bft) W-NW 287 0 min 0,000 mm 0,0 UV-I 44 W/m 4,4 C 0,0 km/h (0 Bft)
08.10.2016 16:46 5,4 C 5,4 C 93 % 1020,5 hPa 0,0 mm 0,0 km/h (0 Bft) W-NW 287 0 min 0,000 mm 0,0 UV-I 42 W/m 4,4 C 0,0 km/h (0 Bft)
08.10.2016 16:47 5,4 C 5,4 C 93 % 1020,5 hPa 0,0 mm 0,0 km/h (0 Bft) W-NW 287 0 min 0,000 mm 0,0 UV-I 39 W/m 4,4 C 0,0 km/h (0 Bft)
08.10.2016 16:48 5,5 C 5,5 C 93 % 1020,5 hPa 0,0 mm 0,0 km/h (0 Bft) W-NW 287 0 min 0,000 mm 0,0 UV-I 33 W/m 4,5 C 0,0 km/h (0 Bft)
08.10.2016 16:49 5,5 C 5,5 C 93 % 1020,5 hPa 0,0 mm 0,0 km/h (0 Bft) W-NW 287 0 min 0,000 mm 0,0 UV-I 32 W/m 4,5 C 0,0 km/h (0 Bft)
08.10.2016 16:50 5,5 C 5,5 C 94 % 1020,5 hPa 0,2 mm 0,0 km/h (0 Bft) W-NW 287 0 min 0,000 mm 0,0 UV-I 28 W/m 4,6 C 0,0 km/h (0 Bft)
08.10.2016 16:51 5,6 C 5,6 C 94 % 1020,5 hPa 0,0 mm 0,0 km/h (0 Bft) W-NW 287 0 min 0,000 mm 0,0 UV-I 26 W/m 4,7 C 0,0 km/h (0 Bft)
08.10.2016 16:52 5,5 C 5,6 C 94 % 1020,5 hPa 0,0 mm 0,0 km/h (0 Bft) W-NW 287 0 min 0,000 mm 0,0 UV-I 25 W/m 4,6 C 0,0 km/h (0 Bft)
08.10.2016 16:53 5,5 C 5,6 C 94 % 1020,5 hPa 0,0 mm 0,0 km/h (0 Bft) W-NW 287 0 min 0,000 mm 0,0 UV-I 21 W/m 4,6 C 0,0 km/h (0 Bft)
08.10.2016 16:54 5,5 C 5,5 C 94 % 1020,5 hPa 0,0 mm 0,0 km/h (0 Bft) W-NW 287 0 min 0,000 mm 0,0 UV-I 21 W/m 4,6 C 0,0 km/h (0 Bft)
08.10.2016 16:55 5,6 C 5,6 C 94 % 1020,5 hPa 0,0 mm 0,0 km/h (0 Bft) W-NW 287 0 min 0,000 mm 0,0 UV-I 21 W/m 4,7 C 0,0 km/h (0 Bft)
08.10.2016 16:56 5,5 C 5,6 C 94 % 1020,5 hPa 0,0 mm 0,0 km/h (0 Bft) W-NW 287 0 min 0,000 mm 0,0 UV-I 19 W/m 4,6 C 0,0 km/h (0 Bft)
08.10.2016 16:57 5,5 C 5,5 C 94 % 1020,5 hPa 0,0 mm 0,0 km/h (0 Bft) W-NW 287 0 min 0,000 mm 0,0 UV-I 19 W/m 4,6 C 0,0 km/h (0 Bft)
08.10.2016 16:58 5,5 C 5,5 C 94 % 1020,5 hPa 0,0 mm 0,0 km/h (0 Bft) W-NW 287 0 min 0,000 mm 0,0 UV-I 19 W/m 4,6 C 0,0 km/h (0 Bft)
08.10.2016 16:59 5,5 C 5,6 C 95 % 1020,5 hPa 0,0 mm 0,0 km/h (0 Bft) W-NW 287 0 min 0,000 mm 0,0 UV-I 16 W/m 4,8 C 0,0 km/h (0 Bft)
08.10.2016 17:00 5,6 C 5,6 C 95 % 1020,5 hPa 0,0 mm 0,0 km/h (0 Bft) W-NW 287 0 min 0,025 mm 0,0 UV-I 16 W/m 4,9 C 0,0 km/h (0 Bft)
08.10.2016 17:01 5,6 C 5,6 C 95 % 1020,5 hPa 0,0 mm 0,0 km/h (0 Bft) W-NW 287 0 min 0,000 mm 0,0 UV-I 14 W/m 4,9 C 0,0 km/h (0 Bft)
08.10.2016 17:02 5,6 C 5,6 C 95 % 1020,6 hPa 0,0 mm 0,0 km/h (0 Bft) W-NW 287 0 min 0,000 mm 0,0 UV-I 14 W/m 4,9 C 0,0 km/h (0 Bft)
08.10.2016 17:03 5,6 C 5,6 C 95 % 1020,6 hPa 0,0 mm 0,0 km/h (0 Bft) W-NW 287 0 min 0,000 mm 0,0 UV-I 14 W/m 4,9 C 0,0 km/h (0 Bft)
08.10.2016 17:04 5,7 C 5,7 C 95 % 1020,5 hPa 0,0 mm 0,0 km/h (0 Bft) W-NW 287 0 min 0,000 mm 0,0 UV-I 14 W/m 5,0 C 0,0 km/h (0 Bft)
08.10.2016 17:05 5,7 C 5,7 C 95 % 1020,6 hPa 0,0 mm 0,0 km/h (0 Bft) W-NW 287 0 min 0,000 mm 0,0 UV-I 14 W/m 5,0 C 0,0 km/h (0 Bft)
08.10.2016 17:06 5,7 C 5,7 C 95 % 1020,6 hPa 0,0 mm 0,0 km/h (0 Bft) W-NW 287 0 min 0,000 mm 0,0 UV-I 14 W/m 5,0 C 0,0 km/h (0 Bft)
08.10.2016 17:07 5,8 C 5,8 C 94 % 1020,6 hPa 0,0 mm 1,5 km/h (1 Bft) W-NW 288 0 min 0,000 mm 0,0 UV-I 14 W/m 4,9 C 3,2 km/h (1 Bft)
08.10.2016 17:08 5,8 C 5,8 C 94 % 1020,6 hPa 0,0 mm 3,4 km/h (1 Bft) NW 305 0 min 0,000 mm 0,0 UV-I 12 W/m 4,9 C 4,8 km/h (1 Bft)
08.10.2016 17:09 5,8 C 5,8 C 94 % 1020,7 hPa 0,0 mm 3,4 km/h (1 Bft) NW 306 0 min 0,000 mm 0,0 UV-I 12 W/m 4,9 C 4,8 km/h (1 Bft)
08.10.2016 17:10 5,8 C 5,8 C 94 % 1020,6 hPa 0,2 mm 4,1 km/h (1 Bft) NW 308 0 min 0,000 mm 0,0 UV-I 12 W/m 4,9 C 4,8 km/h (1 Bft)
08.10.2016 17:11 5,8 C 5,9 C 94 % 1020,7 hPa 0,0 mm 3,2 km/h (1 Bft) NW 309 0 min 0,000 mm 0,0 UV-I 12 W/m 4,9 C 4,8 km/h (1 Bft)
08.10.2016 17:12 5,9 C 5,9 C 94 % 1020,7 hPa 0,0 mm 2,2 km/h (1 Bft) NW 308 0 min 0,000 mm 0,0 UV-I 11 W/m 5,0 C 3,2 km/h (1 Bft)
08.10.2016 17:13 5,9 C 5,9 C 94 % 1020,7 hPa 0,0 mm 4,3 km/h (1 Bft) W-NW 295 0 min 0,000 mm 0,0 UV-I 11 W/m 5,0 C 6,4 km/h (2 Bft)
08.10.2016 17:14 5,9 C 5,9 C 94 % 1020,7 hPa 0,0 mm 4,0 km/h (1 Bft) NW 310 0 min 0,000 mm 0,0 UV-I 11 W/m 5,0 C 4,8 km/h (1 Bft)
08.10.2016 17:15 5,8 C 5,9 C 93 % 1020,8 hPa 0,0 mm 4,7 km/h (1 Bft) NW 311 0 min 0,000 mm 0,0 UV-I 11 W/m 4,8 C 8,0 km/h (2 Bft)
08.10.2016 17:16 5,8 C 5,8 C 93 % 1020,7 hPa 0,0 mm 5,0 km/h (1 Bft) N-NW 346 0 min 0,000 mm 0,0 UV-I 11 W/m 4,8 C 8,0 km/h (2 Bft)
08.10.2016 17:17 5,8 C 5,8 C 93 % 1020,7 hPa 0,0 mm 2,7 km/h (1 Bft) N 350 0 min 0,000 mm 0,0 UV-I 11 W/m 4,8 C 4,8 km/h (1 Bft)
08.10.2016 17:18 5,8 C 5,8 C 93 % 1020,7 hPa 0,0 mm 1,7 km/h (1 Bft) N-NW 335 0 min 0,000 mm 0,0 UV-I 11 W/m 4,8 C 3,2 km/h (1 Bft)
08.10.2016 17:19 5,8 C 5,8 C 93 % 1020,7 hPa 0,2 mm 2,3 km/h (1 Bft) N-NW 335 0 min 0,000 mm 0,0 UV-I 11 W/m 4,8 C 4,8 km/h (1 Bft)
08.10.2016 17:20 5,8 C 5,8 C 93 % 1020,7 hPa 0,0 mm 1,9 km/h (1 Bft) N-NW 335 0 min 0,000 mm 0,0 UV-I 12 W/m 4,8 C 3,2 km/h (1 Bft)
08.10.2016 17:21 5,7 C 5,8 C 93 % 1020,7 hPa 0,0 mm 2,8 km/h (1 Bft) NW 308 0 min 0,000 mm 0,0 UV-I 12 W/m 4,7 C 3,2 km/h (1 Bft)
08.10.2016 17:22 5,7 C 5,7 C 93 % 1020,7 hPa 0,0 mm 2,0 km/h (1 Bft) NW 306 0 min 0,000 mm 0,0 UV-I 14 W/m 4,7 C 3,2 km/h (1 Bft)
08.10.2016 17:23 5,7 C 5,7 C 93 % 1020,7 hPa 0,0 mm 1,6 km/h (1 Bft) NW 306 0 min 0,000 mm 0,0 UV-I 16 W/m 4,7 C 3,2 km/h (1 Bft)
08.10.2016 17:24 5,7 C 5,7 C 93 % 1020,7 hPa 0,0 mm 1,7 km/h (1 Bft) NW 306 0 min 0,000 mm 0,0 UV-I 18 W/m 4,7 C 3,2 km/h (1 Bft)
08.10.2016 17:25 5,7 C 5,7 C 93 % 1020,7 hPa 0,0 mm 0,6 km/h (0 Bft) NW 306 0 min 0,000 mm 0,0 UV-I 18 W/m 4,7 C 3,2 km/h (1 Bft)
08.10.2016 17:26 5,6 C 5,7 C 93 % 1020,7 hPa 0,0 mm 2,3 km/h (1 Bft) NW 306 0 min 0,000 mm 0,0 UV-I 19 W/m 4,6 C 3,2 km/h (1 Bft)
08.10.2016 17:27 5,6 C 5,6 C 94 % 1020,7 hPa 0,2 mm 1,7 km/h (1 Bft) NW 306 0 min 0,000 mm 0,0 UV-I 19 W/m 4,7 C 3,2 km/h (1 Bft)
08.10.2016 17:28 5,6 C 5,6 C 94 % 1020,7 hPa 0,0 mm 2,3 km/h (1 Bft) W 278 0 min 0,000 mm 0,0 UV-I 18 W/m 4,7 C 4,8 km/h (1 Bft)
08.10.2016 17:29 5,6 C 5,6 C 94 % 1020,8 hPa 0,0 mm 2,1 km/h (1 Bft) W 275 0 min 0,000 mm 0,0 UV-I 16 W/m 4,7 C 3,2 km/h (1 Bft)
08.10.2016 17:30 5,5 C 5,6 C 93 % 1020,8 hPa 0,0 mm 4,1 km/h (1 Bft) W 276 0 min 0,000 mm 0,0 UV-I 14 W/m 4,5 C 4,8 km/h (1 Bft)
08.10.2016 17:31 5,6 C 5,6 C 93 % 1020,8 hPa 0,0 mm 2,3 km/h (1 Bft) W 274 0 min 0,000 mm 0,0 UV-I 14 W/m 4,6 C 3,2 km/h (1 Bft)
08.10.2016 17:32 5,5 C 5,6 C 93 % 1020,8 hPa 0,0 mm 1,3 km/h (1 Bft) W 274 0 min 0,000 mm 0,0 UV-I 12 W/m 4,5 C 3,2 km/h (1 Bft)
08.10.2016 17:33 5,5 C 5,6 C 93 % 1020,8 hPa 0,0 mm 0,1 km/h (0 Bft) W 274 0 min 0,000 mm 0,0 UV-I 12 W/m 4,5 C 1,6 km/h (1 Bft)
08.10.2016 17:34 5,5 C 5,5 C 93 % 1020,8 hPa 0,0 mm 1,2 km/h (1 Bft) W 274 0 min 0,000 mm 0,0 UV-I 12 W/m 4,5 C 1,6 km/h (1 Bft)
08.10.2016 17:35 5,5 C 5,5 C 93 % 1020,8 hPa 0,0 mm 0,5 km/h (0 Bft) W 274 0 min 0,000 mm 0,0 UV-I 12 W/m 4,5 C 1,6 km/h (1 Bft)
08.10.2016 17:36 5,5 C 5,5 C 93 % 1020,8 hPa 0,0 mm 0,7 km/h (0 Bft) W 274 0 min 0,000 mm 0,0 UV-I 12 W/m 4,5 C 1,6 km/h (1 Bft)
08.10.2016 17:37 5,5 C 5,5 C 93 % 1020,8 hPa 0,0 mm 0,3 km/h (0 Bft) W 274 0 min 0,000 mm 0,0 UV-I 12 W/m 4,5 C 1,6 km/h (1 Bft)
08.10.2016 17:38 5,5 C 5,5 C 93 % 1020,8 hPa 0,2 mm 0,8 km/h (0 Bft) W 274 0 min 0,000 mm 0,0 UV-I 12 W/m 4,5 C 1,6 km/h (1 Bft)
08.10.2016 17:39 5,4 C 5,5 C 93 % 1020,8 hPa 0,0 mm 1,3 km/h (1 Bft) W 274 0 min 0,000 mm 0,0 UV-I 12 W/m 4,4 C 1,6 km/h (1 Bft)
08.10.2016 17:40 5,4 C 5,4 C 93 % 1020,8 hPa 0,0 mm 0,6 km/h (0 Bft) W 274 0 min 0,000 mm 0,0 UV-I 12 W/m 4,4 C 1,6 km/h (1 Bft)
08.10.2016 17:41 5,4 C 5,4 C 93 % 1020,8 hPa 0,0 mm 0,0 km/h (0 Bft) W 274 0 min 0,000 mm 0,0 UV-I 14 W/m 4,4 C 0,0 km/h (0 Bft)
08.10.2016 17:42 5,4 C 5,4 C 93 % 1020,8 hPa 0,0 mm 0,1 km/h (0 Bft) W 274 0 min 0,000 mm 0,0 UV-I 14 W/m 4,4 C 1,6 km/h (1 Bft)
08.10.2016 17:43 5,4 C 5,4 C 94 % 1020,9 hPa 0,0 mm 0,2 km/h (0 Bft) W 274 0 min 0,000 mm 0,0 UV-I 14 W/m 4,5 C 1,6 km/h (1 Bft)
08.10.2016 17:44 5,4 C 5,4 C 94 % 1020,9 hPa 0,0 mm 0,0 km/h (0 Bft) W 274 0 min 0,000 mm 0,0 UV-I 14 W/m 4,5 C 0,0 km/h (0 Bft)
08.10.2016 17:45 5,4 C 5,4 C 94 % 1020,8 hPa 0,0 mm 0,0 km/h (0 Bft) W 274 0 min 0,000 mm 0,0 UV-I 14 W/m 4,5 C 0,0 km/h (0 Bft)
08.10.2016 17:46 5,4 C 5,4 C 94 % 1020,8 hPa 0,0 mm 0,0 km/h (0 Bft) W 274 0 min 0,000 mm 0,0 UV-I 12 W/m 4,5 C 0,0 km/h (0 Bft)
08.10.2016 17:47 5,4 C 5,4 C 94 % 1020,9 hPa 0,0 mm 0,0 km/h (0 Bft) W 274 0 min 0,000 mm 0,0 UV-I 11 W/m 4,5 C 0,0 km/h (0 Bft)
08.10.2016 17:48 5,4 C 5,4 C 94 % 1020,9 hPa 0,0 mm 0,0 km/h (0 Bft) W 274 0 min 0,000 mm 0,0 UV-I 11 W/m 4,5 C 0,0 km/h (0 Bft)
08.10.2016 17:49 5,3 C 5,4 C 94 % 1020,9 hPa 0,0 mm 0,0 km/h (0 Bft) W 274 0 min 0,000 mm 0,0 UV-I 11 W/m 4,4 C 0,0 km/h (0 Bft)
08.10.2016 17:50 5,3 C 5,3 C 94 % 1020,9 hPa 0,0 mm 0,0 km/h (0 Bft) W 274 0 min 0,000 mm 0,0 UV-I 9 W/m 4,4 C 0,0 km/h (0 Bft)
08.10.2016 17:51 5,3 C 5,3 C 94 % 1020,9 hPa 0,0 mm 0,0 km/h (0 Bft) W 274 0 min 0,000 mm 0,0 UV-I 9 W/m 4,4 C 0,0 km/h (0 Bft)
08.10.2016 17:52 5,3 C 5,3 C 94 % 1021,0 hPa 0,0 mm 0,0 km/h (0 Bft) W 274 0 min 0,000 mm 0,0 UV-I 9 W/m 4,4 C 0,0 km/h (0 Bft)
08.10.2016 17:53 5,3 C 5,3 C 94 % 1021,0 hPa 0,0 mm 0,0 km/h (0 Bft) W 274 0 min 0,000 mm 0,0 UV-I 9 W/m 4,4 C 0,0 km/h (0 Bft)
08.10.2016 17:54 5,3 C 5,3 C 94 % 1021,0 hPa 0,0 mm 0,0 km/h (0 Bft) W 274 0 min 0,000 mm 0,0 UV-I 9 W/m 4,4 C 0,0 km/h (0 Bft)
08.10.2016 17:55 5,3 C 5,3 C 94 % 1021,0 hPa 0,2 mm 0,0 km/h (0 Bft) W 274 0 min 0,000 mm 0,0 UV-I 9 W/m 4,4 C 0,0 km/h (0 Bft)
08.10.2016 17:56 5,3 C 5,3 C 94 % 1021,0 hPa 0,0 mm 0,0 km/h (0 Bft) W 274 0 min 0,000 mm 0,0 UV-I 9 W/m 4,4 C 0,0 km/h (0 Bft)
08.10.2016 17:57 5,3 C 5,3 C 94 % 1021,0 hPa 0,0 mm 0,0 km/h (0 Bft) W 274 0 min 0,000 mm 0,0 UV-I 7 W/m 4,4 C 0,0 km/h (0 Bft)
08.10.2016 17:58 5,3 C 5,3 C 94 % 1021,0 hPa 0,0 mm 0,0 km/h (0 Bft) W 274 0 min 0,000 mm 0,0 UV-I 7 W/m 4,4 C 0,0 km/h (0 Bft)
08.10.2016 17:59 5,3 C 5,3 C 94 % 1021,0 hPa 0,0 mm 0,0 km/h (0 Bft) W 274 0 min 0,000 mm 0,0 UV-I 7 W/m 4,4 C 0,0 km/h (0 Bft)
08.10.2016 18:00 5,2 C 5,3 C 94 % 1021,0 hPa 0,0 mm 0,0 km/h (0 Bft) W 274 0 min 0,000 mm 0,0 UV-I 7 W/m 4,3 C 0,0 km/h (0 Bft)
08.10.2016 18:01 5,2 C 5,3 C 95 % 1021,0 hPa 0,0 mm 0,0 km/h (0 Bft) W 274 0 min 0,000 mm 0,0 UV-I 7 W/m 4,5 C 0,0 km/h (0 Bft)
08.10.2016 18:02 5,2 C 5,3 C 95 % 1021,0 hPa 0,0 mm 0,0 km/h (0 Bft) W 274 0 min 0,000 mm 0,0 UV-I 7 W/m 4,5 C 0,0 km/h (0 Bft)
08.10.2016 18:03 5,2 C 5,2 C 95 % 1021,0 hPa 0,0 mm 0,0 km/h (0 Bft) W 274 0 min 0,000 mm 0,0 UV-I 7 W/m 4,5 C 0,0 km/h (0 Bft)
08.10.2016 18:04 5,2 C 5,2 C 95 % 1021,1 hPa 0,0 mm 0,0 km/h (0 Bft) W 274 0 min 0,000 mm 0,0 UV-I 7 W/m 4,5 C 0,0 km/h (0 Bft)
08.10.2016 18:05 5,2 C 5,2 C 95 % 1021,0 hPa 0,0 mm 0,0 km/h (0 Bft) W 274 0 min 0,000 mm 0,0 UV-I 7 W/m 4,5 C 0,0 km/h (0 Bft)
08.10.2016 18:06 5,2 C 5,2 C 94 % 1021,1 hPa 0,0 mm 0,0 km/h (0 Bft) W 274 0 min 0,000 mm 0,0 UV-I 5 W/m 4,3 C 0,0 km/h (0 Bft)
08.10.2016 18:07 5,2 C 5,2 C 95 % 1021,0 hPa 0,0 mm 0,0 km/h (0 Bft) W 274 0 min 0,000 mm 0,0 UV-I 5 W/m 4,5 C 0,0 km/h (0 Bft)
08.10.2016 18:08 5,2 C 5,2 C 95 % 1021,1 hPa 0,0 mm 0,0 km/h (0 Bft) W 274 0 min 0,000 mm 0,0 UV-I 5 W/m 4,5 C 0,0 km/h (0 Bft)
08.10.2016 18:09 5,1 C 5,2 C 95 % 1021,1 hPa 0,0 mm 0,0 km/h (0 Bft) W 274 0 min 0,000 mm 0,0 UV-I 5 W/m 4,4 C 0,0 km/h (0 Bft)
08.10.2016 18:10 5,2 C 5,2 C 95 % 1021,1 hPa 0,0 mm 0,0 km/h (0 Bft) W 274 0 min 0,000 mm 0,0 UV-I 5 W/m 4,5 C 0,0 km/h (0 Bft)
08.10.2016 18:11 5,1 C 5,2 C 95 % 1021,1 hPa 0,0 mm 0,0 km/h (0 Bft) W 274 0 min 0,000 mm 0,0 UV-I 0 W/m 4,4 C 0,0 km/h (0 Bft)
08.10.2016 18:12 5,1 C 5,2 C 95 % 1021,1 hPa 0,0 mm 0,0 km/h (0 Bft) W 274 0 min 0,000 mm 0,0 UV-I 0 W/m 4,4 C 0,0 km/h (0 Bft)
08.10.2016 18:13 5,1 C 5,1 C 95 % 1021,1 hPa 0,0 mm 0,0 km/h (0 Bft) W 274 0 min 0,000 mm 0,0 UV-I 0 W/m 4,4 C 0,0 km/h (0 Bft)
08.10.2016 18:14 5,1 C 5,1 C 95 % 1021,1 hPa 0,0 mm 0,0 km/h (0 Bft) W 274 0 min 0,000 mm 0,0 UV-I 0 W/m 4,4 C 0,0 km/h (0 Bft)
08.10.2016 18:15 5,1 C 5,1 C 95 % 1021,1 hPa 0,0 mm 0,0 km/h (0 Bft) W 274 0 min 0,000 mm 0,0 UV-I 0 W/m 4,4 C 0,0 km/h (0 Bft)
08.10.2016 18:16 5,1 C 5,1 C 95 % 1021,1 hPa 0,0 mm 0,0 km/h (0 Bft) W 274 0 min 0,000 mm 0,0 UV-I 0 W/m 4,4 C 0,0 km/h (0 Bft)
08.10.2016 18:17 5,1 C 5,1 C 95 % 1021,1 hPa 0,0 mm 0,0 km/h (0 Bft) W 274 0 min 0,000 mm 0,0 UV-I 0 W/m 4,4 C 0,0 km/h (0 Bft)
08.10.2016 18:18 5,1 C 5,1 C 95 % 1021,1 hPa 0,0 mm 0,0 km/h (0 Bft) W 274 0 min 0,000 mm 0,0 UV-I 0 W/m 4,4 C 0,0 km/h (0 Bft)
08.10.2016 18:19 5,0 C 5,1 C 95 % 1021,1 hPa 0,0 mm 0,0 km/h (0 Bft) W 274 0 min 0,000 mm 0,0 UV-I 0 W/m 4,3 C 0,0 km/h (0 Bft)
08.10.2016 18:20 5,0 C 5,1 C 95 % 1021,2 hPa 0,0 mm 0,0 km/h (0 Bft) W 274 0 min 0,000 mm 0,0 UV-I 0 W/m 4,3 C 0,0 km/h (0 Bft)
08.10.2016 18:21 5,0 C 5,1 C 95 % 1021,2 hPa 0,0 mm 0,0 km/h (0 Bft) W 274 0 min 0,000 mm 0,0 UV-I 0 W/m 4,3 C 0,0 km/h (0 Bft)
08.10.2016 18:22 5,0 C 5,1 C 95 % 1021,2 hPa 0,0 mm 0,0 km/h (0 Bft) W 274 0 min 0,000 mm 0,0 UV-I 0 W/m 4,3 C 0,0 km/h (0 Bft)
08.10.2016 18:23 4,9 C 5,0 C 95 % 1021,3 hPa 0,0 mm 0,0 km/h (0 Bft) W 274 0 min 0,000 mm 0,0 UV-I 0 W/m 4,2 C 0,0 km/h (0 Bft)
08.10.2016 18:24 4,9 C 4,9 C 95 % 1021,2 hPa 0,0 mm 0,0 km/h (0 Bft) W 274 0 min 0,000 mm 0,0 UV-I 0 W/m 4,2 C 0,0 km/h (0 Bft)
08.10.2016 18:25 4,9 C 4,9 C 95 % 1021,2 hPa 0,0 mm 0,0 km/h (0 Bft) W 274 0 min 0,000 mm 0,0 UV-I 0 W/m 4,2 C 0,0 km/h (0 Bft)
08.10.2016 18:26 4,9 C 4,9 C 95 % 1021,3 hPa 0,0 mm 0,0 km/h (0 Bft) W 274 0 min 0,000 mm 0,0 UV-I 0 W/m 4,2 C 0,0 km/h (0 Bft)
08.10.2016 18:27 4,9 C 4,9 C 95 % 1021,3 hPa 0,0 mm 0,0 km/h (0 Bft) W 274 0 min 0,000 mm 0,0 UV-I 0 W/m 4,2 C 0,0 km/h (0 Bft)
08.10.2016 18:28 4,9 C 4,9 C 95 % 1021,3 hPa 0,0 mm 0,0 km/h (0 Bft) W 274 0 min 0,000 mm 0,0 UV-I 0 W/m 4,2 C 0,0 km/h (0 Bft)
08.10.2016 18:29 4,9 C 4,9 C 95 % 1021,3 hPa 0,0 mm 0,0 km/h (0 Bft) W 274 0 min 0,000 mm 0,0 UV-I 0 W/m 4,2 C 0,0 km/h (0 Bft)
08.10.2016 18:30 4,9 C 4,9 C 95 % 1021,3 hPa 0,0 mm 0,0 km/h (0 Bft) W 274 0 min 0,000 mm 0,0 UV-I 0 W/m 4,2 C 0,0 km/h (0 Bft)
08.10.2016 18:31 4,9 C 4,9 C 95 % 1021,3 hPa 0,0 mm 0,0 km/h (0 Bft) W 274 0 min 0,000 mm 0,0 UV-I 0 W/m 4,2 C 0,0 km/h (0 Bft)
08.10.2016 18:32 4,9 C 4,9 C 95 % 1021,3 hPa 0,0 mm 0,0 km/h (0 Bft) W 274 0 min 0,000 mm 0,0 UV-I 0 W/m 4,2 C 0,0 km/h (0 Bft)
08.10.2016 18:33 4,9 C 4,9 C 95 % 1021,4 hPa 0,0 mm 0,0 km/h (0 Bft) W 274 0 min 0,000 mm 0,0 UV-I 0 W/m 4,2 C 0,0 km/h (0 Bft)
08.10.2016 18:34 4,9 C 4,9 C 95 % 1021,3 hPa 0,0 mm 0,0 km/h (0 Bft) W 274 0 min 0,000 mm 0,0 UV-I 0 W/m 4,2 C 0,0 km/h (0 Bft)
08.10.2016 18:35 4,9 C 4,9 C 95 % 1021,3 hPa 0,2 mm 0,0 km/h (0 Bft) W 274 0 min 0,000 mm 0,0 UV-I 0 W/m 4,2 C 0,0 km/h (0 Bft)
08.10.2016 18:36 4,9 C 4,9 C 95 % 1021,3 hPa 0,0 mm 0,0 km/h (0 Bft) W 274 0 min 0,000 mm 0,0 UV-I 0 W/m 4,2 C 0,0 km/h (0 Bft)
08.10.2016 18:37 4,9 C 4,9 C 95 % 1021,3 hPa 0,0 mm 0,0 km/h (0 Bft) W 274 0 min 0,000 mm 0,0 UV-I 0 W/m 4,2 C 0,0 km/h (0 Bft)
08.10.2016 18:38 4,9 C 4,9 C 95 % 1021,4 hPa 0,0 mm 0,0 km/h (0 Bft) W 274 0 min 0,000 mm 0,0 UV-I 0 W/m 4,2 C 0,0 km/h (0 Bft)
08.10.2016 18:39 4,9 C 4,9 C 95 % 1021,4 hPa 0,0 mm 0,0 km/h (0 Bft) W 274 0 min 0,000 mm 0,0 UV-I 0 W/m 4,2 C 0,0 km/h (0 Bft)
08.10.2016 18:40 4,9 C 4,9 C 95 % 1021,4 hPa 0,0 mm 0,0 km/h (0 Bft) W 274 0 min 0,000 mm 0,0 UV-I 0 W/m 4,2 C 0,0 km/h (0 Bft)
08.10.2016 18:41 4,9 C 4,9 C 95 % 1021,4 hPa 0,0 mm 0,0 km/h (0 Bft) W 274 0 min 0,000 mm 0,0 UV-I 0 W/m 4,2 C 0,0 km/h (0 Bft)
08.10.2016 18:42 4,9 C 4,9 C 95 % 1021,4 hPa 0,0 mm 0,0 km/h (0 Bft) W 274 0 min 0,000 mm 0,0 UV-I 0 W/m 4,2 C 0,0 km/h (0 Bft)
08.10.2016 18:43 4,9 C 4,9 C 95 % 1021,4 hPa 0,0 mm 0,0 km/h (0 Bft) W 274 0 min 0,000 mm 0,0 UV-I 0 W/m 4,2 C 0,0 km/h (0 Bft)
08.10.2016 18:44 4,8 C 4,9 C 95 % 1021,4 hPa 0,0 mm 0,0 km/h (0 Bft) W 274 0 min 0,000 mm 0,0 UV-I 0 W/m 4,1 C 0,0 km/h (0 Bft)
08.10.2016 18:45 4,9 C 4,9 C 95 % 1021,4 hPa 0,0 mm 0,0 km/h (0 Bft) W 274 0 min 0,000 mm 0,0 UV-I 0 W/m 4,2 C 0,0 km/h (0 Bft)
08.10.2016 18:46 4,9 C 4,9 C 95 % 1021,4 hPa 0,0 mm 0,0 km/h (0 Bft) W 274 0 min 0,000 mm 0,0 UV-I 0 W/m 4,2 C 0,0 km/h (0 Bft)
08.10.2016 18:47 4,9 C 4,9 C 95 % 1021,4 hPa 0,0 mm 0,0 km/h (0 Bft) W 274 0 min 0,000 mm 0,0 UV-I 0 W/m 4,2 C 0,0 km/h (0 Bft)
08.10.2016 18:48 4,9 C 4,9 C 95 % 1021,4 hPa 0,0 mm 0,0 km/h (0 Bft) W 274 0 min 0,000 mm 0,0 UV-I 0 W/m 4,2 C 0,0 km/h (0 Bft)
08.10.2016 18:49 4,9 C 4,9 C 95 % 1021,4 hPa 0,0 mm 0,0 km/h (0 Bft) W 274 0 min 0,000 mm 0,0 UV-I 0 W/m 4,2 C 0,0 km/h (0 Bft)
08.10.2016 18:50 4,9 C 4,9 C 95 % 1021,4 hPa 0,0 mm 0,0 km/h (0 Bft) W 274 0 min 0,000 mm 0,0 UV-I 0 W/m 4,2 C 0,0 km/h (0 Bft)
08.10.2016 18:51 4,9 C 4,9 C 95 % 1021,4 hPa 0,0 mm 0,0 km/h (0 Bft) W 274 0 min 0,000 mm 0,0 UV-I 0 W/m 4,2 C 0,0 km/h (0 Bft)
08.10.2016 18:52 4,9 C 4,9 C 95 % 1021,4 hPa 0,0 mm 0,0 km/h (0 Bft) W 274 0 min 0,000 mm 0,0 UV-I 0 W/m 4,2 C 0,0 km/h (0 Bft)
08.10.2016 18:53 4,9 C 4,9 C 95 % 1021,5 hPa 0,0 mm 0,0 km/h (0 Bft) W 274 0 min 0,000 mm 0,0 UV-I 0 W/m 4,2 C 0,0 km/h (0 Bft)
08.10.2016 18:54 4,9 C 4,9 C 95 % 1021,4 hPa 0,0 mm 0,0 km/h (0 Bft) W 274 0 min 0,000 mm 0,0 UV-I 0 W/m 4,2 C 0,0 km/h (0 Bft)
08.10.2016 18:55 4,9 C 4,9 C 95 % 1021,4 hPa 0,0 mm 0,0 km/h (0 Bft) W 274 0 min 0,000 mm 0,0 UV-I 0 W/m 4,2 C 0,0 km/h (0 Bft)
08.10.2016 18:56 4,9 C 4,9 C 95 % 1021,5 hPa 0,0 mm 0,0 km/h (0 Bft) W 274 0 min 0,000 mm 0,0 UV-I 0 W/m 4,2 C 0,0 km/h (0 Bft)
08.10.2016 18:57 4,9 C 4,9 C 95 % 1021,5 hPa 0,0 mm 0,0 km/h (0 Bft) W 274 0 min 0,000 mm 0,0 UV-I 0 W/m 4,2 C 0,0 km/h (0 Bft)
08.10.2016 18:58 5,0 C 5,0 C 95 % 1021,4 hPa 0,0 mm 0,0 km/h (0 Bft) W 274 0 min 0,000 mm 0,0 UV-I 0 W/m 4,3 C 0,0 km/h (0 Bft)
08.10.2016 18:59 5,0 C 5,0 C 95 % 1021,5 hPa 0,0 mm 0,0 km/h (0 Bft) W 274 0 min 0,000 mm 0,0 UV-I 0 W/m 4,3 C 0,0 km/h (0 Bft)
08.10.2016 19:00 4,9 C 5,0 C 95 % 1021,5 hPa 0,0 mm 0,0 km/h (0 Bft) W 274 0 min 0,000 mm 0,0 UV-I 0 W/m 4,2 C 0,0 km/h (0 Bft)
08.10.2016 19:01 5,0 C 5,0 C 95 % 1021,5 hPa 0,0 mm 0,0 km/h (0 Bft) W 274 0 min 0,000 mm 0,0 UV-I 0 W/m 4,3 C 0,0 km/h (0 Bft)
08.10.2016 19:02 5,0 C 5,1 C 95 % 1021,6 hPa 0,2 mm 0,0 km/h (0 Bft) W 274 0 min 0,000 mm 0,0 UV-I 0 W/m 4,3 C 0,0 km/h (0 Bft)
08.10.2016 19:03 5,1 C 5,1 C 95 % 1021,6 hPa 0,0 mm 1,9 km/h (1 Bft) W 274 0 min 0,000 mm 0,0 UV-I 0 W/m 4,4 C 3,2 km/h (1 Bft)
08.10.2016 19:04 5,1 C 5,1 C 95 % 1021,6 hPa 0,0 mm 0,6 km/h (0 Bft) W 274 0 min 0,000 mm 0,0 UV-I 0 W/m 4,4 C 1,6 km/h (1 Bft)
08.10.2016 19:05 5,0 C 5,1 C 95 % 1021,6 hPa 0,2 mm 0,3 km/h (0 Bft) W 274 0 min 0,000 mm 0,0 UV-I 0 W/m 4,3 C 1,6 km/h (1 Bft)
08.10.2016 19:06 5,0 C 5,0 C 95 % 1021,5 hPa 0,0 mm 1,8 km/h (1 Bft) W 273 0 min 0,000 mm 0,0 UV-I 0 W/m 4,3 C 3,2 km/h (1 Bft)
08.10.2016 19:07 5,0 C 5,0 C 95 % 1021,6 hPa 0,0 mm 0,3 km/h (0 Bft) W 273 0 min 0,000 mm 0,0 UV-I 0 W/m 4,3 C 1,6 km/h (1 Bft)
08.10.2016 19:08 5,0 C 5,0 C 95 % 1021,6 hPa 0,0 mm 0,8 km/h (0 Bft) W 273 0 min 0,000 mm 0,0 UV-I 0 W/m 4,3 C 1,6 km/h (1 Bft)
08.10.2016 19:09 4,9 C 5,0 C 95 % 1021,6 hPa 0,0 mm 0,4 km/h (0 Bft) W 273 0 min 0,000 mm 0,0 UV-I 0 W/m 4,2 C 1,6 km/h (1 Bft)
08.10.2016 19:10 4,9 C 4,9 C 95 % 1021,6 hPa 0,0 mm 0,0 km/h (0 Bft) W 273 0 min 0,000 mm 0,0 UV-I 0 W/m 4,2 C 0,0 km/h (0 Bft)
08.10.2016 19:11 4,9 C 4,9 C 95 % 1021,6 hPa 0,0 mm 0,3 km/h (0 Bft) W 273 0 min 0,000 mm 0,0 UV-I 0 W/m 4,2 C 1,6 km/h (1 Bft)
08.10.2016 19:12 4,9 C 4,9 C 95 % 1021,7 hPa 0,0 mm 0,0 km/h (0 Bft) W 273 0 min 0,000 mm 0,0 UV-I 0 W/m 4,2 C 0,0 km/h (0 Bft)
08.10.2016 19:13 4,9 C 4,9 C 95 % 1021,7 hPa 0,0 mm 0,8 km/h (0 Bft) W 273 0 min 0,000 mm 0,0 UV-I 0 W/m 4,2 C 1,6 km/h (1 Bft)
08.10.2016 19:14 4,9 C 4,9 C 95 % 1021,7 hPa 0,0 mm 1,1 km/h (1 Bft) W 273 0 min 0,000 mm 0,0 UV-I 0 W/m 4,2 C 1,6 km/h (1 Bft)
08.10.2016 19:15 4,9 C 4,9 C 95 % 1021,7 hPa 0,0 mm 0,9 km/h (0 Bft) W 273 0 min 0,000 mm 0,0 UV-I 0 W/m 4,2 C 1,6 km/h (1 Bft)
08.10.2016 19:16 4,9 C 4,9 C 95 % 1021,7 hPa 0,0 mm 0,7 km/h (0 Bft) W 273 0 min 0,000 mm 0,0 UV-I 0 W/m 4,2 C 1,6 km/h (1 Bft)
08.10.2016 19:17 4,9 C 4,9 C 95 % 1021,7 hPa 0,0 mm 0,5 km/h (0 Bft) W 273 0 min 0,000 mm 0,0 UV-I 0 W/m 4,2 C 1,6 km/h (1 Bft)
08.10.2016 19:18 4,9 C 4,9 C 95 % 1021,7 hPa 0,0 mm 0,9 km/h (0 Bft) W 273 0 min 0,000 mm 0,0 UV-I 0 W/m 4,2 C 1,6 km/h (1 Bft)
08.10.2016 19:19 4,9 C 4,9 C 95 % 1021,7 hPa 0,0 mm 1,7 km/h (1 Bft) W 273 0 min 0,000 mm 0,0 UV-I 0 W/m 4,2 C 3,2 km/h (1 Bft)
08.10.2016 19:20 4,9 C 4,9 C 95 % 1021,8 hPa 0,0 mm 1,4 km/h (1 Bft) W 273 0 min 0,000 mm 0,0 UV-I 0 W/m 4,2 C 1,6 km/h (1 Bft)
08.10.2016 19:21 4,9 C 4,9 C 95 % 1021,7 hPa 0,0 mm 1,6 km/h (1 Bft) W 273 0 min 0,000 mm 0,0 UV-I 0 W/m 4,2 C 1,6 km/h (1 Bft)
08.10.2016 19:22 4,9 C 4,9 C 95 % 1021,8 hPa 0,0 mm 1,0 km/h (0 Bft) W 273 0 min 0,000 mm 0,0 UV-I 0 W/m 4,2 C 1,6 km/h (1 Bft)
08.10.2016 19:23 4,9 C 4,9 C 95 % 1021,8 hPa 0,0 mm 1,2 km/h (1 Bft) W 273 0 min 0,000 mm 0,0 UV-I 0 W/m 4,2 C 1,6 km/h (1 Bft)
08.10.2016 19:24 4,8 C 4,9 C 95 % 1021,8 hPa 0,0 mm 1,8 km/h (1 Bft) W 273 0 min 0,000 mm 0,0 UV-I 0 W/m 4,1 C 3,2 km/h (1 Bft)
08.10.2016 19:25 4,8 C 4,8 C 95 % 1021,9 hPa 0,0 mm 1,5 km/h (1 Bft) W 273 0 min 0,000 mm 0,0 UV-I 0 W/m 4,1 C 1,6 km/h (1 Bft)
08.10.2016 19:26 4,8 C 4,8 C 95 % 1021,8 hPa 0,0 mm 1,1 km/h (1 Bft) W 273 0 min 0,000 mm 0,0 UV-I 0 W/m 4,1 C 1,6 km/h (1 Bft)
08.10.2016 19:27 4,8 C 4,8 C 95 % 1021,9 hPa 0,0 mm 1,3 km/h (1 Bft) W 273 0 min 0,000 mm 0,0 UV-I 0 W/m 4,1 C 1,6 km/h (1 Bft)
08.10.2016 19:28 4,8 C 4,8 C 95 % 1021,9 hPa 0,0 mm 1,0 km/h (0 Bft) W 273 0 min 0,000 mm 0,0 UV-I 0 W/m 4,1 C 1,6 km/h (1 Bft)
08.10.2016 19:29 4,8 C 4,8 C 95 % 1021,8 hPa 0,0 mm 0,3 km/h (0 Bft) W 273 0 min 0,000 mm 0,0 UV-I 0 W/m 4,1 C 1,6 km/h (1 Bft)
08.10.2016 19:30 4,8 C 4,8 C 95 % 1021,9 hPa 0,0 mm 1,0 km/h (0 Bft) W 273 0 min 0,000 mm 0,0 UV-I 0 W/m 4,1 C 1,6 km/h (1 Bft)
08.10.2016 19:31 4,8 C 4,8 C 95 % 1021,9 hPa 0,0 mm 0,9 km/h (0 Bft) W 273 0 min 0,000 mm 0,0 UV-I 0 W/m 4,1 C 1,6 km/h (1 Bft)
08.10.2016 19:32 4,8 C 4,8 C 95 % 1021,9 hPa 0,0 mm 0,7 km/h (0 Bft) W 273 0 min 0,000 mm 0,0 UV-I 0 W/m 4,1 C 1,6 km/h (1 Bft)
08.10.2016 19:33 4,8 C 4,8 C 95 % 1021,9 hPa 0,0 mm 0,9 km/h (0 Bft) W 273 0 min 0,000 mm 0,0 UV-I 0 W/m 4,1 C 1,6 km/h (1 Bft)
08.10.2016 19:34 4,8 C 4,8 C 95 % 1021,9 hPa 0,0 mm 1,3 km/h (1 Bft) W 273 0 min 0,000 mm 0,0 UV-I 0 W/m 4,1 C 1,6 km/h (1 Bft)
08.10.2016 19:35 4,8 C 4,8 C 95 % 1021,9 hPa 0,0 mm 1,1 km/h (1 Bft) W 273 0 min 0,000 mm 0,0 UV-I 0 W/m 4,1 C 1,6 km/h (1 Bft)
08.10.2016 19:36 4,8 C 4,8 C 95 % 1021,9 hPa 0,0 mm 1,7 km/h (1 Bft) W 273 0 min 0,000 mm 0,0 UV-I 0 W/m 4,1 C 3,2 km/h (1 Bft)
08.10.2016 19:37 4,8 C 4,9 C 95 % 1021,9 hPa 0,0 mm 1,8 km/h (1 Bft) W 273 0 min 0,000 mm 0,0 UV-I 0 W/m 4,1 C 3,2 km/h (1 Bft)
08.10.2016 19:38 4,8 C 4,8 C 95 % 1021,9 hPa 0,0 mm 0,8 km/h (0 Bft) W 261 0 min 0,000 mm 0,0 UV-I 0 W/m 4,1 C 3,2 km/h (1 Bft)
08.10.2016 19:39 4,8 C 4,9 C 95 % 1021,9 hPa 0,0 mm 2,2 km/h (1 Bft) W 260 0 min 0,000 mm 0,0 UV-I 0 W/m 4,1 C 3,2 km/h (1 Bft)
08.10.2016 19:40 4,8 C 4,9 C 95 % 1021,9 hPa 0,0 mm 2,0 km/h (1 Bft) W-SW 248 0 min 0,000 mm 0,0 UV-I 0 W/m 4,1 C 3,2 km/h (1 Bft)
08.10.2016 19:41 4,9 C 4,9 C 95 % 1021,9 hPa 0,0 mm 0,9 km/h (0 Bft) W-SW 248 0 min 0,000 mm 0,0 UV-I 0 W/m 4,2 C 1,6 km/h (1 Bft)
08.10.2016 19:42 4,9 C 4,9 C 95 % 1022,0 hPa 0,0 mm 2,1 km/h (1 Bft) W-SW 244 0 min 0,000 mm 0,0 UV-I 0 W/m 4,2 C 3,2 km/h (1 Bft)
08.10.2016 19:43 4,9 C 4,9 C 95 % 1022,0 hPa 0,0 mm 2,0 km/h (1 Bft) W-SW 244 0 min 0,000 mm 0,0 UV-I 0 W/m 4,2 C 3,2 km/h (1 Bft)
08.10.2016 19:44 4,9 C 4,9 C 95 % 1022,0 hPa 0,0 mm 2,1 km/h (1 Bft) W-SW 240 0 min 0,000 mm 0,0 UV-I 0 W/m 4,2 C 3,2 km/h (1 Bft)
08.10.2016 19:45 4,9 C 4,9 C 95 % 1022,0 hPa 0,0 mm 1,4 km/h (1 Bft) W-SW 240 0 min 0,000 mm 0,0 UV-I 0 W/m 4,2 C 3,2 km/h (1 Bft)
08.10.2016 19:46 4,9 C 4,9 C 95 % 1022,0 hPa 0,0 mm 1,5 km/h (1 Bft) W-SW 240 0 min 0,000 mm 0,0 UV-I 0 W/m 4,2 C 1,6 km/h (1 Bft)
08.10.2016 19:47 4,9 C 4,9 C 95 % 1022,0 hPa 0,0 mm 1,6 km/h (1 Bft) W-SW 240 0 min 0,000 mm 0,0 UV-I 0 W/m 4,2 C 3,2 km/h (1 Bft)
08.10.2016 19:48 4,8 C 4,9 C 95 % 1022,0 hPa 0,0 mm 2,0 km/h (1 Bft) W-SW 240 0 min 0,000 mm 0,0 UV-I 0 W/m 4,1 C 3,2 km/h (1 Bft)
08.10.2016 19:49 4,8 C 4,9 C 95 % 1022,0 hPa 0,0 mm 2,1 km/h (1 Bft) W-SW 240 0 min 0,000 mm 0,0 UV-I 0 W/m 4,1 C 3,2 km/h (1 Bft)
08.10.2016 19:50 4,8 C 4,8 C 95 % 1022,0 hPa 0,0 mm 0,7 km/h (0 Bft) W-SW 240 0 min 0,000 mm 0,0 UV-I 0 W/m 4,1 C 1,6 km/h (1 Bft)
08.10.2016 19:51 4,8 C 4,8 C 95 % 1022,0 hPa 0,0 mm 0,0 km/h (0 Bft) W-SW 240 0 min 0,000 mm 0,0 UV-I 0 W/m 4,1 C 0,0 km/h (0 Bft)
08.10.2016 19:52 4,8 C 4,8 C 95 % 1022,1 hPa 0,0 mm 0,0 km/h (0 Bft) W-SW 240 0 min 0,000 mm 0,0 UV-I 0 W/m 4,1 C 0,0 km/h (0 Bft)
08.10.2016 19:53 4,8 C 4,8 C 95 % 1022,1 hPa 0,0 mm 0,0 km/h (0 Bft) W-SW 240 0 min 0,000 mm 0,0 UV-I 0 W/m 4,1 C 0,0 km/h (0 Bft)
08.10.2016 19:54 4,8 C 4,8 C 95 % 1022,1 hPa 0,2 mm 0,0 km/h (0 Bft) W-SW 240 0 min 0,000 mm 0,0 UV-I 0 W/m 4,1 C 0,0 km/h (0 Bft)
08.10.2016 19:55 4,8 C 4,8 C 95 % 1022,1 hPa 0,0 mm 0,0 km/h (0 Bft) W-SW 240 0 min 0,000 mm 0,0 UV-I 0 W/m 4,1 C 0,0 km/h (0 Bft)
08.10.2016 19:56 4,8 C 4,8 C 95 % 1022,1 hPa 0,0 mm 0,0 km/h (0 Bft) W-SW 240 0 min 0,000 mm 0,0 UV-I 0 W/m 4,1 C 0,0 km/h (0 Bft)
08.10.2016 19:57 4,8 C 4,8 C 95 % 1022,1 hPa 0,0 mm 0,0 km/h (0 Bft) W-SW 240 0 min 0,000 mm 0,0 UV-I 0 W/m 4,1 C 0,0 km/h (0 Bft)
08.10.2016 19:58 4,8 C 4,8 C 95 % 1022,1 hPa 0,0 mm 1,2 km/h (1 Bft) SW 236 0 min 0,000 mm 0,0 UV-I 0 W/m 4,1 C 3,2 km/h (1 Bft)
08.10.2016 19:59 4,8 C 4,9 C 95 % 1022,1 hPa 0,0 mm 0,6 km/h (0 Bft) SW 236 0 min 0,000 mm 0,0 UV-I 0 W/m 4,1 C 1,6 km/h (1 Bft)
08.10.2016 20:00 4,8 C 4,8 C 95 % 1022,1 hPa 0,0 mm 1,3 km/h (1 Bft) SW 236 0 min 0,000 mm 0,0 UV-I 0 W/m 4,1 C 3,2 km/h (1 Bft)
08.10.2016 20:01 4,8 C 4,8 C 95 % 1022,1 hPa 0,0 mm 1,7 km/h (1 Bft) SW 236 0 min 0,000 mm 0,0 UV-I 0 W/m 4,1 C 3,2 km/h (1 Bft)
08.10.2016 20:02 4,8 C 4,8 C 95 % 1022,1 hPa 0,0 mm 1,7 km/h (1 Bft) SW 222 0 min 0,000 mm 0,0 UV-I 0 W/m 4,1 C 3,2 km/h (1 Bft)
08.10.2016 20:03 4,8 C 4,8 C 95 % 1022,1 hPa 0,0 mm 1,0 km/h (0 Bft) SW 222 0 min 0,000 mm 0,0 UV-I 0 W/m 4,1 C 3,2 km/h (1 Bft)
08.10.2016 20:04 4,8 C 4,8 C 95 % 1022,1 hPa 0,0 mm 2,1 km/h (1 Bft) SW 221 0 min 0,000 mm 0,0 UV-I 0 W/m 4,1 C 3,2 km/h (1 Bft)
08.10.2016 20:05 4,9 C 4,9 C 95 % 1022,2 hPa 0,0 mm 1,7 km/h (1 Bft) SW 221 0 min 0,000 mm 0,0 UV-I 0 W/m 4,2 C 3,2 km/h (1 Bft)
08.10.2016 20:06 4,8 C 4,9 C 95 % 1022,1 hPa 0,0 mm 1,9 km/h (1 Bft) SW 220 0 min 0,000 mm 0,0 UV-I 0 W/m 4,1 C 3,2 km/h (1 Bft)
08.10.2016 20:07 4,8 C 4,8 C 95 % 1022,1 hPa 0,0 mm 1,3 km/h (1 Bft) SW 220 0 min 0,000 mm 0,0 UV-I 0 W/m 4,1 C 1,6 km/h (1 Bft)
08.10.2016 20:08 4,8 C 4,8 C 95 % 1022,1 hPa 0,0 mm 1,6 km/h (1 Bft) SW 217 0 min 0,000 mm 0,0 UV-I 0 W/m 4,1 C 3,2 km/h (1 Bft)
08.10.2016 20:09 4,8 C 4,8 C 95 % 1022,1 hPa 0,0 mm 2,0 km/h (1 Bft) SW 217 0 min 0,000 mm 0,0 UV-I 0 W/m 4,1 C 3,2 km/h (1 Bft)
08.10.2016 20:10 4,8 C 4,8 C 95 % 1022,1 hPa 0,0 mm 1,7 km/h (1 Bft) SW 217 0 min 0,000 mm 0,0 UV-I 0 W/m 4,1 C 3,2 km/h (1 Bft)
08.10.2016 20:11 4,8 C 4,8 C 95 % 1022,1 hPa 0,0 mm 2,3 km/h (1 Bft) S-SW 211 0 min 0,000 mm 0,0 UV-I 0 W/m 4,1 C 3,2 km/h (1 Bft)
08.10.2016 20:12 4,8 C 4,8 C 95 % 1022,1 hPa 0,0 mm 1,5 km/h (1 Bft) S-SW 211 0 min 0,000 mm 0,0 UV-I 0 W/m 4,1 C 3,2 km/h (1 Bft)
08.10.2016 20:13 4,8 C 4,8 C 95 % 1022,1 hPa 0,0 mm 2,1 km/h (1 Bft) S-SW 211 0 min 0,000 mm 0,0 UV-I 0 W/m 4,1 C 3,2 km/h (1 Bft)
08.10.2016 20:14 4,8 C 4,8 C 95 % 1022,1 hPa 0,0 mm 1,4 km/h (1 Bft) S-SW 211 0 min 0,000 mm 0,0 UV-I 0 W/m 4,1 C 3,2 km/h (1 Bft)
08.10.2016 20:15 4,8 C 4,8 C 95 % 1022,2 hPa 0,0 mm 1,4 km/h (1 Bft) S-SW 211 0 min 0,000 mm 0,0 UV-I 0 W/m 4,1 C 1,6 km/h (1 Bft)
08.10.2016 20:16 4,8 C 4,8 C 95 % 1022,1 hPa 0,0 mm 1,3 km/h (1 Bft) S-SW 211 0 min 0,000 mm 0,0 UV-I 0 W/m 4,1 C 1,6 km/h (1 Bft)
08.10.2016 20:17 4,8 C 4,8 C 95 % 1022,2 hPa 0,0 mm 0,8 km/h (0 Bft) S-SW 211 0 min 0,000 mm 0,0 UV-I 0 W/m 4,1 C 1,6 km/h (1 Bft)
08.10.2016 20:18 4,8 C 4,8 C 95 % 1022,2 hPa 0,0 mm 1,5 km/h (1 Bft) S-SW 211 0 min 0,000 mm 0,0 UV-I 0 W/m 4,1 C 3,2 km/h (1 Bft)
08.10.2016 20:19 4,8 C 4,8 C 95 % 1022,2 hPa 0,0 mm 1,0 km/h (0 Bft) S-SW 211 0 min 0,000 mm 0,0 UV-I 0 W/m 4,1 C 1,6 km/h (1 Bft)
08.10.2016 20:20 4,8 C 4,8 C 95 % 1022,2 hPa 0,0 mm 0,7 km/h (0 Bft) S-SW 211 0 min 0,000 mm 0,0 UV-I 0 W/m 4,1 C 1,6 km/h (1 Bft)
08.10.2016 20:21 4,7 C 4,8 C 95 % 1022,1 hPa 0,0 mm 0,8 km/h (0 Bft) S-SW 211 0 min 0,000 mm 0,0 UV-I 0 W/m 4,0 C 1,6 km/h (1 Bft)
08.10.2016 20:22 4,7 C 4,8 C 95 % 1022,2 hPa 0,0 mm 0,7 km/h (0 Bft) S-SW 211 0 min 0,000 mm 0,0 UV-I 0 W/m 4,0 C 1,6 km/h (1 Bft)
08.10.2016 20:23 4,8 C 4,8 C 95 % 1022,2 hPa 0,0 mm 1,1 km/h (1 Bft) S-SW 211 0 min 0,000 mm 0,0 UV-I 0 W/m 4,1 C 3,2 km/h (1 Bft)
08.10.2016 20:24 4,8 C 4,8 C 95 % 1022,2 hPa 0,0 mm 1,3 km/h (1 Bft) S-SW 211 0 min 0,000 mm 0,0 UV-I 0 W/m 4,1 C 1,6 km/h (1 Bft)
08.10.2016 20:25 4,8 C 4,8 C 95 % 1022,2 hPa 0,0 mm 0,4 km/h (0 Bft) S-SW 211 0 min 0,000 mm 0,0 UV-I 0 W/m 4,1 C 1,6 km/h (1 Bft)
08.10.2016 20:26 4,8 C 4,8 C 95 % 1022,2 hPa 0,0 mm 0,6 km/h (0 Bft) S-SW 211 0 min 0,000 mm 0,0 UV-I 0 W/m 4,1 C 1,6 km/h (1 Bft)
08.10.2016 20:27 4,8 C 4,8 C 96 % 1022,2 hPa 0,0 mm 0,3 km/h (0 Bft) S-SW 211 0 min 0,000 mm 0,0 UV-I 0 W/m 4,2 C 1,6 km/h (1 Bft)
08.10.2016 20:28 4,8 C 4,8 C 95 % 1022,2 hPa 0,0 mm 0,1 km/h (0 Bft) S-SW 211 0 min 0,000 mm 0,0 UV-I 0 W/m 4,1 C 1,6 km/h (1 Bft)
08.10.2016 20:29 4,8 C 4,8 C 96 % 1022,2 hPa 0,0 mm 0,0 km/h (0 Bft) S-SW 211 0 min 0,000 mm 0,0 UV-I 0 W/m 4,2 C 0,0 km/h (0 Bft)
08.10.2016 20:30 4,8 C 4,8 C 96 % 1022,2 hPa 0,0 mm 0,0 km/h (0 Bft) S-SW 211 0 min 0,000 mm 0,0 UV-I 0 W/m 4,2 C 0,0 km/h (0 Bft)
08.10.2016 20:31 4,8 C 4,8 C 96 % 1022,2 hPa 0,0 mm 0,3 km/h (0 Bft) S-SW 211 0 min 0,000 mm 0,0 UV-I 0 W/m 4,2 C 1,6 km/h (1 Bft)
08.10.2016 20:32 4,8 C 4,8 C 96 % 1022,2 hPa 0,0 mm 0,3 km/h (0 Bft) S-SW 211 0 min 0,000 mm 0,0 UV-I 0 W/m 4,2 C 1,6 km/h (1 Bft)
08.10.2016 20:33 4,8 C 4,8 C 96 % 1022,2 hPa 0,0 mm 0,7 km/h (0 Bft) S-SW 211 0 min 0,000 mm 0,0 UV-I 0 W/m 4,2 C 1,6 km/h (1 Bft)
08.10.2016 20:34 4,8 C 4,8 C 96 % 1022,2 hPa 0,0 mm 1,0 km/h (0 Bft) S-SW 211 0 min 0,000 mm 0,0 UV-I 0 W/m 4,2 C 1,6 km/h (1 Bft)
08.10.2016 20:35 4,8 C 4,8 C 96 % 1022,2 hPa 0,0 mm 0,9 km/h (0 Bft) S-SW 211 0 min 0,000 mm 0,0 UV-I 0 W/m 4,2 C 1,6 km/h (1 Bft)
08.10.2016 20:36 4,8 C 4,8 C 96 % 1022,2 hPa 0,0 mm 0,1 km/h (0 Bft) S-SW 211 0 min 0,000 mm 0,0 UV-I 0 W/m 4,2 C 1,6 km/h (1 Bft)
08.10.2016 20:37 4,8 C 4,8 C 96 % 1022,2 hPa 0,0 mm 0,0 km/h (0 Bft) S-SW 211 0 min 0,000 mm 0,0 UV-I 0 W/m 4,2 C 0,0 km/h (0 Bft)
08.10.2016 20:38 4,8 C 4,8 C 96 % 1022,3 hPa 0,0 mm 0,0 km/h (0 Bft) S-SW 211 0 min 0,000 mm 0,0 UV-I 0 W/m 4,2 C 0,0 km/h (0 Bft)
08.10.2016 20:39 4,8 C 4,8 C 96 % 1022,3 hPa 0,0 mm 0,0 km/h (0 Bft) S-SW 211 0 min 0,000 mm 0,0 UV-I 0 W/m 4,2 C 0,0 km/h (0 Bft)
08.10.2016 20:40 4,8 C 4,8 C 96 % 1022,2 hPa 0,0 mm 0,0 km/h (0 Bft) S-SW 211 0 min 0,000 mm 0,0 UV-I 0 W/m 4,2 C 0,0 km/h (0 Bft)
08.10.2016 20:41 4,8 C 4,8 C 96 % 1022,3 hPa 0,0 mm 0,0 km/h (0 Bft) S-SW 211 0 min 0,000 mm 0,0 UV-I 0 W/m 4,2 C 0,0 km/h (0 Bft)
08.10.2016 20:42 4,8 C 4,8 C 96 % 1022,3 hPa 0,0 mm 0,0 km/h (0 Bft) S-SW 211 0 min 0,000 mm 0,0 UV-I 0 W/m 4,2 C 0,0 km/h (0 Bft)
08.10.2016 20:43 4,8 C 4,8 C 96 % 1022,3 hPa 0,0 mm 0,0 km/h (0 Bft) S-SW 211 0 min 0,000 mm 0,0 UV-I 0 W/m 4,2 C 0,0 km/h (0 Bft)
08.10.2016 20:44 4,8 C 4,8 C 96 % 1022,3 hPa 0,0 mm 0,0 km/h (0 Bft) S-SW 211 0 min 0,000 mm 0,0 UV-I 0 W/m 4,2 C 0,0 km/h (0 Bft)
08.10.2016 20:45 4,8 C 4,8 C 96 % 1022,3 hPa 0,0 mm 0,0 km/h (0 Bft) S-SW 211 0 min 0,000 mm 0,0 UV-I 0 W/m 4,2 C 0,0 km/h (0 Bft)
08.10.2016 20:46 4,8 C 4,8 C 96 % 1022,3 hPa 0,0 mm 0,0 km/h (0 Bft) S-SW 211 0 min 0,000 mm 0,0 UV-I 0 W/m 4,2 C 0,0 km/h (0 Bft)
08.10.2016 20:47 4,8 C 4,8 C 96 % 1022,4 hPa 0,0 mm 0,0 km/h (0 Bft) S-SW 211 0 min 0,000 mm 0,0 UV-I 0 W/m 4,2 C 0,0 km/h (0 Bft)
08.10.2016 20:48 4,8 C 4,8 C 96 % 1022,4 hPa 0,0 mm 0,0 km/h (0 Bft) S-SW 211 0 min 0,000 mm 0,0 UV-I 0 W/m 4,2 C 0,0 km/h (0 Bft)
08.10.2016 20:49 4,8 C 4,8 C 96 % 1022,4 hPa 0,0 mm 0,0 km/h (0 Bft) S-SW 211 0 min 0,000 mm 0,0 UV-I 0 W/m 4,2 C 0,0 km/h (0 Bft)
08.10.2016 20:50 4,8 C 4,8 C 96 % 1022,3 hPa 0,0 mm 0,0 km/h (0 Bft) S-SW 211 0 min 0,000 mm 0,0 UV-I 0 W/m 4,2 C 0,0 km/h (0 Bft)
08.10.2016 20:51 4,8 C 4,8 C 96 % 1022,3 hPa 0,0 mm 0,0 km/h (0 Bft) S-SW 211 0 min 0,000 mm 0,0 UV-I 0 W/m 4,2 C 0,0 km/h (0 Bft)
08.10.2016 20:52 4,8 C 4,8 C 96 % 1022,3 hPa 0,0 mm 0,0 km/h (0 Bft) S-SW 211 0 min 0,000 mm 0,0 UV-I 0 W/m 4,2 C 0,0 km/h (0 Bft)
08.10.2016 20:53 4,8 C 4,8 C 96 % 1022,3 hPa 0,0 mm 0,0 km/h (0 Bft) S-SW 211 0 min 0,000 mm 0,0 UV-I 0 W/m 4,2 C 0,0 km/h (0 Bft)
08.10.2016 20:54 4,8 C 4,8 C 96 % 1022,3 hPa 0,0 mm 0,0 km/h (0 Bft) S-SW 211 0 min 0,000 mm 0,0 UV-I 0 W/m 4,2 C 0,0 km/h (0 Bft)
08.10.2016 20:55 4,8 C 4,8 C 96 % 1022,4 hPa 0,0 mm 0,0 km/h (0 Bft) S-SW 211 0 min 0,000 mm 0,0 UV-I 0 W/m 4,2 C 0,0 km/h (0 Bft)
08.10.2016 20:56 4,8 C 4,8 C 96 % 1022,3 hPa 0,0 mm 0,0 km/h (0 Bft) S-SW 211 0 min 0,000 mm 0,0 UV-I 0 W/m 4,2 C 0,0 km/h (0 Bft)
08.10.2016 20:57 4,8 C 4,8 C 96 % 1022,3 hPa 0,2 mm 0,0 km/h (0 Bft) S-SW 211 0 min 0,000 mm 0,0 UV-I 0 W/m 4,2 C 0,0 km/h (0 Bft)
08.10.2016 20:58 4,8 C 4,8 C 96 % 1022,3 hPa 0,0 mm 0,0 km/h (0 Bft) S-SW 211 0 min 0,000 mm 0,0 UV-I 0 W/m 4,2 C 0,0 km/h (0 Bft)
08.10.2016 20:59 4,8 C 4,8 C 96 % 1022,4 hPa 0,0 mm 0,0 km/h (0 Bft) S-SW 211 0 min 0,000 mm 0,0 UV-I 0 W/m 4,2 C 0,0 km/h (0 Bft)
08.10.2016 21:00 4,8 C 4,8 C 96 % 1022,4 hPa 0,0 mm 0,0 km/h (0 Bft) S-SW 211 0 min 0,000 mm 0,0 UV-I 0 W/m 4,2 C 0,0 km/h (0 Bft)
08.10.2016 21:01 4,8 C 4,8 C 96 % 1022,4 hPa 0,0 mm 0,0 km/h (0 Bft) S-SW 211 0 min 0,000 mm 0,0 UV-I 0 W/m 4,2 C 0,0 km/h (0 Bft)
08.10.2016 21:02 4,8 C 4,8 C 96 % 1022,4 hPa 0,0 mm 0,0 km/h (0 Bft) S-SW 211 0 min 0,000 mm 0,0 UV-I 0 W/m 4,2 C 0,0 km/h (0 Bft)
08.10.2016 21:03 4,8 C 4,8 C 96 % 1022,4 hPa 0,0 mm 0,0 km/h (0 Bft) S-SW 211 0 min 0,000 mm 0,0 UV-I 0 W/m 4,2 C 0,0 km/h (0 Bft)
08.10.2016 21:04 4,8 C 4,8 C 96 % 1022,4 hPa 0,0 mm 0,0 km/h (0 Bft) S-SW 211 0 min 0,000 mm 0,0 UV-I 0 W/m 4,2 C 0,0 km/h (0 Bft)
08.10.2016 21:05 4,8 C 4,8 C 96 % 1022,4 hPa 0,0 mm 0,0 km/h (0 Bft) S-SW 211 0 min 0,000 mm 0,0 UV-I 0 W/m 4,2 C 0,0 km/h (0 Bft)
08.10.2016 21:06 4,8 C 4,8 C 96 % 1022,4 hPa 0,0 mm 0,1 km/h (0 Bft) S-SW 211 0 min 0,000 mm 0,0 UV-I 0 W/m 4,2 C 1,6 km/h (1 Bft)
08.10.2016 21:07 4,8 C 4,8 C 96 % 1022,4 hPa 0,0 mm 0,1 km/h (0 Bft) S-SW 211 0 min 0,000 mm 0,0 UV-I 0 W/m 4,2 C 1,6 km/h (1 Bft)
08.10.2016 21:08 4,8 C 4,8 C 96 % 1022,4 hPa 0,0 mm 0,7 km/h (0 Bft) S-SW 211 0 min 0,000 mm 0,0 UV-I 0 W/m 4,2 C 1,6 km/h (1 Bft)
08.10.2016 21:09 4,8 C 4,8 C 96 % 1022,4 hPa 0,0 mm 0,3 km/h (0 Bft) S-SW 211 0 min 0,000 mm 0,0 UV-I 0 W/m 4,2 C 1,6 km/h (1 Bft)
08.10.2016 21:10 4,8 C 4,8 C 96 % 1022,4 hPa 0,0 mm 0,1 km/h (0 Bft) S-SW 211 0 min 0,000 mm 0,0 UV-I 0 W/m 4,2 C 1,6 km/h (1 Bft)
08.10.2016 21:11 4,8 C 4,8 C 96 % 1022,4 hPa 0,0 mm 0,0 km/h (0 Bft) S-SW 211 0 min 0,000 mm 0,0 UV-I 0 W/m 4,2 C 0,0 km/h (0 Bft)
08.10.2016 21:12 4,8 C 4,8 C 96 % 1022,4 hPa 0,0 mm 0,0 km/h (0 Bft) S-SW 211 0 min 0,000 mm 0,0 UV-I 0 W/m 4,2 C 0,0 km/h (0 Bft)
08.10.2016 21:13 4,8 C 4,8 C 96 % 1022,5 hPa 0,0 mm 0,0 km/h (0 Bft) S-SW 211 0 min 0,000 mm 0,0 UV-I 0 W/m 4,2 C 0,0 km/h (0 Bft)
08.10.2016 21:14 4,8 C 4,8 C 96 % 1022,5 hPa 0,0 mm 0,0 km/h (0 Bft) S-SW 211 0 min 0,000 mm 0,0 UV-I 0 W/m 4,2 C 0,0 km/h (0 Bft)
08.10.2016 21:15 4,8 C 4,8 C 96 % 1022,5 hPa 0,0 mm 0,0 km/h (0 Bft) S-SW 211 0 min 0,000 mm 0,0 UV-I 0 W/m 4,2 C 0,0 km/h (0 Bft)
08.10.2016 21:16 4,8 C 4,8 C 96 % 1022,5 hPa 0,0 mm 1,4 km/h (1 Bft) S-SW 211 0 min 0,000 mm 0,0 UV-I 0 W/m 4,2 C 3,2 km/h (1 Bft)
08.10.2016 21:17 4,8 C 4,8 C 96 % 1022,5 hPa 0,0 mm 0,6 km/h (0 Bft) S-SW 211 0 min 0,000 mm 0,0 UV-I 0 W/m 4,2 C 1,6 km/h (1 Bft)
08.10.2016 21:18 4,8 C 4,8 C 96 % 1022,5 hPa 0,0 mm 0,9 km/h (0 Bft) S-SW 211 0 min 0,000 mm 0,0 UV-I 0 W/m 4,2 C 1,6 km/h (1 Bft)
08.10.2016 21:19 4,8 C 4,8 C 96 % 1022,5 hPa 0,0 mm 0,0 km/h (0 Bft) S-SW 211 0 min 0,000 mm 0,0 UV-I 0 W/m 4,2 C 0,0 km/h (0 Bft)
08.10.2016 21:20 4,8 C 4,8 C 96 % 1022,5 hPa 0,0 mm 0,3 km/h (0 Bft) S-SW 211 0 min 0,000 mm 0,0 UV-I 0 W/m 4,2 C 1,6 km/h (1 Bft)
08.10.2016 21:21 4,8 C 4,8 C 96 % 1022,4 hPa 0,0 mm 0,1 km/h (0 Bft) S-SW 211 0 min 0,000 mm 0,0 UV-I 0 W/m 4,2 C 1,6 km/h (1 Bft)
08.10.2016 21:22 4,8 C 4,8 C 96 % 1022,5 hPa 0,0 mm 1,4 km/h (1 Bft) S-SW 211 0 min 0,000 mm 0,0 UV-I 0 W/m 4,2 C 1,6 km/h (1 Bft)
08.10.2016 21:23 4,8 C 4,8 C 96 % 1022,5 hPa 0,0 mm 0,7 km/h (0 Bft) S-SW 211 0 min 0,000 mm 0,0 UV-I 0 W/m 4,2 C 1,6 km/h (1 Bft)
08.10.2016 21:24 4,7 C 4,8 C 96 % 1022,4 hPa 0,0 mm 0,2 km/h (0 Bft) S-SW 211 0 min 0,000 mm 0,0 UV-I 0 W/m 4,1 C 1,6 km/h (1 Bft)
08.10.2016 21:25 4,7 C 4,8 C 96 % 1022,4 hPa 0,0 mm 0,1 km/h (0 Bft) S-SW 211 0 min 0,000 mm 0,0 UV-I 0 W/m 4,1 C 1,6 km/h (1 Bft)
08.10.2016 21:26 4,7 C 4,7 C 96 % 1022,5 hPa 0,0 mm 0,5 km/h (0 Bft) S-SW 211 0 min 0,000 mm 0,0 UV-I 0 W/m 4,1 C 1,6 km/h (1 Bft)
08.10.2016 21:27 4,7 C 4,7 C 96 % 1022,4 hPa 0,0 mm 0,0 km/h (0 Bft) S-SW 211 0 min 0,000 mm 0,0 UV-I 0 W/m 4,1 C 0,0 km/h (0 Bft)
08.10.2016 21:28 4,7 C 4,7 C 96 % 1022,4 hPa 0,0 mm 0,0 km/h (0 Bft) S-SW 211 0 min 0,000 mm 0,0 UV-I 0 W/m 4,1 C 0,0 km/h (0 Bft)
08.10.2016 21:29 4,7 C 4,7 C 96 % 1022,4 hPa 0,0 mm 0,0 km/h (0 Bft) S-SW 211 0 min 0,000 mm 0,0 UV-I 0 W/m 4,1 C 0,0 km/h (0 Bft)
08.10.2016 21:30 4,7 C 4,7 C 96 % 1022,4 hPa 0,0 mm 0,7 km/h (0 Bft) S-SW 211 0 min 0,000 mm 0,0 UV-I 0 W/m 4,1 C 1,6 km/h (1 Bft)
08.10.2016 21:31 4,7 C 4,7 C 96 % 1022,4 hPa 0,0 mm 0,0 km/h (0 Bft) S-SW 211 0 min 0,000 mm 0,0 UV-I 0 W/m 4,1 C 0,0 km/h (0 Bft)
08.10.2016 21:32 4,7 C 4,7 C 96 % 1022,4 hPa 0,0 mm 0,0 km/h (0 Bft) S-SW 211 0 min 0,000 mm 0,0 UV-I 0 W/m 4,1 C 0,0 km/h (0 Bft)
08.10.2016 21:33 4,7 C 4,7 C 96 % 1022,4 hPa 0,0 mm 0,0 km/h (0 Bft) S-SW 211 0 min 0,000 mm 0,0 UV-I 0 W/m 4,1 C 0,0 km/h (0 Bft)
08.10.2016 21:34 4,7 C 4,7 C 96 % 1022,4 hPa 0,0 mm 0,5 km/h (0 Bft) S-SW 211 0 min 0,000 mm 0,0 UV-I 0 W/m 4,1 C 1,6 km/h (1 Bft)
08.10.2016 21:35 4,7 C 4,7 C 96 % 1022,4 hPa 0,0 mm 0,0 km/h (0 Bft) S-SW 211 0 min 0,000 mm 0,0 UV-I 0 W/m 4,1 C 0,0 km/h (0 Bft)
08.10.2016 21:36 4,7 C 4,7 C 96 % 1022,4 hPa 0,0 mm 0,1 km/h (0 Bft) S-SW 211 0 min 0,000 mm 0,0 UV-I 0 W/m 4,1 C 1,6 km/h (1 Bft)
08.10.2016 21:37 4,7 C 4,7 C 96 % 1022,4 hPa 0,0 mm 0,4 km/h (0 Bft) S-SW 211 0 min 0,000 mm 0,0 UV-I 0 W/m 4,1 C 1,6 km/h (1 Bft)
08.10.2016 21:38 4,7 C 4,7 C 96 % 1022,4 hPa 0,0 mm 0,0 km/h (0 Bft) S-SW 211 0 min 0,000 mm 0,0 UV-I 0 W/m 4,1 C 0,0 km/h (0 Bft)
08.10.2016 21:39 4,7 C 4,7 C 96 % 1022,4 hPa 0,0 mm 0,0 km/h (0 Bft) S-SW 211 0 min 0,000 mm 0,0 UV-I 0 W/m 4,1 C 0,0 km/h (0 Bft)
08.10.2016 21:40 4,7 C 4,7 C 96 % 1022,4 hPa 0,0 mm 0,0 km/h (0 Bft) S-SW 211 0 min 0,000 mm 0,0 UV-I 0 W/m 4,1 C 0,0 km/h (0 Bft)
08.10.2016 21:41 4,7 C 4,7 C 96 % 1022,4 hPa 0,0 mm 0,0 km/h (0 Bft) S-SW 211 0 min 0,000 mm 0,0 UV-I 0 W/m 4,1 C 0,0 km/h (0 Bft)
08.10.2016 21:42 4,7 C 4,7 C 96 % 1022,4 hPa 0,0 mm 0,0 km/h (0 Bft) S-SW 211 0 min 0,000 mm 0,0 UV-I 0 W/m 4,1 C 0,0 km/h (0 Bft)
08.10.2016 21:43 4,7 C 4,7 C 96 % 1022,4 hPa 0,0 mm 0,0 km/h (0 Bft) S-SW 211 0 min 0,000 mm 0,0 UV-I 0 W/m 4,1 C 0,0 km/h (0 Bft)
08.10.2016 21:44 4,7 C 4,7 C 96 % 1022,4 hPa 0,0 mm 0,0 km/h (0 Bft) S-SW 211 0 min 0,000 mm 0,0 UV-I 0 W/m 4,1 C 0,0 km/h (0 Bft)
08.10.2016 21:45 4,7 C 4,7 C 96 % 1022,4 hPa 0,0 mm 0,9 km/h (0 Bft) S-SW 211 0 min 0,000 mm 0,0 UV-I 0 W/m 4,1 C 1,6 km/h (1 Bft)
08.10.2016 21:46 4,7 C 4,7 C 96 % 1022,4 hPa 0,0 mm 0,4 km/h (0 Bft) S-SW 211 0 min 0,000 mm 0,0 UV-I 0 W/m 4,1 C 1,6 km/h (1 Bft)
08.10.2016 21:47 4,7 C 4,7 C 96 % 1022,4 hPa 0,0 mm 0,0 km/h (0 Bft) S-SW 211 0 min 0,000 mm 0,0 UV-I 0 W/m 4,1 C 0,0 km/h (0 Bft)
08.10.2016 21:48 4,7 C 4,7 C 96 % 1022,4 hPa 0,0 mm 0,0 km/h (0 Bft) S-SW 211 0 min 0,000 mm 0,0 UV-I 0 W/m 4,1 C 0,0 km/h (0 Bft)
08.10.2016 21:49 4,7 C 4,7 C 96 % 1022,4 hPa 0,0 mm 0,0 km/h (0 Bft) S-SW 211 0 min 0,000 mm 0,0 UV-I 0 W/m 4,1 C 0,0 km/h (0 Bft)
08.10.2016 21:50 4,7 C 4,7 C 96 % 1022,4 hPa 0,0 mm 0,0 km/h (0 Bft) S-SW 211 0 min 0,000 mm 0,0 UV-I 0 W/m 4,1 C 0,0 km/h (0 Bft)
08.10.2016 21:51 4,7 C 4,7 C 96 % 1022,4 hPa 0,0 mm 0,0 km/h (0 Bft) S-SW 211 0 min 0,000 mm 0,0 UV-I 0 W/m 4,1 C 0,0 km/h (0 Bft)
08.10.2016 21:52 4,7 C 4,7 C 96 % 1022,5 hPa 0,0 mm 0,0 km/h (0 Bft) S-SW 211 0 min 0,000 mm 0,0 UV-I 0 W/m 4,1 C 0,0 km/h (0 Bft)
08.10.2016 21:53 4,7 C 4,7 C 96 % 1022,4 hPa 0,0 mm 0,0 km/h (0 Bft) S-SW 211 0 min 0,000 mm 0,0 UV-I 0 W/m 4,1 C 0,0 km/h (0 Bft)
08.10.2016 21:54 4,7 C 4,7 C 96 % 1022,4 hPa 0,0 mm 0,0 km/h (0 Bft) S-SW 211 0 min 0,000 mm 0,0 UV-I 0 W/m 4,1 C 0,0 km/h (0 Bft)
08.10.2016 21:55 4,7 C 4,7 C 96 % 1022,4 hPa 0,0 mm 0,0 km/h (0 Bft) S-SW 211 0 min 0,000 mm 0,0 UV-I 0 W/m 4,1 C 0,0 km/h (0 Bft)
08.10.2016 21:56 4,7 C 4,7 C 96 % 1022,4 hPa 0,0 mm 0,0 km/h (0 Bft) S-SW 211 0 min 0,000 mm 0,0 UV-I 0 W/m 4,1 C 0,0 km/h (0 Bft)
08.10.2016 21:57 4,7 C 4,7 C 96 % 1022,5 hPa 0,0 mm 0,0 km/h (0 Bft) S-SW 211 0 min 0,000 mm 0,0 UV-I 0 W/m 4,1 C 0,0 km/h (0 Bft)
08.10.2016 21:58 4,7 C 4,7 C 96 % 1022,5 hPa 0,0 mm 0,0 km/h (0 Bft) S-SW 211 0 min 0,000 mm 0,0 UV-I 0 W/m 4,1 C 0,0 km/h (0 Bft)
08.10.2016 21:59 4,7 C 4,7 C 96 % 1022,5 hPa 0,0 mm 0,0 km/h (0 Bft) S-SW 211 0 min 0,000 mm 0,0 UV-I 0 W/m 4,1 C 0,0 km/h (0 Bft)
08.10.2016 22:00 4,7 C 4,7 C 96 % 1022,5 hPa 0,0 mm 0,0 km/h (0 Bft) S-SW 211 0 min 0,000 mm 0,0 UV-I 0 W/m 4,1 C 0,0 km/h (0 Bft)
08.10.2016 22:01 4,7 C 4,7 C 96 % 1022,4 hPa 0,0 mm 0,0 km/h (0 Bft) S-SW 211 0 min 0,000 mm 0,0 UV-I 0 W/m 4,1 C 0,0 km/h (0 Bft)
08.10.2016 22:02 4,7 C 4,7 C 96 % 1022,4 hPa 0,0 mm 0,0 km/h (0 Bft) S-SW 211 0 min 0,000 mm 0,0 UV-I 0 W/m 4,1 C 0,0 km/h (0 Bft)
08.10.2016 22:03 4,7 C 4,7 C 96 % 1022,5 hPa 0,0 mm 0,0 km/h (0 Bft) S-SW 211 0 min 0,000 mm 0,0 UV-I 0 W/m 4,1 C 0,0 km/h (0 Bft)
08.10.2016 22:04 4,7 C 4,7 C 96 % 1022,4 hPa 0,0 mm 0,0 km/h (0 Bft) S-SW 211 0 min 0,000 mm 0,0 UV-I 0 W/m 4,1 C 0,0 km/h (0 Bft)
08.10.2016 22:05 4,7 C 4,7 C 96 % 1022,5 hPa 0,0 mm 0,3 km/h (0 Bft) S-SW 211 0 min 0,000 mm 0,0 UV-I 0 W/m 4,1 C 1,6 km/h (1 Bft)
08.10.2016 22:06 4,7 C 4,7 C 96 % 1022,5 hPa 0,0 mm 0,0 km/h (0 Bft) S-SW 211 0 min 0,000 mm 0,0 UV-I 0 W/m 4,1 C 0,0 km/h (0 Bft)
08.10.2016 22:07 4,7 C 4,7 C 96 % 1022,5 hPa 0,0 mm 0,0 km/h (0 Bft) S-SW 211 0 min 0,000 mm 0,0 UV-I 0 W/m 4,1 C 0,0 km/h (0 Bft)
08.10.2016 22:08 4,7 C 4,7 C 96 % 1022,4 hPa 0,0 mm 0,0 km/h (0 Bft) S-SW 211 0 min 0,000 mm 0,0 UV-I 0 W/m 4,1 C 0,0 km/h (0 Bft)
08.10.2016 22:09 4,7 C 4,7 C 96 % 1022,5 hPa 0,0 mm 0,0 km/h (0 Bft) S-SW 211 0 min 0,000 mm 0,0 UV-I 0 W/m 4,1 C 0,0 km/h (0 Bft)
08.10.2016 22:10 4,7 C 4,7 C 96 % 1022,5 hPa 0,0 mm 0,0 km/h (0 Bft) S-SW 211 0 min 0,000 mm 0,0 UV-I 0 W/m 4,1 C 0,0 km/h (0 Bft)
08.10.2016 22:11 4,7 C 4,7 C 96 % 1022,5 hPa 0,0 mm 0,0 km/h (0 Bft) S-SW 211 0 min 0,000 mm 0,0 UV-I 0 W/m 4,1 C 0,0 km/h (0 Bft)
08.10.2016 22:12 4,7 C 4,7 C 96 % 1022,5 hPa 0,0 mm 0,0 km/h (0 Bft) S-SW 211 0 min 0,000 mm 0,0 UV-I 0 W/m 4,1 C 0,0 km/h (0 Bft)
08.10.2016 22:13 4,7 C 4,7 C 96 % 1022,5 hPa 0,0 mm 0,4 km/h (0 Bft) S-SW 211 0 min 0,000 mm 0,0 UV-I 0 W/m 4,1 C 1,6 km/h (1 Bft)
08.10.2016 22:14 4,7 C 4,7 C 96 % 1022,6 hPa 0,0 mm 0,0 km/h (0 Bft) S-SW 211 0 min 0,000 mm 0,0 UV-I 0 W/m 4,1 C 0,0 km/h (0 Bft)
08.10.2016 22:15 4,7 C 4,7 C 96 % 1022,6 hPa 0,0 mm 0,0 km/h (0 Bft) S-SW 211 0 min 0,000 mm 0,0 UV-I 0 W/m 4,1 C 0,0 km/h (0 Bft)
08.10.2016 22:16 4,7 C 4,7 C 96 % 1022,6 hPa 0,0 mm 0,0 km/h (0 Bft) S-SW 211 0 min 0,000 mm 0,0 UV-I 0 W/m 4,1 C 0,0 km/h (0 Bft)
08.10.2016 22:17 4,7 C 4,7 C 96 % 1022,6 hPa 0,0 mm 0,0 km/h (0 Bft) S-SW 211 0 min 0,000 mm 0,0 UV-I 0 W/m 4,1 C 0,0 km/h (0 Bft)
08.10.2016 22:18 4,7 C 4,7 C 96 % 1022,6 hPa 0,0 mm 0,0 km/h (0 Bft) S-SW 211 0 min 0,000 mm 0,0 UV-I 0 W/m 4,1 C 0,0 km/h (0 Bft)
08.10.2016 22:19 4,7 C 4,7 C 96 % 1022,6 hPa 0,0 mm 0,2 km/h (0 Bft) S-SW 211 0 min 0,000 mm 0,0 UV-I 0 W/m 4,1 C 1,6 km/h (1 Bft)
08.10.2016 22:20 4,7 C 4,7 C 96 % 1022,5 hPa 0,0 mm 0,0 km/h (0 Bft) S-SW 211 0 min 0,000 mm 0,0 UV-I 0 W/m 4,1 C 0,0 km/h (0 Bft)
08.10.2016 22:21 4,7 C 4,7 C 96 % 1022,6 hPa 0,0 mm 0,1 km/h (0 Bft) S-SW 211 0 min 0,000 mm 0,0 UV-I 0 W/m 4,1 C 1,6 km/h (1 Bft)
08.10.2016 22:22 4,7 C 4,7 C 96 % 1022,6 hPa 0,0 mm 0,0 km/h (0 Bft) S-SW 211 0 min 0,000 mm 0,0 UV-I 0 W/m 4,1 C 0,0 km/h (0 Bft)
08.10.2016 22:23 4,7 C 4,7 C 96 % 1022,6 hPa 0,0 mm 0,0 km/h (0 Bft) S-SW 211 0 min 0,000 mm 0,0 UV-I 0 W/m 4,1 C 0,0 km/h (0 Bft)
08.10.2016 22:24 4,7 C 4,7 C 96 % 1022,6 hPa 0,0 mm 0,0 km/h (0 Bft) S-SW 211 0 min 0,000 mm 0,0 UV-I 0 W/m 4,1 C 0,0 km/h (0 Bft)
08.10.2016 22:25 4,7 C 4,7 C 96 % 1022,6 hPa 0,0 mm 0,0 km/h (0 Bft) S-SW 211 0 min 0,000 mm 0,0 UV-I 0 W/m 4,1 C 0,0 km/h (0 Bft)
08.10.2016 22:26 4,7 C 4,7 C 96 % 1022,6 hPa 0,0 mm 0,0 km/h (0 Bft) S-SW 211 0 min 0,000 mm 0,0 UV-I 0 W/m 4,1 C 0,0 km/h (0 Bft)
08.10.2016 22:27 4,7 C 4,7 C 96 % 1022,6 hPa 0,0 mm 0,0 km/h (0 Bft) S-SW 211 0 min 0,000 mm 0,0 UV-I 0 W/m 4,1 C 0,0 km/h (0 Bft)
08.10.2016 22:28 4,7 C 4,7 C 96 % 1022,6 hPa 0,0 mm 0,0 km/h (0 Bft) S-SW 211 0 min 0,000 mm 0,0 UV-I 0 W/m 4,1 C 0,0 km/h (0 Bft)
08.10.2016 22:29 4,7 C 4,7 C 96 % 1022,6 hPa 0,0 mm 0,0 km/h (0 Bft) S-SW 211 0 min 0,000 mm 0,0 UV-I 0 W/m 4,1 C 0,0 km/h (0 Bft)
08.10.2016 22:30 4,7 C 4,7 C 96 % 1022,6 hPa 0,0 mm 0,0 km/h (0 Bft) S-SW 211 0 min 0,000 mm 0,0 UV-I 0 W/m 4,1 C 0,0 km/h (0 Bft)
08.10.2016 22:31 4,7 C 4,7 C 96 % 1022,6 hPa 0,0 mm 0,0 km/h (0 Bft) S-SW 211 0 min 0,000 mm 0,0 UV-I 0 W/m 4,1 C 0,0 km/h (0 Bft)
08.10.2016 22:32 4,7 C 4,7 C 96 % 1022,6 hPa 0,0 mm 0,0 km/h (0 Bft) S-SW 211 0 min 0,000 mm 0,0 UV-I 0 W/m 4,1 C 0,0 km/h (0 Bft)
08.10.2016 22:33 4,7 C 4,7 C 96 % 1022,6 hPa 0,0 mm 0,0 km/h (0 Bft) S-SW 211 0 min 0,000 mm 0,0 UV-I 0 W/m 4,1 C 0,0 km/h (0 Bft)
08.10.2016 22:34 4,7 C 4,7 C 96 % 1022,6 hPa 0,0 mm 0,0 km/h (0 Bft) S-SW 211 0 min 0,000 mm 0,0 UV-I 0 W/m 4,1 C 0,0 km/h (0 Bft)
08.10.2016 22:35 4,7 C 4,7 C 96 % 1022,6 hPa 0,0 mm 0,1 km/h (0 Bft) S-SW 211 0 min 0,000 mm 0,0 UV-I 0 W/m 4,1 C 1,6 km/h (1 Bft)
08.10.2016 22:36 4,7 C 4,7 C 96 % 1022,6 hPa 0,0 mm 0,1 km/h (0 Bft) S-SW 211 0 min 0,000 mm 0,0 UV-I 0 W/m 4,1 C 1,6 km/h (1 Bft)
08.10.2016 22:37 4,6 C 4,7 C 96 % 1022,5 hPa 0,0 mm 0,0 km/h (0 Bft) S-SW 211 0 min 0,000 mm 0,0 UV-I 0 W/m 4,0 C 0,0 km/h (0 Bft)
08.10.2016 22:38 4,6 C 4,7 C 96 % 1022,5 hPa 0,0 mm 0,0 km/h (0 Bft) S-SW 211 0 min 0,000 mm 0,0 UV-I 0 W/m 4,0 C 0,0 km/h (0 Bft)
08.10.2016 22:39 4,6 C 4,6 C 96 % 1022,5 hPa 0,0 mm 0,0 km/h (0 Bft) S-SW 211 0 min 0,000 mm 0,0 UV-I 0 W/m 4,0 C 0,0 km/h (0 Bft)
08.10.2016 22:40 4,6 C 4,7 C 96 % 1022,6 hPa 0,0 mm 0,0 km/h (0 Bft) S-SW 211 0 min 0,000 mm 0,0 UV-I 0 W/m 4,0 C 0,0 km/h (0 Bft)
08.10.2016 22:41 4,6 C 4,6 C 96 % 1022,5 hPa 0,0 mm 0,0 km/h (0 Bft) S-SW 211 0 min 0,000 mm 0,0 UV-I 0 W/m 4,0 C 0,0 km/h (0 Bft)
08.10.2016 22:42 4,6 C 4,6 C 96 % 1022,6 hPa 0,0 mm 0,0 km/h (0 Bft) S-SW 211 0 min 0,000 mm 0,0 UV-I 0 W/m 4,0 C 0,0 km/h (0 Bft)
08.10.2016 22:43 4,6 C 4,6 C 96 % 1022,6 hPa 0,0 mm 0,0 km/h (0 Bft) S-SW 211 0 min 0,000 mm 0,0 UV-I 0 W/m 4,0 C 0,0 km/h (0 Bft)
08.10.2016 22:44 4,6 C 4,6 C 96 % 1022,5 hPa 0,0 mm 0,0 km/h (0 Bft) S-SW 211 0 min 0,000 mm 0,0 UV-I 0 W/m 4,0 C 0,0 km/h (0 Bft)
08.10.2016 22:45 4,6 C 4,6 C 96 % 1022,6 hPa 0,0 mm 0,0 km/h (0 Bft) S-SW 211 0 min 0,000 mm 0,0 UV-I 0 W/m 4,0 C 0,0 km/h (0 Bft)
08.10.2016 22:46 4,6 C 4,6 C 96 % 1022,5 hPa 0,0 mm 0,0 km/h (0 Bft) S-SW 211 0 min 0,000 mm 0,0 UV-I 0 W/m 4,0 C 0,0 km/h (0 Bft)
08.10.2016 22:47 4,6 C 4,6 C 96 % 1022,6 hPa 0,0 mm 0,0 km/h (0 Bft) S-SW 211 0 min 0,000 mm 0,0 UV-I 0 W/m 4,0 C 0,0 km/h (0 Bft)
08.10.2016 22:48 4,6 C 4,6 C 96 % 1022,6 hPa 0,0 mm 0,0 km/h (0 Bft) S-SW 211 0 min 0,000 mm 0,0 UV-I 0 W/m 4,0 C 0,0 km/h (0 Bft)
08.10.2016 22:49 4,5 C 4,6 C 96 % 1022,6 hPa 0,0 mm 0,0 km/h (0 Bft) S-SW 211 0 min 0,000 mm 0,0 UV-I 0 W/m 3,9 C 0,0 km/h (0 Bft)
08.10.2016 22:50 4,5 C 4,5 C 96 % 1022,6 hPa 0,0 mm 0,0 km/h (0 Bft) S-SW 211 0 min 0,000 mm 0,0 UV-I 0 W/m 3,9 C 0,0 km/h (0 Bft)
08.10.2016 22:51 4,5 C 4,5 C 96 % 1022,6 hPa 0,0 mm 0,0 km/h (0 Bft) S-SW 211 0 min 0,000 mm 0,0 UV-I 0 W/m 3,9 C 0,0 km/h (0 Bft)
08.10.2016 22:52 4,4 C 4,5 C 96 % 1022,6 hPa 0,0 mm 0,0 km/h (0 Bft) S-SW 211 0 min 0,000 mm 0,0 UV-I 0 W/m 3,8 C 0,0 km/h (0 Bft)
08.10.2016 22:53 4,4 C 4,4 C 96 % 1022,6 hPa 0,0 mm 0,0 km/h (0 Bft) S-SW 211 0 min 0,000 mm 0,0 UV-I 0 W/m 3,8 C 0,0 km/h (0 Bft)
08.10.2016 22:54 4,4 C 4,4 C 96 % 1022,6 hPa 0,0 mm 0,0 km/h (0 Bft) S-SW 211 0 min 0,000 mm 0,0 UV-I 0 W/m 3,8 C 0,0 km/h (0 Bft)
08.10.2016 22:55 4,3 C 4,4 C 96 % 1022,6 hPa 0,0 mm 0,0 km/h (0 Bft) S-SW 211 0 min 0,000 mm 0,0 UV-I 0 W/m 3,7 C 0,0 km/h (0 Bft)
08.10.2016 22:56 4,3 C 4,3 C 95 % 1022,6 hPa 0,0 mm 0,0 km/h (0 Bft) S-SW 211 0 min 0,000 mm 0,0 UV-I 0 W/m 3,6 C 0,0 km/h (0 Bft)
08.10.2016 22:57 4,3 C 4,3 C 95 % 1022,6 hPa 0,0 mm 0,0 km/h (0 Bft) S-SW 211 0 min 0,000 mm 0,0 UV-I 0 W/m 3,6 C 0,0 km/h (0 Bft)
08.10.2016 22:58 4,3 C 4,3 C 96 % 1022,5 hPa 0,0 mm 0,0 km/h (0 Bft) S-SW 211 0 min 0,000 mm 0,0 UV-I 0 W/m 3,7 C 0,0 km/h (0 Bft)
08.10.2016 22:59 4,3 C 4,3 C 96 % 1022,6 hPa 0,0 mm 0,0 km/h (0 Bft) S-SW 211 0 min 0,000 mm 0,0 UV-I 0 W/m 3,7 C 0,0 km/h (0 Bft)
08.10.2016 23:00 4,3 C 4,3 C 96 % 1022,5 hPa 0,0 mm 0,0 km/h (0 Bft) S-SW 211 0 min 0,000 mm 0,0 UV-I 0 W/m 3,7 C 0,0 km/h (0 Bft)
08.10.2016 23:01 4,3 C 4,3 C 96 % 1022,6 hPa 0,0 mm 0,0 km/h (0 Bft) S-SW 211 0 min 0,000 mm 0,0 UV-I 0 W/m 3,7 C 0,0 km/h (0 Bft)
08.10.2016 23:02 4,3 C 4,3 C 96 % 1022,6 hPa 0,0 mm 0,0 km/h (0 Bft) S-SW 211 0 min 0,000 mm 0,0 UV-I 0 W/m 3,7 C 0,0 km/h (0 Bft)
08.10.2016 23:03 4,2 C 4,3 C 96 % 1022,6 hPa 0,0 mm 0,0 km/h (0 Bft) S-SW 211 0 min 0,000 mm 0,0 UV-I 0 W/m 3,6 C 0,0 km/h (0 Bft)
08.10.2016 23:04 4,2 C 4,2 C 96 % 1022,6 hPa 0,0 mm 0,0 km/h (0 Bft) S-SW 211 0 min 0,000 mm 0,0 UV-I 0 W/m 3,6 C 0,0 km/h (0 Bft)
08.10.2016 23:05 4,2 C 4,2 C 96 % 1022,6 hPa 0,0 mm 0,0 km/h (0 Bft) S-SW 211 0 min 0,000 mm 0,0 UV-I 0 W/m 3,6 C 0,0 km/h (0 Bft)
08.10.2016 23:06 4,2 C 4,2 C 96 % 1022,6 hPa 0,0 mm 0,0 km/h (0 Bft) S-SW 211 0 min 0,000 mm 0,0 UV-I 0 W/m 3,6 C 0,0 km/h (0 Bft)
08.10.2016 23:07 4,2 C 4,2 C 96 % 1022,6 hPa 0,0 mm 0,0 km/h (0 Bft) S-SW 211 0 min 0,000 mm 0,0 UV-I 0 W/m 3,6 C 0,0 km/h (0 Bft)
08.10.2016 23:08 4,2 C 4,2 C 96 % 1022,6 hPa 0,0 mm 0,0 km/h (0 Bft) S-SW 211 0 min 0,000 mm 0,0 UV-I 0 W/m 3,6 C 0,0 km/h (0 Bft)
08.10.2016 23:09 4,2 C 4,2 C 96 % 1022,6 hPa 0,0 mm 0,0 km/h (0 Bft) S-SW 211 0 min 0,000 mm 0,0 UV-I 0 W/m 3,6 C 0,0 km/h (0 Bft)
08.10.2016 23:10 4,2 C 4,2 C 96 % 1022,6 hPa 0,0 mm 0,5 km/h (0 Bft) S-SW 211 0 min 0,000 mm 0,0 UV-I 0 W/m 3,6 C 1,6 km/h (1 Bft)
08.10.2016 23:11 4,2 C 4,2 C 96 % 1022,5 hPa 0,0 mm 0,1 km/h (0 Bft) S-SW 211 0 min 0,000 mm 0,0 UV-I 0 W/m 3,6 C 1,6 km/h (1 Bft)
08.10.2016 23:12 4,2 C 4,2 C 96 % 1022,5 hPa 0,0 mm 0,0 km/h (0 Bft) S-SW 211 0 min 0,000 mm 0,0 UV-I 0 W/m 3,6 C 0,0 km/h (0 Bft)
08.10.2016 23:13 4,2 C 4,2 C 96 % 1022,5 hPa 0,0 mm 0,8 km/h (0 Bft) S-SW 211 0 min 0,000 mm 0,0 UV-I 0 W/m 3,6 C 1,6 km/h (1 Bft)
08.10.2016 23:14 4,2 C 4,2 C 96 % 1022,5 hPa 0,0 mm 0,2 km/h (0 Bft) S-SW 211 0 min 0,000 mm 0,0 UV-I 0 W/m 3,6 C 1,6 km/h (1 Bft)
08.10.2016 23:15 4,2 C 4,2 C 96 % 1022,5 hPa 0,0 mm 0,0 km/h (0 Bft) S-SW 211 0 min 0,000 mm 0,0 UV-I 0 W/m 3,6 C 0,0 km/h (0 Bft)
08.10.2016 23:16 4,2 C 4,2 C 96 % 1022,5 hPa 0,0 mm 0,0 km/h (0 Bft) S-SW 211 0 min 0,000 mm 0,0 UV-I 0 W/m 3,6 C 0,0 km/h (0 Bft)
08.10.2016 23:17 4,2 C 4,2 C 96 % 1022,5 hPa 0,0 mm 0,0 km/h (0 Bft) S-SW 211 0 min 0,000 mm 0,0 UV-I 0 W/m 3,6 C 0,0 km/h (0 Bft)
08.10.2016 23:18 4,2 C 4,2 C 96 % 1022,5 hPa 0,0 mm 0,0 km/h (0 Bft) S-SW 211 0 min 0,000 mm 0,0 UV-I 0 W/m 3,6 C 0,0 km/h (0 Bft)
08.10.2016 23:19 4,3 C 4,3 C 96 % 1022,5 hPa 0,0 mm 0,2 km/h (0 Bft) S-SW 211 0 min 0,000 mm 0,0 UV-I 0 W/m 3,7 C 1,6 km/h (1 Bft)
08.10.2016 23:20 4,2 C 4,3 C 96 % 1022,5 hPa 0,0 mm 0,0 km/h (0 Bft) S-SW 211 0 min 0,000 mm 0,0 UV-I 0 W/m 3,6 C 0,0 km/h (0 Bft)
08.10.2016 23:21 4,2 C 4,2 C 96 % 1022,5 hPa 0,0 mm 0,0 km/h (0 Bft) S-SW 211 0 min 0,000 mm 0,0 UV-I 0 W/m 3,6 C 0,0 km/h (0 Bft)
08.10.2016 23:22 4,2 C 4,2 C 96 % 1022,5 hPa 0,0 mm 0,0 km/h (0 Bft) S-SW 211 0 min 0,000 mm 0,0 UV-I 0 W/m 3,6 C 0,0 km/h (0 Bft)
08.10.2016 23:23 4,2 C 4,2 C 96 % 1022,5 hPa 0,0 mm 0,0 km/h (0 Bft) S-SW 211 0 min 0,000 mm 0,0 UV-I 0 W/m 3,6 C 0,0 km/h (0 Bft)
08.10.2016 23:24 4,2 C 4,2 C 96 % 1022,5 hPa 0,0 mm 0,2 km/h (0 Bft) S-SW 211 0 min 0,000 mm 0,0 UV-I 0 W/m 3,6 C 1,6 km/h (1 Bft)
08.10.2016 23:25 4,2 C 4,2 C 96 % 1022,5 hPa 0,0 mm 0,2 km/h (0 Bft) S-SW 211 0 min 0,000 mm 0,0 UV-I 0 W/m 3,6 C 1,6 km/h (1 Bft)
08.10.2016 23:26 4,2 C 4,2 C 96 % 1022,5 hPa 0,0 mm 0,6 km/h (0 Bft) S-SW 211 0 min 0,000 mm 0,0 UV-I 0 W/m 3,6 C 1,6 km/h (1 Bft)
08.10.2016 23:27 4,2 C 4,2 C 96 % 1022,5 hPa 0,0 mm 0,1 km/h (0 Bft) S-SW 211 0 min 0,000 mm 0,0 UV-I 0 W/m 3,6 C 1,6 km/h (1 Bft)
08.10.2016 23:28 4,2 C 4,2 C 96 % 1022,5 hPa 0,0 mm 0,0 km/h (0 Bft) S-SW 211 0 min 0,000 mm 0,0 UV-I 0 W/m 3,6 C 0,0 km/h (0 Bft)
08.10.2016 23:29 4,2 C 4,2 C 96 % 1022,5 hPa 0,0 mm 0,2 km/h (0 Bft) S-SW 211 0 min 0,000 mm 0,0 UV-I 0 W/m 3,6 C 1,6 km/h (1 Bft)
08.10.2016 23:30 4,2 C 4,2 C 96 % 1022,5 hPa 0,0 mm 1,3 km/h (1 Bft) S-SW 211 0 min 0,000 mm 0,0 UV-I 0 W/m 3,6 C 1,6 km/h (1 Bft)
08.10.2016 23:31 4,2 C 4,2 C 96 % 1022,5 hPa 0,0 mm 1,3 km/h (1 Bft) S-SW 211 0 min 0,000 mm 0,0 UV-I 0 W/m 3,6 C 1,6 km/h (1 Bft)
08.10.2016 23:32 4,2 C 4,2 C 96 % 1022,5 hPa 0,0 mm 1,6 km/h (1 Bft) S-SW 211 0 min 0,000 mm 0,0 UV-I 0 W/m 3,6 C 1,6 km/h (1 Bft)
08.10.2016 23:33 4,2 C 4,2 C 96 % 1022,5 hPa 0,0 mm 1,5 km/h (1 Bft) S-SW 211 0 min 0,000 mm 0,0 UV-I 0 W/m 3,6 C 3,2 km/h (1 Bft)
08.10.2016 23:34 4,2 C 4,2 C 96 % 1022,4 hPa 0,0 mm 1,6 km/h (1 Bft) S-SW 211 0 min 0,000 mm 0,0 UV-I 0 W/m 3,6 C 3,2 km/h (1 Bft)
08.10.2016 23:35 4,2 C 4,2 C 96 % 1022,5 hPa 0,0 mm 1,8 km/h (1 Bft) S-SW 211 0 min 0,000 mm 0,0 UV-I 0 W/m 3,6 C 3,2 km/h (1 Bft)
08.10.2016 23:36 4,1 C 4,2 C 96 % 1022,4 hPa 0,0 mm 1,7 km/h (1 Bft) S-SW 211 0 min 0,000 mm 0,0 UV-I 0 W/m 3,5 C 3,2 km/h (1 Bft)
08.10.2016 23:37 4,1 C 4,2 C 96 % 1022,4 hPa 0,0 mm 1,5 km/h (1 Bft) S-SW 211 0 min 0,000 mm 0,0 UV-I 0 W/m 3,5 C 3,2 km/h (1 Bft)
08.10.2016 23:38 4,2 C 4,2 C 96 % 1022,3 hPa 0,0 mm 1,9 km/h (1 Bft) S-SW 211 0 min 0,000 mm 0,0 UV-I 0 W/m 3,6 C 3,2 km/h (1 Bft)
08.10.2016 23:39 4,1 C 4,2 C 96 % 1022,3 hPa 0,0 mm 2,7 km/h (1 Bft) S-SW 211 0 min 0,000 mm 0,0 UV-I 0 W/m 3,5 C 3,2 km/h (1 Bft)
08.10.2016 23:40 4,1 C 4,1 C 96 % 1022,3 hPa 0,0 mm 2,1 km/h (1 Bft) S-SW 211 0 min 0,000 mm 0,0 UV-I 0 W/m 3,5 C 3,2 km/h (1 Bft)
08.10.2016 23:41 4,1 C 4,1 C 96 % 1022,3 hPa 0,0 mm 2,6 km/h (1 Bft) S-SW 211 0 min 0,000 mm 0,0 UV-I 0 W/m 3,5 C 3,2 km/h (1 Bft)
08.10.2016 23:42 4,1 C 4,1 C 96 % 1022,3 hPa 0,0 mm 2,0 km/h (1 Bft) S-SW 211 0 min 0,000 mm 0,0 UV-I 0 W/m 3,5 C 3,2 km/h (1 Bft)
08.10.2016 23:43 4,1 C 4,1 C 96 % 1022,2 hPa 0,0 mm 2,2 km/h (1 Bft) S-SW 211 0 min 0,000 mm 0,0 UV-I 0 W/m 3,5 C 3,2 km/h (1 Bft)
08.10.2016 23:44 4,1 C 4,1 C 96 % 1022,3 hPa 0,0 mm 1,4 km/h (1 Bft) S-SW 211 0 min 0,000 mm 0,0 UV-I 0 W/m 3,5 C 1,6 km/h (1 Bft)
08.10.2016 23:45 4,0 C 4,1 C 96 % 1022,2 hPa 0,0 mm 1,2 km/h (1 Bft) S-SW 211 0 min 0,000 mm 0,0 UV-I 0 W/m 3,4 C 3,2 km/h (1 Bft)
08.10.2016 23:46 3,9 C 4,0 C 95 % 1022,2 hPa 0,0 mm 1,3 km/h (1 Bft) S-SW 211 0 min 0,000 mm 0,0 UV-I 0 W/m 3,2 C 1,6 km/h (1 Bft)
08.10.2016 23:47 3,9 C 3,9 C 95 % 1022,2 hPa 0,0 mm 0,4 km/h (0 Bft) S-SW 211 0 min 0,000 mm 0,0 UV-I 0 W/m 3,2 C 1,6 km/h (1 Bft)
08.10.2016 23:48 3,8 C 3,9 C 95 % 1022,2 hPa 0,0 mm 0,4 km/h (0 Bft) S-SW 211 0 min 0,000 mm 0,0 UV-I 0 W/m 3,1 C 1,6 km/h (1 Bft)
08.10.2016 23:49 3,8 C 3,8 C 95 % 1022,2 hPa 0,0 mm 0,1 km/h (0 Bft) S-SW 211 0 min 0,000 mm 0,0 UV-I 0 W/m 3,1 C 1,6 km/h (1 Bft)
08.10.2016 23:50 3,8 C 3,8 C 96 % 1022,3 hPa 0,0 mm 0,0 km/h (0 Bft) S-SW 211 0 min 0,000 mm 0,0 UV-I 0 W/m 3,2 C 0,0 km/h (0 Bft)
08.10.2016 23:51 3,8 C 3,8 C 96 % 1022,3 hPa 0,0 mm 0,0 km/h (0 Bft) S-SW 211 0 min 0,000 mm 0,0 UV-I 0 W/m 3,2 C 0,0 km/h (0 Bft)
08.10.2016 23:52 3,7 C 3,8 C 96 % 1022,3 hPa 0,0 mm 0,0 km/h (0 Bft) S-SW 211 0 min 0,000 mm 0,0 UV-I 0 W/m 3,1 C 0,0 km/h (0 Bft)
08.10.2016 23:53 3,7 C 3,8 C 95 % 1022,2 hPa 0,0 mm 0,0 km/h (0 Bft) S-SW 211 0 min 0,000 mm 0,0 UV-I 0 W/m 3,0 C 0,0 km/h (0 Bft)
08.10.2016 23:54 3,7 C 3,7 C 95 % 1022,3 hPa 0,0 mm 1,3 km/h (1 Bft) S-SW 211 0 min 0,000 mm 0,0 UV-I 0 W/m 3,0 C 1,6 km/h (1 Bft)
08.10.2016 23:55 3,7 C 3,7 C 95 % 1022,3 hPa 0,0 mm 0,6 km/h (0 Bft) S-SW 211 0 min 0,000 mm 0,0 UV-I 0 W/m 3,0 C 1,6 km/h (1 Bft)
08.10.2016 23:56 3,6 C 3,7 C 95 % 1022,3 hPa 0,0 mm 1,0 km/h (0 Bft) S-SW 211 0 min 0,000 mm 0,0 UV-I 0 W/m 2,9 C 1,6 km/h (1 Bft)
08.10.2016 23:57 3,6 C 3,6 C 95 % 1022,3 hPa 0,0 mm 0,2 km/h (0 Bft) S-SW 211 0 min 0,000 mm 0,0 UV-I 0 W/m 2,9 C 1,6 km/h (1 Bft)
08.10.2016 23:58 3,6 C 3,6 C 95 % 1022,2 hPa 0,0 mm 0,0 km/h (0 Bft) S-SW 211 0 min 0,000 mm 0,0 UV-I 0 W/m 2,9 C 0,0 km/h (0 Bft)
08.10.2016 23:59 3,6 C 3,6 C 96 % 1022,2 hPa 0,0 mm 0,0 km/h (0 Bft) S-SW 211 0 min 0,000 mm 0,0 UV-I 0 W/m 3,0 C 0,0 km/h (0 Bft)
_ Min-Zeit 23:59 23:59 15:34 05:13 - 23:59 - - - - - - 23:58 23:59
Minimum _ 3,6 C 3,6 C 85 % 1016,7 hPa - 0,0 km/h (0 Bft) - - - - - - 2,9 C 0,0 km/h (0 Bft)
_ Max-Zeit 15:31 15:33 23:59 23:10 20:57 09:54 - - 23:59 16:01 15:20 15:18 01:50 17:16
Maximum _ 6,6 C 6,6 C 96 % 1022,6 hPa 0,2 mm 5,8 km/h
N (2 Bft)
- - 0 min 0,051 mm 1,2 UV-I 197 W/m 5,5 C 8,0 km/h
N-NW (2 Bft)
Durchschnitt _ 5,5 C 5,5 C 94 % 1019,3 hPa #6,4 mm 0,9 km/h (0 Bft) O-NO - #0 min. #0,279 mm 0,8 UV-I 27 W/m 4,6 C 1,7 km/h (1 Bft)